[[{"header":{"parameterUnit":"m.s-1","parameterCategory":1,"la1":31.0,"la2":29.5877,"lo1":-88.7671,"lo2":-86.6584,"dy":0.0162,"dx":0.0185,"nx":115,"ny":88,"refTime":"2023-08-09T00:00:00:Z","depth":0,"parameterNumber":2,"parameterNumberName":"U-component_of_WINDS"},"data":[0.0,0.0,0.0,0.0,0.0,0.0,0.0,0.0,0.0,0.0,0.0,0.0,0.0,0.0,0.0,0.0,0.0,0.0,0.0,0.0,0.0,0.0,0.0,0.0,0.0,0.0,0.0,0.0,0.0,0.0,0.0,0.0,0.0,0.0,0.0,0.0,0.0,0.0,0.0,0.0,0.0,0.0,0.0,0.0,0.0,0.0,0.0,0.0,0.0,0.0,0.0,0.0,0.0,0.0,0.0,0.0,0.0,0.0,0.0,0.0,0.0,0.0,0.0,0.0,0.0,0.0,0.0,0.0,0.0,0.0,0.0,0.0,0.0,0.0,0.0,0.0,0.0,0.0,0.0,0.0,0.0,0.0,0.0,0.0,0.0,0.0,0.0,0.0,0.0,0.0,0.0,0.0,0.0,0.0,0.0,0.0,0.0,0.0,0.0,0.0,0.0,0.0,0.0,0.0,0.0,0.0,0.0,0.0,0.0,0.0,0.0,0.0,0.0,0.0,0.0,0.0,0.0,0.0,0.0,0.0,0.0,0.0,0.0,0.0,0.0,0.0,0.0,0.0,0.0,0.0,0.0,0.0,0.0,0.0,0.0,0.0,0.0,0.0,0.0,0.0,0.0,0.0,0.0,0.0,0.0,0.0,0.0,0.0,0.0,0.0,0.0,0.0,0.0,0.0,0.0,0.0,0.0,0.0,0.0,0.0,0.0,0.0,0.0,0.0,0.0,0.0,0.0,0.0,0.0,0.0,0.0,0.0,0.0,0.0,0.0,0.0,0.0,0.0,0.0,0.0,0.0,0.0,0.0,0.0,0.0,0.0,0.0,0.0,0.0,0.0,0.0,0.0,0.0,0.0,0.0,0.0,0.0,0.0,0.0,0.0,0.0,0.0,0.0,0.0,0.0,0.0,0.0,0.0,0.0,0.0,0.0,0.0,0.0,0.0,0.0,0.0,0.0,0.0,0.0,0.0,0.0,0.0,0.0,0.0,0.0,0.0,0.0,0.0,0.0,0.0,0.0,0.0,0.0,0.0,0.0,0.0,0.0,0.0,0.0,0.0,0.0,0.0,0.0,0.0,0.0,0.0,0.0,0.0,0.0,0.0,0.0,0.0,0.0,0.0,0.0,0.0,0.0,0.0,0.0,0.0,0.0,0.0,0.0,0.0,0.0,0.0,0.0,0.0,0.0,0.0,0.0,0.0,0.0,0.0,0.0,0.0,0.0,0.0,0.0,0.0,0.0,0.0,0.0,0.0,0.0,0.0,0.0,0.0,0.0,0.0,0.0,0.0,0.0,0.0,0.0,0.0,0.0,0.0,0.0,0.0,0.0,0.0,0.0,0.0,0.0,0.0,0.0,0.0,0.0,0.0,0.0,0.0,0.0,0.0,0.0,0.0,0.0,0.0,0.0,0.0,0.0,0.0,0.0,0.0,0.0,0.0,0.0,0.0,0.0,0.0,0.0,0.0,0.0,0.0,0.0,0.0,0.0,0.0,0.0,0.0,0.0,0.0,0.0,0.0,0.0,0.0,0.0,0.0,0.0,0.0,0.0,0.0,0.0,0.0,0.0,0.0,0.0,0.0,0.0,0.0,0.0,0.0,0.0,0.0,0.0,0.0,0.0,0.0,0.0,0.0,0.0,0.0,0.0,0.0,0.0,0.0,0.0,0.0,0.0,0.0,0.0,0.0,0.0,0.0,0.0,0.0,0.0,0.0,0.0,0.0,0.0,0.0,0.0,0.0,0.0,0.0,0.0,0.0,0.0,0.0,0.0,0.0,0.0,0.0,0.0,0.0,0.0,0.0,0.0,0.0,0.0,0.0,0.0,0.0,0.0,0.0,0.0,0.0,0.0,0.0,0.0,0.0,0.0,0.0,0.0,0.0,0.0,0.0,0.0,0.0,0.0,0.0,0.0,0.0,0.0,0.0,0.0,0.0,0.0,0.0,0.0,0.0,0.0,0.0,0.0,0.0,0.0,0.0,0.0,0.0,0.0,0.0,0.0,0.0,0.0,0.0,0.0,0.0,0.0,0.0,0.0,0.0,0.0,0.0,0.0,0.0,0.0,0.0,0.0,0.0,0.0,0.0,0.0,0.0,0.0,0.0,0.0,0.0,0.0,0.0,0.0,0.0,0.0,0.0,0.0,0.0,0.0,0.0,0.0,0.0,0.0,0.0,0.0,0.0,0.0,0.0,0.0,0.0,0.0,0.0,0.0,0.0,0.0,0.0,0.0,0.0,0.0,0.0,0.0,0.0,0.0,0.0,0.0,0.0,0.0,0.0,0.0,0.0,0.0,0.0,0.0,0.0,0.0,0.0,0.0,0.0,0.0,0.0,0.0,0.0,0.0,0.0,0.0,0.0,0.0,0.0,0.0,0.0,0.0,0.0,0.0,0.0,0.0,0.0,0.0,0.0,0.0,0.0,0.0,0.0,0.0,0.0,0.0,0.0,0.0,0.0,0.0,0.0,0.0,0.0,0.0,0.0,0.0,0.0,0.0,0.0,0.0,0.0,0.0,0.0,0.0,0.0,0.0,0.0,0.0,0.0,0.0,0.0,0.0,0.0,0.0,0.0,0.0,0.0,0.0,0.0,0.0,0.0,0.0,0.0,0.0,0.0,0.0,0.0,0.0,0.0,0.0,0.0,0.0,0.0,0.0,0.0,0.0,0.0,0.0,0.0,0.0,0.0,0.0,0.0,0.0,0.0,0.0,0.0,0.0,0.0,0.0,0.0,0.0,0.0,0.0,0.0,0.0,0.0,0.0,0.0,0.0,0.0,0.0,0.0,0.0,0.0,0.0,0.0,0.0,0.0,0.0,0.0,0.0,0.0,0.0,0.0,0.0,0.0,0.0,0.0,0.0,0.0,0.0,0.0,0.0,0.0,0.0,0.0,0.0,0.0,0.0,0.0,0.0,0.0,0.0,0.0,0.0,0.0,0.0,0.0,0.0,0.0,0.0,0.0,0.0,0.0,0.0,0.0,0.0,0.0,0.0,0.0,0.0,0.0,0.0,0.0,0.0,0.0,0.0,0.0,0.0,0.0,0.0,0.0,0.0,0.0,0.0,0.0,0.0,0.0,0.0,0.0,0.0,0.0,0.0,0.0,0.0,0.0,0.0,0.0,0.0,0.0,0.0,0.0,0.0,0.0,0.0,0.0,0.0,0.0,0.0,0.0,0.0,0.0,0.0,0.0,0.0,0.0,0.0,0.0,0.0,0.0,0.0,0.0,0.0,0.0,0.0,0.0,0.0,0.0,0.0,0.0,0.0,0.0,0.0,0.0,0.0,0.0,0.0,0.0,0.0,0.0,0.0,0.0,0.0,0.0,0.0,0.0,0.0,0.0,0.0,0.0,0.0,0.0,0.0,0.0,0.0,0.0,0.0,0.0,0.0,0.0,0.0,0.0,0.0,0.0,0.0,0.0,0.0,0.0,0.0,0.0,0.0,0.0,0.0,0.0,0.0,0.0,0.0,0.0,0.0,0.0,0.0,0.0,0.0,0.0,0.0,0.0,0.0,0.0,0.0,0.0,0.0,0.0,0.0,0.0,0.0,0.0,0.0,0.0,0.0,0.0,0.0,0.0,0.0,0.0,0.0,0.0,0.0,0.0,0.0,0.0,0.0,0.0,0.0,0.0,0.0,0.0,0.0,0.0,0.0,0.0,0.0,0.0,0.0,0.0,0.0,0.0,0.0,0.0,0.0,0.0,0.0,0.0,0.0,0.0,0.0,0.0,0.0,0.0,0.0,0.0,0.0,0.0,0.0,0.0,0.0,0.0,0.0,0.0,0.0,0.0,0.0,0.0,0.0,0.0,0.0,0.0,0.0,0.0,0.0,0.0,0.0,0.0,0.0,0.0,0.0,0.0,0.0,0.0,0.0,0.0,0.0,0.0,0.0,0.0,0.0,0.0,0.0,0.0,0.0,0.0,0.0,0.0,0.0,0.0,0.0,0.0,0.0,0.0,0.0,0.0,0.0,0.0,0.0,0.0,0.0,0.0,0.0,0.0,0.0,0.0,0.0,0.0,0.0,0.0,0.0,0.0,0.0,0.0,0.0,0.0,0.0,0.0,0.0,0.0,0.0,0.0,0.0,0.0,0.0,0.0,0.0,0.0,0.0,0.0,0.0,0.0,0.0,0.0,0.0,0.0,0.0,0.0,0.0,0.0,0.0,0.0,0.0,0.0,0.0,0.0,0.0,0.0,0.0,0.0,0.0,0.0,0.0,0.0,0.0,0.0,0.0,0.0,0.0,0.0,0.0,0.0,0.0,0.0,-2.2073,0.0,0.0,0.0,0.0,0.0,0.0,0.0,0.0,0.0,0.0,0.0,0.0,0.0,0.0,0.0,0.0,0.0,0.0,0.0,0.0,0.0,0.0,0.0,0.0,0.0,0.0,0.0,0.0,0.0,0.0,0.0,0.0,0.0,0.0,0.0,0.0,0.0,0.0,0.0,0.0,0.0,0.0,0.0,0.0,0.0,0.0,0.0,0.0,0.0,0.0,0.0,0.0,0.0,0.0,0.0,0.0,0.0,0.0,0.0,0.0,0.0,0.0,0.0,0.0,0.0,0.0,0.0,0.0,0.0,0.0,0.0,0.0,0.0,0.0,0.0,0.0,0.0,0.0,0.0,0.0,0.0,0.0,0.0,0.0,0.0,0.0,0.0,0.0,0.0,0.0,0.0,0.0,0.0,0.0,0.0,0.0,0.0,0.0,0.0,0.0,0.0,0.0,0.0,0.0,0.0,0.0,0.0,0.0,0.0,0.0,-2.3424,-2.3352,-2.3271,-2.3103,-2.2848,0.0,0.0,0.0,0.0,0.0,0.0,0.0,0.0,0.0,0.0,0.0,0.0,0.0,0.0,0.0,0.0,0.0,0.0,0.0,0.0,0.0,0.0,0.0,0.0,0.0,0.0,0.0,0.0,0.0,0.0,0.0,0.0,0.0,0.0,0.0,0.0,0.0,0.0,0.0,0.0,0.0,0.0,0.0,0.0,0.0,0.0,0.0,0.0,0.0,0.0,0.0,0.0,0.0,0.0,0.0,0.0,0.0,0.0,0.0,0.0,0.0,0.0,0.0,0.0,0.0,0.0,0.0,0.0,0.0,0.0,0.0,0.0,0.0,0.0,0.0,0.0,0.0,0.0,0.0,0.0,0.0,0.0,0.0,0.0,0.0,0.0,0.0,0.0,0.0,0.0,0.0,0.0,0.0,0.0,0.0,0.0,0.0,0.0,0.0,0.0,0.0,0.0,0.0,0.0,0.0,0.0,0.0,0.0,0.0,0.0,0.0,0.0,-2.3839,-2.3688,-2.345,0.0,0.0,0.0,0.0,0.0,0.0,0.0,0.0,0.0,0.0,0.0,0.0,0.0,0.0,0.0,0.0,0.0,0.0,0.0,0.0,0.0,0.0,0.0,0.0,0.0,0.0,0.0,0.0,0.0,0.0,0.0,0.0,0.0,0.0,0.0,0.0,0.0,0.0,0.0,0.0,0.0,0.0,0.0,0.0,0.0,0.0,0.0,0.0,0.0,0.0,0.0,0.0,0.0,0.0,0.0,0.0,0.0,0.0,0.0,0.0,0.0,0.0,0.0,0.0,0.0,0.0,0.0,0.0,0.0,0.0,0.0,0.0,0.0,0.0,0.0,0.0,0.0,0.0,0.0,0.0,0.0,0.0,0.0,0.0,0.0,0.0,0.0,0.0,0.0,0.0,0.0,0.0,0.0,0.0,0.0,0.0,0.0,0.0,0.0,0.0,0.0,0.0,0.0,0.0,0.0,0.0,0.0,0.0,0.0,0.0,-2.4892,-2.4892,-2.4892,0.0,-2.3793,0.0,0.0,0.0,0.0,0.0,0.0,0.0,0.0,0.0,0.0,0.0,0.0,0.0,0.0,0.0,0.0,0.0,0.0,0.0,0.0,0.0,0.0,0.0,0.0,0.0,0.0,0.0,0.0,0.0,0.0,0.0,0.0,0.0,0.0,0.0,0.0,0.0,0.0,0.0,0.0,0.0,0.0,0.0,0.0,0.0,0.0,0.0,0.0,0.0,0.0,0.0,0.0,0.0,0.0,0.0,0.0,0.0,0.0,0.0,0.0,0.0,0.0,0.0,0.0,0.0,0.0,0.0,0.0,0.0,0.0,0.0,0.0,0.0,0.0,0.0,0.0,0.0,0.0,0.0,0.0,0.0,0.0,0.0,0.0,0.0,0.0,0.0,0.0,0.0,0.0,0.0,0.0,0.0,0.0,0.0,0.0,0.0,0.0,0.0,0.0,0.0,0.0,0.0,0.0,0.0,0.0,0.0,0.0,0.0,0.0,-2.5508,-2.5564,-2.5314,-2.4978,0.0,0.0,0.0,0.0,0.0,0.0,0.0,0.0,0.0,0.0,0.0,0.0,0.0,0.0,0.0,0.0,0.0,0.0,0.0,0.0,0.0,0.0,0.0,0.0,0.0,0.0,0.0,0.0,0.0,0.0,0.0,0.0,0.0,0.0,0.0,0.0,0.0,0.0,0.0,0.0,0.0,0.0,0.0,0.0,0.0,0.0,0.0,0.0,0.0,0.0,0.0,0.0,0.0,0.0,0.0,0.0,0.0,0.0,0.0,0.0,0.0,0.0,0.0,0.0,0.0,0.0,0.0,0.0,0.0,0.0,0.0,0.0,0.0,0.0,0.0,0.0,0.0,0.0,0.0,0.0,0.0,0.0,0.0,0.0,0.0,0.0,0.0,0.0,0.0,0.0,0.0,0.0,0.0,0.0,0.0,0.0,0.0,0.0,0.0,0.0,0.0,0.0,0.0,0.0,0.0,0.0,0.0,0.0,0.0,0.0,-2.592,-2.6111,-2.6111,-2.5797,-2.5412,-2.4991,0.0,0.0,0.0,0.0,0.0,0.0,0.0,0.0,0.0,0.0,0.0,0.0,0.0,0.0,0.0,0.0,0.0,0.0,0.0,0.0,0.0,0.0,0.0,0.0,0.0,0.0,0.0,0.0,0.0,0.0,0.0,0.0,0.0,0.0,0.0,0.0,0.0,0.0,0.0,0.0,0.0,0.0,0.0,0.0,0.0,0.0,0.0,0.0,0.0,0.0,0.0,0.0,0.0,0.0,0.0,0.0,0.0,0.0,0.0,0.0,0.0,0.0,0.0,0.0,0.0,0.0,0.0,0.0,0.0,0.0,0.0,0.0,0.0,0.0,0.0,0.0,0.0,0.0,0.0,0.0,0.0,0.0,0.0,0.0,0.0,0.0,0.0,0.0,0.0,0.0,0.0,0.0,0.0,0.0,0.0,0.0,0.0,0.0,0.0,0.0,0.0,0.0,0.0,0.0,0.0,0.0,0.0,0.0,-2.6229,-2.6404,-2.651,-2.6683,-2.6404,-2.5946,0.0,0.0,0.0,0.0,0.0,0.0,0.0,0.0,0.0,0.0,0.0,0.0,0.0,0.0,0.0,0.0,0.0,0.0,0.0,0.0,0.0,0.0,0.0,0.0,0.0,0.0,0.0,0.0,0.0,0.0,0.0,0.0,0.0,0.0,0.0,0.0,0.0,0.0,0.0,0.0,0.0,0.0,0.0,0.0,0.0,0.0,0.0,0.0,0.0,0.0,0.0,0.0,0.0,0.0,0.0,0.0,0.0,0.0,0.0,0.0,0.0,0.0,0.0,0.0,0.0,0.0,0.0,0.0,0.0,0.0,0.0,0.0,0.0,0.0,0.0,0.0,0.0,0.0,0.0,0.0,0.0,0.0,0.0,0.0,0.0,0.0,0.0,0.0,0.0,0.0,0.0,0.0,0.0,0.0,0.0,0.0,0.0,0.0,0.0,0.0,0.0,0.0,0.0,0.0,0.0,0.0,0.0,0.0,0.0,-2.6712,-2.6974,-2.7167,-2.7255,-2.6945,-2.651,0.0,0.0,0.0,0.0,0.0,0.0,0.0,0.0,0.0,0.0,0.0,0.0,0.0,0.0,0.0,0.0,0.0,0.0,0.0,0.0,0.0,0.0,0.0,0.0,0.0,0.0,0.0,0.0,0.0,0.0,0.0,0.0,0.0,0.0,0.0,0.0,0.0,0.0,0.0,0.0,0.0,0.0,0.0,0.0,0.0,0.0,0.0,0.0,0.0,0.0,0.0,0.0,0.0,0.0,0.0,0.0,0.0,0.0,0.0,0.0,0.0,0.0,0.0,0.0,0.0,0.0,0.0,0.0,0.0,0.0,0.0,0.0,0.0,0.0,0.0,0.0,0.0,0.0,0.0,0.0,0.0,0.0,0.0,0.0,0.0,0.0,0.0,0.0,0.0,0.0,0.0,0.0,0.0,0.0,0.0,0.0,0.0,0.0,0.0,0.0,0.0,0.0,0.0,0.0,0.0,0.0,0.0,0.0,0.0,-2.7262,0.0,-2.764,-2.769,-2.7321,-2.6893,0.0,0.0,0.0,0.0,0.0,0.0,0.0,0.0,0.0,0.0,0.0,0.0,0.0,0.0,0.0,0.0,0.0,0.0,0.0,0.0,0.0,0.0,0.0,0.0,0.0,0.0,0.0,0.0,0.0,0.0,0.0,0.0,0.0,0.0,0.0,0.0,0.0,0.0,0.0,0.0,0.0,0.0,0.0,0.0,0.0,0.0,0.0,0.0,0.0,0.0,0.0,0.0,0.0,0.0,0.0,0.0,0.0,0.0,0.0,0.0,0.0,0.0,0.0,0.0,0.0,0.0,0.0,0.0,0.0,0.0,0.0,0.0,0.0,0.0,0.0,0.0,0.0,0.0,0.0,0.0,0.0,0.0,0.0,0.0,0.0,0.0,0.0,0.0,0.0,0.0,0.0,0.0,0.0,0.0,0.0,0.0,0.0,0.0,0.0,0.0,0.0,0.0,0.0,0.0,0.0,0.0,0.0,0.0,-2.7248,-2.7806,-2.7955,-2.802,-2.802,-2.7634,-2.7144,0.0,0.0,0.0,0.0,0.0,0.0,0.0,0.0,0.0,0.0,0.0,0.0,0.0,0.0,0.0,0.0,0.0,0.0,0.0,0.0,0.0,0.0,0.0,0.0,0.0,0.0,0.0,0.0,0.0,0.0,0.0,0.0,0.0,0.0,0.0,0.0,0.0,0.0,0.0,0.0,0.0,0.0,0.0,0.0,0.0,0.0,0.0,0.0,0.0,0.0,0.0,0.0,0.0,0.0,0.0,0.0,0.0,0.0,0.0,0.0,0.0,0.0,0.0,0.0,0.0,0.0,0.0,0.0,0.0,0.0,0.0,0.0,0.0,0.0,0.0,0.0,0.0,0.0,0.0,0.0,0.0,0.0,0.0,0.0,0.0,0.0,0.0,0.0,0.0,0.0,0.0,0.0,0.0,0.0,0.0,0.0,0.0,0.0,0.0,0.0,0.0,0.0,0.0,0.0,0.0,0.0,0.0,0.0,0.0,-2.8201,-2.8348,-2.8578,-2.8924,-2.8622,-2.8405,0.0,0.0,0.0,0.0,0.0,0.0,0.0,0.0,0.0,0.0,0.0,0.0,0.0,0.0,0.0,0.0,0.0,0.0,0.0,0.0,0.0,0.0,0.0,0.0,0.0,0.0,0.0,0.0,0.0,0.0,0.0,0.0,0.0,0.0,0.0,0.0,0.0,0.0,0.0,0.0,0.0,0.0,0.0,0.0,0.0,0.0,0.0,0.0,0.0,0.0,0.0,0.0,0.0,0.0,0.0,0.0,0.0,0.0,0.0,0.0,0.0,0.0,0.0,0.0,0.0,0.0,0.0,0.0,0.0,0.0,0.0,0.0,0.0,0.0,0.0,0.0,0.0,0.0,0.0,0.0,0.0,0.0,0.0,0.0,0.0,0.0,0.0,0.0,0.0,0.0,0.0,0.0,0.0,0.0,0.0,0.0,0.0,0.0,0.0,0.0,0.0,0.0,0.0,0.0,0.0,0.0,0.0,0.0,0.0,-2.9153,-2.9105,-2.9384,-3.0002,-2.9567,-2.935,-2.9273,0.0,0.0,0.0,0.0,0.0,0.0,0.0,0.0,0.0,0.0,0.0,0.0,0.0,0.0,0.0,0.0,0.0,0.0,0.0,0.0,0.0,0.0,0.0,0.0,0.0,0.0,0.0,0.0,0.0,0.0,0.0,0.0,0.0,0.0,0.0,0.0,0.0,0.0,0.0,0.0,0.0,0.0,0.0,0.0,0.0,0.0,0.0,0.0,0.0,0.0,0.0,0.0,0.0,0.0,0.0,0.0,0.0,0.0,0.0,0.0,0.0,0.0,0.0,0.0,0.0,0.0,0.0,0.0,0.0,0.0,0.0,0.0,0.0,0.0,0.0,0.0,0.0,0.0,0.0,0.0,0.0,0.0,0.0,0.0,0.0,0.0,0.0,0.0,0.0,0.0,0.0,0.0,0.0,0.0,0.0,0.0,0.0,0.0,0.0,0.0,0.0,0.0,0.0,0.0,0.0,0.0,0.0,0.0,-3.0513,-3.0194,-3.0331,-3.1024,-3.0567,-3.0114,0.0,0.0,0.0,0.0,0.0,0.0,0.0,0.0,0.0,0.0,0.0,0.0,0.0,0.0,0.0,0.0,0.0,0.0,0.0,0.0,0.0,0.0,0.0,0.0,0.0,0.0,0.0,0.0,0.0,0.0,0.0,0.0,0.0,0.0,0.0,0.0,0.0,0.0,0.0,0.0,0.0,0.0,0.0,0.0,0.0,0.0,0.0,0.0,0.0,0.0,0.0,0.0,0.0,0.0,0.0,0.0,0.0,0.0,0.0,0.0,0.0,0.0,0.0,0.0,0.0,0.0,0.0,0.0,0.0,0.0,0.0,0.0,0.0,0.0,0.0,0.0,0.0,0.0,0.0,0.0,0.0,0.0,0.0,0.0,0.0,0.0,0.0,0.0,0.0,0.0,0.0,0.0,0.0,0.0,0.0,0.0,0.0,0.0,0.0,0.0,0.0,0.0,0.0,0.0,0.0,0.0,0.0,0.0,0.0,-3.2321,-3.2208,-3.2026,-3.1883,-3.1488,-3.1275,0.0,0.0,0.0,0.0,0.0,0.0,0.0,0.0,0.0,0.0,0.0,0.0,0.0,0.0,0.0,0.0,0.0,0.0,0.0,0.0,0.0,0.0,0.0,0.0,0.0,0.0,0.0,0.0,0.0,0.0,0.0,0.0,0.0,0.0,0.0,0.0,0.0,0.0,0.0,0.0,0.0,0.0,0.0,0.0,0.0,0.0,0.0,0.0,0.0,0.0,0.0,0.0,0.0,0.0,0.0,0.0,0.0,0.0,0.0,0.0,0.0,0.0,0.0,0.0,0.0,0.0,0.0,0.0,0.0,0.0,0.0,0.0,0.0,0.0,0.0,0.0,0.0,0.0,0.0,0.0,0.0,0.0,0.0,0.0,0.0,0.0,0.0,0.0,0.0,0.0,0.0,0.0,0.0,0.0,0.0,0.0,0.0,0.0,0.0,0.0,0.0,0.0,0.0,0.0,0.0,0.0,0.0,0.0,-3.2031,-3.3145,-3.3389,-3.3337,-3.2918,-3.2468,-3.2191,0.0,0.0,0.0,0.0,0.0,0.0,0.0,0.0,0.0,0.0,0.0,0.0,0.0,0.0,0.0,0.0,0.0,0.0,0.0,0.0,0.0,0.0,0.0,0.0,0.0,0.0,0.0,0.0,0.0,0.0,0.0,0.0,0.0,0.0,0.0,0.0,0.0,0.0,0.0,0.0,0.0,0.0,0.0,0.0,0.0,0.0,0.0,0.0,0.0,0.0,0.0,0.0,0.0,0.0,0.0,0.0,0.0,0.0,0.0,0.0,0.0,0.0,0.0,0.0,0.0,0.0,0.0,0.0,0.0,0.0,0.0,0.0,0.0,0.0,0.0,0.0,0.0,0.0,0.0,0.0,0.0,0.0,0.0,0.0,0.0,0.0,0.0,0.0,0.0,0.0,0.0,0.0,0.0,0.0,0.0,0.0,0.0,0.0,0.0,0.0,0.0,0.0,0.0,0.0,0.0,0.0,0.0,0.0,-3.3016,-3.3291,-3.3974,-3.4151,-3.3899,-3.3398,-3.2866,0.0,0.0,0.0,0.0,0.0,0.0,0.0,0.0,0.0,0.0,0.0,0.0,0.0,0.0,0.0,0.0,0.0,0.0,0.0,0.0,0.0,0.0,0.0,0.0,0.0,0.0,0.0,0.0,0.0,0.0,0.0,0.0,0.0,0.0,0.0,0.0,0.0,0.0,0.0,0.0,0.0,0.0,0.0,0.0,0.0,0.0,0.0,0.0,0.0,0.0,0.0,0.0,0.0,0.0,0.0,0.0,0.0,0.0,0.0,0.0,0.0,0.0,0.0,0.0,0.0,0.0,0.0,0.0,0.0,0.0,0.0,0.0,0.0,0.0,0.0,0.0,0.0,0.0,0.0,0.0,0.0,0.0,0.0,0.0,0.0,0.0,0.0,0.0,0.0,0.0,0.0,0.0,0.0,0.0,0.0,0.0,0.0,0.0,0.0,0.0,0.0,0.0,0.0,0.0,0.0,0.0,0.0,0.0,-3.3209,-3.3907,-3.4169,-3.4151,-3.3915,-3.3503,-3.2973,0.0,0.0,0.0,0.0,0.0,0.0,0.0,0.0,0.0,0.0,0.0,0.0,0.0,0.0,0.0,0.0,0.0,0.0,0.0,0.0,0.0,0.0,0.0,0.0,0.0,0.0,0.0,0.0,0.0,0.0,0.0,0.0,0.0,0.0,0.0,0.0,0.0,0.0,0.0,0.0,0.0,0.0,0.0,0.0,0.0,0.0,0.0,0.0,-2.7335,0.0,0.0,0.0,0.0,0.0,0.0,0.0,0.0,0.0,0.0,0.0,0.0,0.0,0.0,0.0,0.0,0.0,0.0,0.0,0.0,0.0,0.0,0.0,0.0,0.0,0.0,0.0,0.0,0.0,0.0,0.0,0.0,0.0,0.0,0.0,0.0,0.0,0.0,0.0,0.0,0.0,0.0,0.0,0.0,0.0,0.0,0.0,0.0,0.0,0.0,0.0,0.0,0.0,0.0,0.0,0.0,0.0,0.0,0.0,-3.3612,-3.4084,-3.425,-3.4151,-3.3813,-3.3351,-3.2926,0.0,0.0,0.0,0.0,0.0,0.0,0.0,0.0,0.0,0.0,0.0,0.0,0.0,0.0,0.0,0.0,0.0,0.0,0.0,0.0,0.0,0.0,0.0,0.0,0.0,0.0,0.0,0.0,0.0,0.0,0.0,0.0,0.0,0.0,0.0,0.0,0.0,0.0,0.0,0.0,0.0,0.0,0.0,0.0,0.0,0.0,0.0,0.0,0.0,0.0,0.0,0.0,0.0,0.0,0.0,0.0,0.0,0.0,0.0,0.0,0.0,0.0,0.0,0.0,0.0,0.0,0.0,0.0,0.0,0.0,0.0,0.0,0.0,0.0,0.0,0.0,0.0,0.0,0.0,0.0,0.0,0.0,0.0,0.0,0.0,0.0,0.0,0.0,0.0,0.0,0.0,0.0,0.0,0.0,0.0,0.0,0.0,0.0,0.0,0.0,0.0,0.0,0.0,0.0,0.0,0.0,0.0,-3.3406,-3.3848,-3.4,-3.4101,-3.3984,-3.3658,-3.3177,-3.2734,-3.2413,0.0,0.0,0.0,0.0,0.0,0.0,0.0,0.0,0.0,0.0,0.0,0.0,0.0,0.0,0.0,0.0,0.0,0.0,0.0,0.0,0.0,0.0,0.0,0.0,0.0,0.0,0.0,0.0,0.0,0.0,0.0,0.0,0.0,0.0,0.0,0.0,0.0,0.0,-2.4105,-2.5511,0.0,0.0,0.0,0.0,0.0,0.0,0.0,0.0,-2.7723,0.0,0.0,0.0,0.0,0.0,0.0,0.0,0.0,0.0,0.0,0.0,0.0,0.0,0.0,0.0,0.0,0.0,0.0,0.0,0.0,0.0,0.0,0.0,0.0,0.0,0.0,0.0,0.0,0.0,0.0,0.0,0.0,0.0,0.0,0.0,0.0,0.0,0.0,0.0,0.0,0.0,0.0,0.0,0.0,0.0,0.0,0.0,0.0,0.0,0.0,0.0,0.0,0.0,0.0,0.0,0.0,-3.2961,-3.3245,-3.345,-3.3607,-3.3607,-3.3539,-3.3346,-3.2942,-3.2547,-3.2231,0.0,0.0,0.0,0.0,0.0,0.0,0.0,0.0,0.0,0.0,0.0,0.0,0.0,0.0,0.0,0.0,0.0,0.0,0.0,0.0,0.0,0.0,0.0,0.0,0.0,0.0,0.0,0.0,0.0,0.0,0.0,0.0,0.0,0.0,0.0,0.0,0.0,0.0,0.0,-2.6176,-2.685,0.0,0.0,0.0,0.0,0.0,0.0,0.0,0.0,-2.812,0.0,0.0,0.0,0.0,0.0,0.0,0.0,0.0,0.0,0.0,0.0,0.0,0.0,0.0,0.0,0.0,0.0,0.0,0.0,0.0,0.0,0.0,0.0,0.0,0.0,0.0,0.0,0.0,0.0,0.0,0.0,0.0,0.0,0.0,0.0,0.0,0.0,0.0,0.0,0.0,0.0,0.0,0.0,0.0,0.0,0.0,0.0,0.0,0.0,0.0,0.0,0.0,0.0,0.0,0.0,-3.2973,-3.3203,-3.3361,-3.3503,-3.345,-3.3277,-3.3049,-3.2617,-3.2231,0.0,0.0,0.0,0.0,0.0,0.0,0.0,0.0,0.0,0.0,0.0,0.0,0.0,0.0,0.0,0.0,0.0,0.0,0.0,0.0,0.0,0.0,0.0,0.0,0.0,0.0,0.0,0.0,0.0,0.0,0.0,0.0,0.0,0.0,0.0,0.0,0.0,0.0,0.0,0.0,-2.6782,-2.7268,-2.7736,0.0,0.0,0.0,0.0,0.0,0.0,-2.9376,-2.9133,0.0,0.0,0.0,0.0,0.0,0.0,0.0,0.0,0.0,0.0,0.0,0.0,0.0,0.0,0.0,0.0,0.0,0.0,0.0,0.0,0.0,0.0,0.0,0.0,0.0,0.0,0.0,0.0,0.0,0.0,0.0,0.0,0.0,0.0,0.0,0.0,0.0,0.0,0.0,0.0,0.0,0.0,0.0,0.0,0.0,0.0,0.0,0.0,0.0,0.0,0.0,0.0,0.0,0.0,0.0,-3.2734,-3.2989,-3.3171,-3.3277,-3.3171,-3.2958,-3.2695,-3.2272,-3.1838,0.0,0.0,0.0,0.0,0.0,0.0,0.0,0.0,0.0,0.0,0.0,0.0,0.0,0.0,0.0,0.0,0.0,0.0,0.0,0.0,0.0,0.0,0.0,0.0,0.0,0.0,0.0,0.0,0.0,0.0,0.0,0.0,0.0,0.0,0.0,0.0,0.0,0.0,0.0,0.0,0.0,-2.7696,-2.8239,-2.8972,0.0,0.0,0.0,0.0,-3.0894,-3.0569,0.0,0.0,0.0,0.0,0.0,0.0,0.0,0.0,0.0,0.0,0.0,0.0,0.0,0.0,0.0,0.0,0.0,0.0,0.0,0.0,0.0,0.0,0.0,0.0,0.0,0.0,0.0,0.0,0.0,0.0,0.0,0.0,0.0,0.0,0.0,0.0,0.0,0.0,0.0,0.0,0.0,0.0,0.0,0.0,0.0,0.0,0.0,0.0,0.0,0.0,0.0,0.0,0.0,0.0,0.0,0.0,-3.2302,-3.2398,-3.2508,-3.2508,-3.2508,-3.2453,-3.2302,-3.1838,-3.1495,0.0,0.0,0.0,0.0,0.0,0.0,0.0,0.0,0.0,0.0,0.0,0.0,0.0,0.0,0.0,0.0,0.0,0.0,0.0,0.0,0.0,0.0,0.0,0.0,0.0,0.0,0.0,0.0,0.0,0.0,0.0,0.0,0.0,0.0,0.0,0.0,0.0,0.0,0.0,0.0,0.0,-2.7853,-2.8785,-2.908,-2.9698,0.0,0.0,-3.1244,-3.1575,-3.1244,0.0,0.0,0.0,0.0,0.0,0.0,0.0,0.0,0.0,0.0,0.0,0.0,0.0,0.0,0.0,0.0,0.0,0.0,0.0,0.0,0.0,0.0,0.0,0.0,0.0,0.0,0.0,0.0,0.0,0.0,0.0,0.0,0.0,0.0,0.0,0.0,0.0,0.0,0.0,0.0,0.0,0.0,0.0,0.0,0.0,0.0,0.0,0.0,0.0,0.0,0.0,0.0,0.0,0.0,0.0,-3.1796,-3.191,-3.2079,-3.2262,-3.2382,-3.2247,-3.2079,-3.1838,-3.1437,-3.1014,0.0,0.0,0.0,0.0,0.0,0.0,0.0,0.0,0.0,0.0,0.0,0.0,0.0,0.0,0.0,0.0,0.0,0.0,0.0,0.0,0.0,0.0,0.0,0.0,0.0,0.0,0.0,0.0,0.0,0.0,0.0,0.0,0.0,0.0,0.0,0.0,0.0,0.0,0.0,0.0,0.0,0.0,-2.8905,-2.9766,0.0,0.0,0.0,-3.2579,-3.2647,0.0,0.0,0.0,0.0,0.0,0.0,0.0,0.0,0.0,0.0,0.0,0.0,0.0,0.0,0.0,0.0,0.0,0.0,0.0,0.0,0.0,0.0,0.0,0.0,0.0,0.0,0.0,0.0,0.0,0.0,0.0,0.0,0.0,0.0,0.0,0.0,0.0,0.0,0.0,0.0,0.0,0.0,0.0,0.0,0.0,0.0,0.0,0.0,0.0,0.0,0.0,0.0,0.0,0.0,0.0,0.0,0.0,-3.1437,-3.164,-3.1796,-3.1936,-3.1853,-3.1567,-3.1204,-3.0911,0.0,0.0,0.0,0.0,0.0,0.0,0.0,0.0,0.0,0.0,0.0,0.0,0.0,0.0,0.0,0.0,0.0,0.0,0.0,0.0,0.0,0.0,0.0,0.0,0.0,0.0,0.0,-1.8184,0.0,0.0,0.0,0.0,0.0,0.0,0.0,0.0,0.0,0.0,0.0,0.0,0.0,0.0,-2.8641,-2.9276,-3.0411,-3.1428,0.0,0.0,-3.3536,-3.3466,-3.3396,-3.3171,0.0,0.0,0.0,0.0,0.0,0.0,0.0,0.0,0.0,0.0,0.0,0.0,0.0,0.0,0.0,0.0,0.0,0.0,0.0,0.0,0.0,0.0,0.0,0.0,0.0,0.0,0.0,0.0,0.0,0.0,0.0,0.0,0.0,0.0,0.0,0.0,0.0,0.0,0.0,0.0,0.0,0.0,0.0,0.0,0.0,0.0,0.0,0.0,0.0,0.0,0.0,0.0,0.0,0.0,0.0,-3.0687,-3.0911,-3.0984,-3.0747,-3.0984,-3.0837,-3.0372,-3.0251,-2.9931,0.0,0.0,0.0,0.0,0.0,0.0,0.0,0.0,0.0,0.0,0.0,0.0,0.0,0.0,0.0,0.0,0.0,0.0,0.0,0.0,0.0,0.0,0.0,0.0,0.0,0.0,0.0,0.0,0.0,0.0,0.0,0.0,0.0,0.0,0.0,0.0,0.0,0.0,0.0,0.0,0.0,-2.8847,-3.0151,-3.0708,-3.1365,0.0,0.0,-3.3466,-3.3827,-3.3536,-3.3241,-3.2988,0.0,0.0,0.0,0.0,0.0,0.0,0.0,0.0,0.0,0.0,0.0,0.0,0.0,0.0,0.0,0.0,0.0,0.0,0.0,0.0,0.0,0.0,0.0,0.0,0.0,0.0,0.0,0.0,0.0,0.0,0.0,0.0,0.0,0.0,0.0,0.0,0.0,0.0,0.0,0.0,0.0,0.0,0.0,0.0,0.0,0.0,0.0,0.0,0.0,0.0,0.0,0.0,0.0,-3.0036,-3.0129,-3.0176,-3.0251,-3.0312,-3.0312,-3.0054,-2.9685,-2.9574,-2.9198,0.0,0.0,0.0,0.0,0.0,0.0,0.0,0.0,0.0,0.0,0.0,0.0,0.0,0.0,0.0,0.0,0.0,0.0,0.0,0.0,0.0,0.0,0.0,0.0,0.0,0.0,0.0,0.0,-2.0411,-2.0944,-2.1711,0.0,0.0,0.0,0.0,0.0,0.0,0.0,0.0,0.0,0.0,-2.9699,-3.0349,-3.1389,0.0,0.0,-3.3661,-3.4091,-3.38,-3.3573,-3.3218,-3.2571,-3.2246,0.0,0.0,0.0,0.0,0.0,0.0,0.0,0.0,0.0,0.0,0.0,0.0,0.0,0.0,0.0,0.0,0.0,0.0,0.0,0.0,0.0,0.0,0.0,0.0,0.0,0.0,0.0,0.0,0.0,0.0,0.0,0.0,0.0,0.0,0.0,0.0,0.0,0.0,0.0,0.0,0.0,0.0,0.0,0.0,0.0,0.0,0.0,0.0,0.0,0.0,0.0,0.0,-2.9477,-2.9574,-2.9623,-2.967,-2.9685,-2.9637,-2.9373,-2.8931,-2.8817,-2.843,0.0,0.0,0.0,0.0,0.0,0.0,0.0,0.0,0.0,0.0,0.0,0.0,0.0,0.0,0.0,0.0,0.0,0.0,0.0,0.0,0.0,0.0,0.0,0.0,0.0,0.0,0.0,0.0,-2.0886,-2.1405,-2.2317,0.0,0.0,0.0,0.0,0.0,0.0,0.0,0.0,0.0,0.0,-3.0108,-3.0594,-3.1704,-3.2591,-3.2966,-3.3949,-3.4513,-3.4026,-3.3868,-3.3567,-3.2874,0.0,0.0,0.0,0.0,0.0,0.0,0.0,0.0,0.0,0.0,0.0,0.0,0.0,0.0,0.0,0.0,0.0,0.0,0.0,0.0,0.0,0.0,0.0,0.0,0.0,0.0,0.0,0.0,0.0,0.0,-2.878,0.0,0.0,0.0,0.0,0.0,0.0,0.0,0.0,0.0,0.0,0.0,0.0,0.0,0.0,0.0,0.0,0.0,0.0,0.0,0.0,0.0,0.0,-2.9099,-2.9099,-2.9261,-2.9184,-2.8853,-2.9022,-2.8766,-2.8105,-2.8026,-2.7709,-2.704,0.0,0.0,0.0,0.0,0.0,0.0,0.0,0.0,0.0,0.0,0.0,0.0,0.0,0.0,0.0,0.0,0.0,0.0,0.0,0.0,0.0,0.0,0.0,0.0,0.0,0.0,-2.1128,-2.1349,-2.1741,0.0,0.0,0.0,0.0,0.0,0.0,0.0,0.0,0.0,0.0,-2.9718,-2.9933,-3.1009,-3.1591,-3.2188,-3.2856,-3.3807,-3.4471,-3.4643,-3.4392,-3.4047,0.0,0.0,0.0,0.0,0.0,0.0,0.0,0.0,0.0,0.0,0.0,0.0,0.0,0.0,0.0,0.0,0.0,0.0,0.0,0.0,0.0,0.0,0.0,0.0,0.0,0.0,0.0,-3.0927,-2.9526,0.0,0.0,0.0,0.0,0.0,0.0,0.0,0.0,0.0,0.0,0.0,-2.8587,-2.8444,0.0,0.0,0.0,0.0,0.0,0.0,0.0,0.0,0.0,0.0,0.0,0.0,-2.8509,-2.8471,-2.8444,-2.8444,-2.8327,-2.8249,-2.8052,-2.7656,-2.7443,-2.696,-2.6082,0.0,0.0,0.0,0.0,0.0,0.0,0.0,0.0,0.0,0.0,0.0,0.0,0.0,0.0,0.0,0.0,0.0,0.0,0.0,0.0,0.0,0.0,0.0,0.0,0.0,-2.1118,0.0,0.0,0.0,0.0,0.0,0.0,0.0,0.0,0.0,0.0,0.0,-2.9706,-3.005,-3.0381,-3.0919,-3.165,-3.2636,-3.3485,0.0,0.0,0.0,0.0,0.0,0.0,0.0,0.0,0.0,0.0,0.0,0.0,0.0,0.0,-2.8844,-2.7895,-2.7702,-2.7685,-2.7439,0.0,0.0,0.0,0.0,0.0,0.0,0.0,0.0,0.0,0.0,0.0,0.0,0.0,0.0,0.0,0.0,-2.9245,0.0,0.0,0.0,0.0,0.0,0.0,0.0,0.0,-2.8471,-2.8406,-2.8314,-2.817,-2.8131,0.0,-2.7961,-2.7934,0.0,0.0,0.0,0.0,0.0,0.0,0.0,0.0,-2.8105,-2.8,-2.7947,-2.7881,-2.7815,-2.7656,-2.7443,-2.7121,-2.662,-2.5931,-2.5265,-2.4743,-2.4371,0.0,0.0,0.0,0.0,0.0,0.0,0.0,0.0,0.0,0.0,0.0,0.0,0.0,0.0,0.0,0.0,0.0,0.0,0.0,0.0,0.0,0.0,0.0,-2.1558,0.0,0.0,0.0,0.0,0.0,0.0,0.0,0.0,0.0,-2.9528,-2.9923,-3.0403,-3.1032,-3.1191,-3.1601,-3.2555,0.0,0.0,0.0,0.0,0.0,0.0,0.0,-3.5045,-3.4599,-3.3834,-3.3257,-3.298,-3.2123,-3.0941,-2.9455,0.0,0.0,-2.7899,-2.7645,-2.7492,-2.7326,-2.7127,-2.7028,-2.6939,-2.7138,-2.7337,0.0,0.0,0.0,0.0,0.0,0.0,0.0,0.0,-3.2151,-3.1199,0.0,-2.9467,0.0,0.0,0.0,0.0,0.0,0.0,0.0,0.0,-2.8198,-2.8,-2.7855,-2.7855,-2.7841,-2.788,-2.7667,-2.7387,-2.7268,-2.7762,0.0,0.0,0.0,0.0,0.0,0.0,-2.7776,-2.7723,-2.759,-2.7403,-2.7268,-2.7268,-2.6985,-2.6346,-2.5499,-2.4814,-2.449,-2.4116,-2.3824,-2.3604,-2.3372,0.0,0.0,0.0,0.0,0.0,0.0,0.0,0.0,0.0,0.0,0.0,0.0,0.0,0.0,0.0,0.0,0.0,0.0,0.0,0.0,-2.1706,0.0,0.0,0.0,0.0,0.0,0.0,0.0,0.0,0.0,0.0,-3.0314,-3.0815,-3.1626,-3.293,0.0,0.0,0.0,0.0,-3.4489,-3.5073,-3.5774,-3.6288,-3.6288,-3.608,-3.5818,-3.5542,0.0,0.0,-3.2828,-3.1775,-3.0498,-2.9019,-2.8762,-2.8473,-2.7466,-2.7158,-2.6879,-2.67,-2.6721,-2.6679,-2.6689,-2.7029,-2.723,-3.6006,0.0,0.0,0.0,0.0,-3.4142,-3.3593,-3.2791,-3.2202,-3.1511,-3.0671,-2.9879,0.0,0.0,0.0,0.0,0.0,0.0,-2.8463,-2.8287,-2.8569,-2.8612,-2.8612,-2.8248,-2.8132,-2.817,-2.7847,-2.7394,-2.7005,-2.7005,-2.7094,-2.7323,0.0,0.0,0.0,0.0,-2.7323,-2.7053,-2.6985,-2.685,-2.6633,-2.644,-2.5943,-2.5205,-2.4814,-2.4394,-2.3897,-2.3604,-2.3298,-2.3001,-2.2916,0.0,0.0,0.0,0.0,0.0,0.0,0.0,0.0,0.0,0.0,0.0,0.0,0.0,0.0,0.0,0.0,0.0,0.0,0.0,-2.2649,-2.3091,-2.3515,0.0,0.0,0.0,0.0,0.0,0.0,0.0,0.0,0.0,-3.0941,-3.1268,-3.1906,0.0,0.0,-3.3308,-3.4361,-3.4826,-3.537,-3.5898,0.0,0.0,0.0,-3.6038,-3.5849,-3.5375,-3.4352,-3.3303,-3.2158,-3.151,-3.0796,-2.9507,-2.9007,-2.8496,-2.7764,-2.7429,-2.7418,-2.7336,-2.7253,-2.7056,-2.7149,-2.7253,-2.7315,-3.5379,-3.5249,-3.4935,-3.4549,-3.4225,-3.3965,-3.3462,-3.2804,-3.2291,-3.1709,-3.1035,-3.0215,-2.9619,-2.9278,-2.8769,0.0,0.0,0.0,-2.8267,-2.8164,-2.8295,-2.8303,-2.817,-2.795,-2.7902,-2.7977,-2.7446,-2.6882,-2.6178,-2.6069,-2.5961,-2.5943,0.0,0.0,-2.6552,-2.6564,-2.6508,-2.6302,-2.6082,-2.5943,-2.5849,-2.5523,-2.5099,-2.4515,-2.4261,-2.397,-2.3519,-2.3224,-2.2938,-2.2553,-2.2478,-2.2252,0.0,0.0,0.0,0.0,0.0,0.0,0.0,0.0,0.0,0.0,0.0,-1.8664,-1.9218,0.0,0.0,0.0,-2.206,-2.2879,-2.367,-2.3971,0.0,0.0,0.0,0.0,0.0,0.0,0.0,-2.8672,-2.9565,-3.0465,-3.1323,-3.1786,-3.2444,-3.3686,-3.3629,-3.3868,-3.4897,0.0,-3.5712,-3.6048,-3.6086,-3.5991,-3.5716,-3.5716,-3.5428,-3.4738,-3.3989,-3.3099,-3.2007,-3.1488,-3.0796,-2.9688,-2.8935,-2.8273,-2.762,-2.7441,-2.7441,-2.7441,-2.7357,-2.7357,-2.7272,-2.7336,-2.7315,-3.4817,-3.4698,-3.4631,-3.4361,-3.3896,-3.3882,-3.3521,-3.2946,-3.2347,-3.1777,-3.1243,-3.0398,-2.9767,-2.9416,-2.8964,0.0,-2.8762,-2.8268,-2.7988,-2.7975,-2.7656,-2.7395,-2.7182,-2.7119,-2.7267,-2.75,-2.6876,-2.6071,-2.521,-2.5171,-2.4865,-2.42,-2.517,-2.5721,-2.5791,-2.5594,-2.5523,-2.5465,-2.5158,-2.4945,-2.4945,-2.4587,-2.4322,-2.4116,-2.3751,-2.3446,-2.3224,-2.2852,-2.2553,-2.2327,-2.2176,-2.1883,-2.1436,0.0,0.0,0.0,0.0,0.0,0.0,0.0,0.0,0.0,0.0,0.0,0.0,0.0,0.0,0.0,-2.3896,0.0,-2.4557,-2.4685,0.0,0.0,0.0,-2.633,-2.7169,-2.7483,-2.7851,-2.855,0.0,0.0,-3.1504,0.0,-3.2913,-3.4054,-3.3938,-3.4104,-3.539,-3.5488,-3.5524,-3.5524,-3.5524,-3.5428,-3.5126,-3.503,-3.4593,-3.3639,-3.3312,-3.2821,-3.1895,-3.1184,-3.0469,-2.9479,-2.8705,-2.8059,-2.7388,-2.7169,-2.72,-2.7117,-2.72,-2.7251,-2.7179,-2.7169,-2.7138,-3.4631,-3.4481,-3.4346,-3.4074,-3.3896,-3.3758,-3.3297,-3.2747,-3.2123,-3.1621,-3.1143,-3.0283,-2.9365,-2.8592,-2.8303,-2.8157,-2.8061,-2.8164,-2.8123,-2.7983,-2.7999,-2.7956,-2.7889,-2.7561,-2.7631,-2.7921,-2.7151,-2.6404,-2.5612,-2.5313,-2.4683,-2.3785,-2.402,-2.4371,-2.4802,-2.4862,-2.4862,-2.4743,-2.4659,-2.4455,-2.4177,-2.4105,-2.3886,-2.353,-2.3298,-2.3075,-2.2852,-2.2628,-2.2327,-2.1949,-2.1731,-2.1349,-2.0654,-2.0333,0.0,0.0,0.0,0.0,0.0,0.0,0.0,0.0,0.0,-1.9077,-2.0187,0.0,-2.1483,0.0,-2.4005,-2.4927,-2.5523,-2.5875,0.0,0.0,-2.6931,-2.7013,-2.7336,-2.7658,-2.8004,-2.8313,-2.9327,-3.0238,-3.0975,-3.1717,-3.2207,-3.2644,-3.3585,-3.4438,-3.4896,-3.503,-3.503,-3.5005,-3.4884,-3.4823,-3.4299,-3.3744,-3.3097,-3.2336,-3.1982,-3.1561,-3.0614,-3.0065,-2.9511,-2.8792,-2.831,-2.7624,-2.667,-2.6433,-2.631,-2.591,-2.6578,-2.7148,-2.6817,-2.6724,-2.6506,-3.4414,-3.4264,-3.4059,-3.3785,-3.3521,-3.3368,-3.2931,-3.2273,-3.175,-3.1233,-3.0784,-2.9934,-2.9265,-2.8675,-2.8436,-2.8297,-2.827,-2.8167,-2.8077,-2.792,-2.7716,-2.7615,-2.7615,-2.7278,-2.7242,-2.7382,-2.6606,-2.5925,-2.5206,-2.4704,-2.405,-2.3309,-2.3372,-2.3508,-2.3801,-2.4082,-2.4154,-2.4093,-2.3936,-2.3666,-2.3372,-2.3298,-2.3075,-2.2767,-2.2628,-2.2478,-2.2327,-2.2101,-2.1797,-2.1405,-2.1118,-2.0654,-1.9854,-1.9539,-1.8993,0.0,0.0,0.0,0.0,0.0,0.0,0.0,0.0,0.0,0.0,0.0,-2.2452,-2.3955,-2.5138,-2.5962,-2.6465,-2.6734,-2.6982,-2.7241,-2.7272,-2.7334,-2.7531,-2.762,-2.793,-2.8692,-2.9042,-2.9574,-3.0252,-3.0752,-3.1097,-3.1118,-3.1995,-3.2753,-3.3347,-3.3431,-3.3443,-3.3443,-3.3347,-3.3141,-3.2558,-3.1968,-3.1384,-3.0844,-3.0581,-3.0087,-2.9367,-2.9016,-2.8609,-2.779,-2.7441,-2.6951,-2.6011,-2.5808,-2.5625,-2.5421,-2.5839,-2.6259,-2.6311,-2.6249,-2.6043,-3.4221,-3.393,-3.3742,-3.3367,-3.2721,-3.2733,-3.2359,-3.1757,-3.1246,-3.0709,-3.0126,-2.9574,-2.9197,-2.8973,-2.8803,-2.8712,-2.8724,-2.8122,-2.7893,-2.7788,-2.7231,-2.688,-2.6891,-2.6644,-2.6528,-2.6438,-2.578,-2.5098,-2.4325,-2.3886,-2.3482,-2.2948,-2.2916,-2.2927,-2.2927,-2.3224,-2.3457,-2.3457,-2.3075,-2.2777,-2.2639,-2.2402,-2.2176,-2.2025,-2.1949,-2.1797,-2.1645,-2.1425,-2.1108,-2.0789,-2.0333,-1.9863,-1.9222,-1.8816,-1.8336,0.0,-1.7596,0.0,0.0,0.0,0.0,0.0,0.0,0.0,0.0,-2.2353,-2.3606,-2.5654,-2.6465,-2.689,-2.7262,-2.7262,-2.7262,-2.7262,-2.7314,-2.75,-2.7872,-2.7698,-2.7928,-2.9125,-2.8641,-2.8628,-2.9499,-2.9757,-2.9817,-2.9742,-2.9916,-3.0381,-3.1072,-3.1483,-3.1704,-3.1624,-3.1337,-3.1173,-3.0752,-3.0123,-2.9698,-2.9338,-2.9098,-2.8682,-2.8202,-2.8102,-2.7649,-2.6724,-2.6532,-2.6229,-2.5269,-2.5108,-2.5078,-2.4786,-2.4806,-2.5068,-2.5584,-2.5696,-2.5473,-3.3758,-3.3221,-3.3212,-3.2541,-3.155,-3.1389,-3.1501,-3.1699,-3.0661,-2.9793,-2.9106,-2.8803,-2.8669,-2.8578,-2.859,-2.8498,-2.8327,-2.8042,-2.78,-2.7522,-2.7138,-2.688,-2.6891,-2.6479,-2.6019,-2.5621,-2.537,-2.4571,-2.3294,-2.3557,-2.3406,-2.2788,-2.2777,-2.2713,-2.2553,0.0,0.0,0.0,-2.2488,-2.2252,-2.2187,-2.1873,-2.1655,-2.1578,-2.1098,0.0,-2.0702,-2.0372,-2.006,-1.9835,-1.946,0.0,0.0,0.0,0.0,0.0,0.0,0.0,0.0,0.0,0.0,0.0,-2.0555,-2.1311,-2.2452,-2.3717,-2.4832,-2.5962,-2.6147,-2.6486,-2.69,-2.6996,-2.7081,-2.7272,-2.7572,-2.7831,-2.7935,-2.8396,-2.8728,-2.8711,-2.8801,-2.898,-2.91,-2.9137,-2.9046,-2.8686,-2.8623,-2.8464,-2.8232,-2.9578,-3.0544,-3.0577,-3.0111,-2.9862,-2.9698,-2.9261,-2.8588,-2.8173,-2.795,-2.7631,-2.7063,-2.6865,-2.6703,-2.6054,-2.6347,-2.6093,-2.4666,-2.4496,-2.4317,-2.3467,-2.3241,-2.3614,-2.4854,-2.4995,-2.4545,-3.2606,0.0,-3.182,-3.1373,0.0,-3.0251,-3.0327,-3.0739,-2.9869,-2.9197,-2.8657,-2.851,-2.851,-2.851,-2.851,-2.8431,-2.8179,-2.7857,-2.7534,-2.7336,-2.6538,-2.6203,-2.6192,-2.554,-2.5157,-2.4916,-2.4415,-2.3645,-2.2671,-2.2785,-2.2713,-2.2402,-2.2327,-2.2176,-2.1959,-2.1645,-2.1787,-2.2252,-2.1883,-2.1568,-2.1482,-2.1098,-2.0789,-2.0557,0.0,0.0,0.0,0.0,0.0,0.0,0.0,0.0,0.0,0.0,0.0,-1.6902,-1.7231,-1.7584,-1.7763,-1.843,-1.9159,-1.9981,-2.0815,-2.1859,-2.3117,-2.3849,-2.4617,-2.5606,-2.581,-2.6091,-2.6496,-2.6602,-2.6794,-2.689,-2.7074,-2.7288,-2.7729,-2.8452,-2.8812,-2.8566,-2.8411,-2.8255,-2.8266,-2.8059,-2.7862,-2.7538,-2.739,-2.7318,-2.7047,-2.7902,-2.87,-2.8603,-2.8549,-2.8258,-2.8042,-2.7739,-2.7296,-2.6956,-2.6731,-2.6553,-2.616,-2.5932,-2.5635,-2.5228,-2.5245,-2.4906,-2.387,-2.3604,-2.3368,-2.2782,-2.2539,-2.2694,-2.3525,-2.3634,-2.3339,-3.1387,-3.089,-3.046,-3.0094,-2.9895,-2.9244,-2.9051,-2.9167,0.0,0.0,0.0,-2.8431,-2.8431,-2.8363,-2.8431,-2.8271,-2.8007,-2.751,-2.714,-2.6862,-2.575,-2.5297,-2.5183,-2.4469,-2.4104,-2.4129,-2.3385,-2.2678,-2.2072,-2.1987,-2.1949,-2.1873,-2.1721,-2.1502,-2.1195,-2.0867,-2.0944,-2.1339,-2.1118,-2.0886,-2.0712,-2.0245,-1.9766,-1.9441,-1.9283,-1.9134,-1.8754,-1.8754,-1.8514,-1.8184,-1.7951,-1.7716,-1.7392,-1.7139,-1.6894,-1.6754,-1.7127,-1.7485,-1.7763,-1.8494,-1.9175,-1.9819,-2.0716,-2.1803,-2.3278,-2.3508,-2.3985,-2.4897,-2.5266,-2.5499,-2.58,-2.61,-2.6294,-2.6304,-2.647,-2.6768,-2.7296,-2.7992,-2.8385,-2.8202,-2.7496,-2.7104,-2.7293,-2.6942,-2.6602,-2.64,-2.6334,-2.6314,-2.6304,-2.6815,-2.7239,-2.7058,-2.7119,-2.6972,-2.6526,-2.6257,-2.6004,-2.6043,-2.5742,-2.5509,-2.5392,-2.5226,-2.4798,-2.4293,-2.4092,-2.3779,-2.2938,-2.2558,-2.2362,-2.2274,-2.2097,-2.2017,-2.2143,-2.2241,-2.2213,-3.079,-2.9964,-2.9818,-2.9153,-2.8158,-2.8069,-2.773,-2.7388,-2.8192,-2.8419,-2.8259,-2.8259,-2.8111,-2.7973,-2.7962,-2.7788,-2.7313,-2.6668,-2.6153,0.0,-2.477,-2.4302,-2.4063,-2.3737,-2.3335,-2.282,-2.2637,-2.2252,-2.1671,-2.1599,-2.1425,-2.1088,-2.1021,-2.0712,-2.0177,-2.0098,-1.9932,-1.9696,-1.9932,-2.0098,-2.002,-1.9292,-1.8895,-1.8816,-1.8256,-1.7934,-1.7853,-1.7708,-1.7554,-1.7554,-1.7302,-1.7221,-1.7139,-1.6902,-1.6738,-1.677,-1.7342,-1.7723,-1.7787,-1.8716,-1.9542,-2.0151,-2.0061,-2.0554,-2.2022,-2.2804,-2.3381,-2.3814,-2.411,-2.452,-2.503,-2.5128,-2.5314,-2.5723,-2.6124,-2.6487,-2.6596,-2.721,-2.7567,-2.7071,-2.6388,-2.5984,-2.6217,-2.5984,-2.5722,-2.5489,-2.5431,-2.5411,-2.5421,-2.6024,-2.6613,-2.6602,-2.641,-2.6314,-2.611,-2.5713,-2.5411,-2.543,-2.5206,-2.4868,-2.4554,-2.4393,-2.407,-2.3395,-2.3783,-2.3619,-2.2476,-2.1621,-2.1453,-2.1535,-2.1472,-2.1482,-2.1302,-2.1114,-2.0997,-2.9436,-2.8837,-2.8488,-2.8084,-2.7646,-2.7249,-2.6914,-2.6721,-2.6682,-2.6995,-2.7287,-2.686,-2.6588,-2.6487,-2.6088,-2.5731,-2.5301,-2.4779,-2.4293,-2.3796,-2.2881,-2.2439,-2.2265,-2.1721,-2.1277,-2.0988,-2.0903,-2.0652,-2.0416,-2.0486,-2.0377,-2.0062,-1.9974,-1.9696,-1.9478,-1.932,-1.9082,-1.8825,-1.9063,-1.9222,-1.9073,-1.8505,-1.8095,-1.8023,-1.7708,-1.7465,-1.7375,-1.7294,-1.7139,-1.7057,-1.6894,-1.6894,-1.6902,-1.6738,-1.673,-1.6754,-1.739,-1.7763,-1.7763,-1.8581,-1.9145,-1.9485,-1.9442,-1.969,-2.0416,-2.1242,-2.2014,-2.2691,-2.301,-2.3305,-2.38,-2.4035,-2.4322,-2.4618,-2.4796,-2.4954,-2.5227,-2.5402,-2.5592,-2.5503,-2.4944,-2.4619,-2.482,-2.4726,-2.4536,-2.4183,-2.4228,-2.4356,-2.4482,-2.4922,-2.543,-2.5518,-2.5518,-2.5528,-2.5411,-2.5235,-2.4944,-2.4648,-2.4503,-2.4228,-2.3662,-2.3457,-2.314,-2.2795,-2.3057,-2.2867,-2.1876,-2.1096,-2.081,-2.0889,-2.0835,-2.0852,-2.0823,-2.0201,-1.9563,-2.8262,-2.7947,-2.7403,-2.7105,-2.7034,-2.6323,-2.6083,-2.6005,-2.5148,-2.5113,-2.5667,-2.5268,-2.5004,-2.4853,-2.4276,-2.374,-2.3423,-2.2944,-2.2456,-2.204,-2.1102,-2.0675,-2.0487,-1.98,-1.9515,-1.9433,-1.9277,-1.9195,-1.917,-1.9331,-1.9259,-1.8966,-1.8734,-1.8653,-1.8574,-1.8417,-1.8189,-1.8013,-1.8092,-1.817,-1.8264,-1.7781,-1.7465,-1.731,-1.731,-1.7139,-1.7057,-1.6976,-1.6894,-1.673,-1.673,-1.673,-1.673,-1.673,-1.673,-1.6794,-1.7318,-1.7731,-1.7906,-1.847,-1.8827,-1.8827,-1.9004,-1.9104,-1.9128,-1.9625,-2.0429,-2.1303,-2.1676,-2.1953,-2.2374,-2.274,-2.3063,-2.3153,-2.3107,-2.3322,-2.3651,-2.3607,-2.371,-2.3951,-2.3689,-2.3411,-2.3476,-2.3505,-2.3251,-2.3024,-2.3112,-2.3414,-2.3599,-2.3663,-2.3868,-2.417,-2.4412,-2.4393,-2.4482,-2.4435,-2.4197,-2.3716,-2.3583,-2.3303,-2.2793,-2.2437,-2.2208,-2.2108,-2.2052,-2.1825,-2.123,-2.0584,-2.0288,-2.0266,-2.0192,-2.0135,-2.0203,-1.9263,-1.8525,-2.7723,-2.7456,-2.6985,-2.6396,-2.5773,-2.5195,-2.4858,-2.4583,-2.3761,-2.333,-2.336,-2.4152,-2.4157,-2.3609,-2.3191,-2.2829,-2.2488,-2.1797,-2.1229,-2.0808,-2.0056,-1.9555,-1.9234,-1.9112,-1.8976,-1.881,-1.8718,-1.8606,-1.8479,-1.8499,-1.8313,-1.7931,-1.7769,-1.7663,-1.7401,-1.7165,-1.7013,-1.6784,-1.6401,-1.6715,-1.7658,-1.7375,-1.7139,-1.7131,-1.6886,-1.6738,-1.6714,-1.673,-1.6738,-1.673,-1.673,-1.673,-1.673,-1.673,-1.673,-1.6746,-1.7111,-1.7588,-1.8192,-1.8613,-1.8812,-1.8827,-1.8827,-1.8743,-1.8566,-1.8597,-1.9042,-1.9803,-2.0127,-2.0411,-2.0823,-2.105,-2.1286,-2.1724,-2.1717,-2.1761,-2.2125,-2.2307,-2.2564,-2.2744,-2.2626,-2.2726,-2.255,-2.2353,-2.2312,-2.2105,-2.2159,-2.2274,-2.238,-2.2416,-2.2467,-2.2563,-2.2775,-2.3126,-2.318,-2.2957,-2.289,-2.2722,-2.2506,-2.2147,-2.1768,-2.16,-2.1594,-2.1219,-2.122,-2.1004,-2.049,-1.9985,-1.9596,-1.9446,-1.9371,-1.9196,-1.8835,-1.8411,-1.8395,-2.739,-2.6998,-2.6633,-2.6013,-2.5205,-2.4366,-2.3883,-2.347,-2.2641,-2.1992,-2.1563,-2.1713,-2.1696,-2.1561,-2.1011,-2.0534,-2.0081,-1.9706,-1.9274,-1.8911,-1.8383,-1.8094,-1.7944,-1.7812,-1.7741,-1.7679,-1.7608,-1.7608,-1.7502,-1.7479,-1.7485,-1.7411,-1.7296,-1.707,-1.6826,-1.6741,-1.659,-1.6294,-1.6073,-1.6142,-1.6447,-1.6339,-1.6268,-1.6268,-1.6189,-1.6214,-1.6397,-1.6428,-1.6516,-1.6706,-1.673,-1.673,-1.673,-1.673,-1.673,-1.6754,-1.708,-1.758,-1.8255,-1.8257,-1.8339,-1.855,-1.8465,-1.8365,-1.8288,-1.8102,-1.8163,-1.8496,-1.8884,-1.9349,-1.9723,-1.986,-2.0055,-2.0329,-2.0375,-2.0623,-2.0796,-2.0891,-2.0931,-2.1217,-2.1217,-2.1125,-2.1023,-2.0847,-2.0763,-2.0908,-2.0985,-2.1045,-2.1249,-2.1326,-2.1224,-2.1045,-2.1182,-2.1587,-2.2114,-2.228,-2.1984,-2.1517,-2.1259,-2.1036,-2.0567,-2.044,-2.0371,-2.0218,-2.046,-2.0278,-1.9754,-1.9123,-1.8708,-1.868,-1.8527,-1.8334,-1.8265,-1.7956,-1.7956,-2.6985,-2.6539,-2.6002,-2.5277,-2.4354,-2.3432,-2.2874,-2.2444,-2.1592,-2.0913,-2.0318,-1.9702,-1.9572,-1.9724,-1.922,-1.8731,-1.8385,-1.8134,-1.793,-1.7579,-1.7304,-1.7176,-1.7097,-1.6978,-1.6908,-1.6908,-1.6927,-1.6908,-1.6788,-1.675,-1.6764,-1.6854,-1.6684,-1.6461,-1.6295,-1.6295,-1.6072,-1.5697,-1.563,-1.5554,-1.5396,-1.5396,-1.5475,-1.565,-1.5674,-1.5801,-1.6047,-1.6055,-1.623,-1.6563,-1.6587,-1.6635,-1.673,-1.673,-1.673,-1.6762,-1.6988,-1.7399,-1.7897,-1.7835,-1.7871,-1.8118,-1.8025,-1.79,-1.7807,-1.7628,-1.7441,-1.7463,-1.7836,-1.8185,-1.8669,-1.8916,-1.9012,-1.9086,-1.9257,-1.9397,-1.9646,-1.9602,-1.9587,-1.9828,-1.9904,-1.9837,-1.9654,-1.9512,-1.9535,-1.9723,-1.9772,-1.9837,-2.0091,-2.014,-2.005,-1.9813,-1.9772,-2.0152,-2.1062,-2.1054,-2.0763,-2.0458,-2.0137,-1.9868,-1.9445,-1.9412,-1.9396,-1.9579,-1.9845,-1.9762,-1.9204,-1.8464,-1.7957,-1.8126,-1.7963,-1.7762,-1.78,-1.7498,-1.736,-2.6414,-2.6177,-2.4747,-2.3755,-2.3026,-2.2297,-2.1871,-2.157,-2.0621,-2.0044,-1.9744,-1.8975,-1.8512,-1.8454,-1.8221,-1.8076,-1.7998,-1.7745,-1.7461,-1.7235,-1.7166,-1.7097,-1.6908,-1.6908,-1.6908,-1.6908,-1.6839,-1.676,-1.6612,-1.643,-1.6237,-1.6131,-1.5979,-1.5732,-1.5606,-1.5408,-1.5199,-1.4993,-1.484,-1.472,-1.464,-1.4648,-1.503,-1.5554,-1.565,-1.5642,-1.5705,-1.5705,-1.5864,-1.6214,-1.6246,-1.6389,-1.6683,-1.6722,-1.673,-1.668,-1.6805,-1.6916,-1.7056,-1.729,-1.7477,-1.7295,-1.7435,-1.7527,-1.716,-1.7073,-1.6972,-1.6683,-1.6805,-1.7138,-1.7638,-1.7792,-1.7943,-1.8115,-1.8155,-1.8311,-1.8582,-1.8674,-1.8635,-1.8827,-1.8912,-1.892,-1.892,-1.8827,-1.8835,-1.8883,-1.8867,-1.8907,-1.8955,-1.8947,-1.8931,-1.8915,-1.8976,-1.906,-1.9553,-1.9785,-1.9535,-1.9293,-1.914,-1.8976,-1.8851,-1.8827,-1.8827,-1.8936,-1.9285,-1.9184,-1.8558,-1.8141,-1.7747,-1.7569,-1.7539,-1.7446,-1.7309,-1.7382,-1.7179,-2.4895,-2.4333,-2.3395,-2.2731,-2.2218,-2.1448,-2.0838,-2.0382,-1.9781,-1.9256,-1.8965,-1.8542,-1.8337,-1.8269,-1.793,-1.7725,-1.7676,-1.7539,-1.7332,-1.7047,-1.6968,-1.6968,-1.6908,-1.6908,-1.683,-1.6751,-1.6682,-1.6482,-1.6132,-1.6008,-1.5859,-1.5559,-1.5426,-1.5284,-1.5141,-1.5078,-1.4927,-1.4721,-1.4641,-1.4569,-1.4569,-1.4569,-1.4776,-1.499,-1.5014,-1.5125,-1.5356,-1.5364,-1.5515,-1.5848,-1.6079,-1.6261,-1.6397,-1.6611,-1.6648,-1.6492,-1.6511,-1.6598,-1.6483,-1.653,-1.6514,-1.6541,-1.6494,-1.6479,-1.6438,-1.6487,-1.6487,-1.6588,-1.6588,-1.6777,-1.6871,-1.6965,-1.7059,-1.734,-1.7527,-1.7714,-1.79,-1.8087,-1.8265,-1.8365,-1.8365,-1.8365,-1.8357,-1.8357,-1.8365,-1.8365,-1.8365,-1.8365,-1.8365,-1.8357,-1.8357,-1.8365,-1.8365,-1.8465,-1.8558,-1.8743,-1.8735,-1.855,-1.8465,-1.8381,-1.8365,-1.8365,-1.8365,-1.8365,-1.8613,-1.8512,-1.7971,-1.7732,-1.7353,-1.7245,-1.7216,-1.6849,-1.6849,-1.6699,-1.6519,-2.3628,-2.2756,-2.2184,-2.162,-2.1125,-2.0347,-1.9813,-1.9431,-1.8998,-1.8674,-1.8414,-1.8269,-1.8202,-1.8134,-1.792,-1.7647,-1.7539,-1.7392,-1.7185,-1.6917,-1.6908,-1.6908,-1.6908,-1.6839,-1.676,-1.6603,-1.6473,-1.6202,-1.5726,-1.5647,-1.5434,-1.5141,-1.507,-1.4919,-1.4784,-1.4721,-1.4649,-1.4497,-1.4418,-1.4425,-1.4425,-1.4425,-1.4425,-1.4425,-1.4418,-1.4607,-1.5006,-1.5006,-1.5173,-1.5499,-1.5753,-1.5975,-1.6134,-1.6385,-1.6492,-1.6319,-1.6147,-1.6073,-1.5963,-1.574,-1.5552,-1.5611,-1.5474,-1.5478,-1.5571,-1.567,-1.5812,-1.592,-1.6109,-1.6116,-1.6116,-1.6116,-1.6305,-1.6784,-1.6965,-1.7153,-1.7347,-1.7527,-1.7621,-1.7721,-1.7721,-1.7807,-1.78,-1.78,-1.78,-1.78,-1.78,-1.78,-1.7893,-1.7893,-1.78,-1.78,-1.7807,-1.7807,-1.79,-1.7986,-1.8172,-1.8087,-1.7986,-1.7893,-1.79,-1.79,-1.7885,-1.7893,-1.7792,-1.7707,-1.7576,-1.7238,-1.7101,-1.7065,-1.6663,-1.6342,-1.6195,-1.6116,-1.5871,-2.2663,-2.1663,-2.1163,-2.0454,-1.9754,-1.9158,-1.8828,-1.8782,-1.8482,-1.8337,-1.8279,-1.8076,-1.8076,-1.8008,-1.794,-1.7803,-1.7539,-1.7314,-1.7097,-1.6908,-1.6908,-1.6899,-1.6899,-1.6682,-1.6533,-1.6464,-1.6202,-1.585,-1.5426,-1.5213,-1.507,-1.4864,-1.4641,-1.4425,-1.4353,-1.4361,-1.4281,-1.4137,-1.4057,-1.4057,-1.4057,-1.4057,-1.4057,-1.4129,-1.4057,-1.4217,-1.4529,-1.4601,-1.4767,-1.5133,-1.5146,-1.5462,-1.5849,-1.5986,-1.6087,-1.5997,-1.5658,-1.5401,-1.5362,-1.5007,-1.4729,-1.4575,-1.4592,-1.4574,-1.4477,-1.4596,-1.4734,-1.4829,-1.5057,-1.5178,-1.5172,-1.5172,-1.5547,-1.64,-1.6581,-1.6581,-1.6683,-1.6683,-1.6683,-1.6972,-1.7073,-1.7066,-1.7239,-1.7326,-1.7333,-1.7333,-1.7333,-1.7333,-1.7333,-1.7333,-1.7326,-1.7326,-1.7333,-1.7333,-1.7333,-1.7326,-1.7434,-1.7527,-1.752,-1.7426,-1.7527,-1.7527,-1.7453,-1.7338,-1.7062,-1.6963,-1.6912,-1.667,-1.6514,-1.6442,-1.6027,-1.5761,-1.5616,-1.545,-1.5223,-2.1461,-2.0763,-2.0215,-1.9743,-1.9208,-1.8808,-1.8539,-1.8472,-1.8337,-1.8212,-1.8076,-1.8008,-1.8008,-1.7998,-1.7862,-1.7657,-1.747,-1.7314,-1.7107,-1.6908,-1.6908,-1.6821,-1.6682,-1.6482,-1.6123,-1.57,-1.5355,-1.4999,-1.4633,-1.4482,-1.4281,-1.4,-1.3855,-1.3783,-1.3783,-1.3783,-1.3702,-1.3702,-1.371,-1.371,-1.371,-1.371,-1.371,-1.371,-1.3702,-1.3702,-1.3855,-1.4137,-1.4328,-1.4452,-1.4669,-1.5026,-1.5405,-1.5561,-1.5575,-1.5423,-1.5075,-1.4741,-1.4503,-1.4155,-1.3793,-1.3536,-1.3462,-1.3453,-1.3549,-1.3782,-1.402,-1.4151,-1.438,-1.4586,-1.4592,-1.4592,-1.4943,-1.5913,-1.6021,-1.6204,-1.64,-1.6588,-1.6588,-1.6683,-1.669,-1.6777,-1.6777,-1.6864,-1.6864,-1.6864,-1.6864,-1.6871,-1.6864,-1.6864,-1.677,-1.677,-1.677,-1.6864,-1.6951,-1.6908,-1.6958,-1.7088,-1.7109,-1.7066,-1.708,-1.7181,-1.7115,-1.6771,-1.65,-1.6316,-1.6266,-1.6097,-1.5937,-1.5824,-1.5546,-1.5258,-1.5007,-1.4723,-1.4509,-2.0658,-2.014,-1.955,-1.9152,-1.8875,-1.8482,-1.8269,-1.8212,-1.8212,-1.8134,-1.8018,-1.793,-1.7862,-1.7852,-1.7725,-1.752,-1.7263,-1.7116,-1.689,-1.67,-1.676,-1.6682,-1.6403,-1.6044,-1.5551,-1.4919,-1.4705,-1.4353,-1.392,-1.3695,-1.355,-1.3346,-1.3119,-1.3046,-1.3046,-1.3053,-1.3046,-1.3046,-1.3046,-1.3046,-1.3046,-1.3046,-1.3046,-1.3046,-1.3046,-1.3046,-1.3046,-1.3331,-1.355,-1.3857,-1.4119,-1.4418,-1.4743,-1.481,-1.4901,-1.4741,-1.4405,-1.4068,-1.3828,-1.3319,-1.2942,-1.2685,-1.2533,-1.2388,-1.257,-1.2774,-1.2915,-1.3042,-1.3327,-1.3437,-1.3431,-1.3437,-1.3908,-1.4665,-1.5145,-1.5527,-1.5927,-1.6021,-1.6116,-1.6211,-1.6305,-1.6393,-1.6588,-1.6588,-1.6588,-1.6588,-1.6588,-1.6588,-1.6588,-1.6588,-1.6567,-1.6567,-1.6683,-1.6676,-1.6567,-1.6497,-1.6406,-1.6628,-1.6771,-1.6707,-1.6757,-1.6943,-1.6899,-1.6428,-1.6041,-1.5826,-1.5784,-1.5431,-1.5232,-1.5101,-1.4911,-1.4342,-1.3898,-1.3754,-1.3579,-2.0205,-1.9802,-1.9142,-1.8741,-1.8482,-1.8144,-1.8008,-1.8008,-1.8008,-1.8008,-1.793,-1.7794,-1.7706,-1.7647,-1.7451,-1.7176,-1.6908,-1.6839,-1.6551,-1.6272,-1.6263,-1.6263,-1.5912,-1.5417,-1.4848,-1.4346,-1.4129,-1.384,-1.3339,-1.3039,-1.2826,-1.2746,-1.2452,-1.2305,-1.2305,-1.2298,-1.2305,-1.2305,-1.2305,-1.2305,-1.2305,-1.2305,-1.2305,-1.2298,-1.2305,-1.2298,-1.2305,-1.2298,-1.2599,-1.3345,-1.3529,-1.371,-1.377,-1.3899,-1.4062,-1.3977,-1.3555,-1.3392,-1.3222,-1.2705,-1.2203,-1.1986,-1.18,-1.1499,-1.1436,-1.1701,-1.1844,-1.1844,-1.2081,-1.2183,-1.2194,-1.22,-1.247,-1.286,-1.3966,-1.4797,-1.507,-1.5083,-1.5261,-1.5547,-1.5737,-1.5906,-1.625,-1.6236,-1.6317,-1.6268,-1.6254,-1.6133,-1.6133,-1.6099,-1.6296,-1.6268,-1.5985,-1.5958,-1.5769,-1.5722,-1.5548,-1.5667,-1.592,-1.6077,-1.6106,-1.6366,-1.6001,-1.5562,-1.5396,-1.5301,-1.5042,-1.4583,-1.4409,-1.4269,-1.3786,-1.3278,-1.2966,-1.2881,-1.2711,-2.0064,-1.9802,-1.9142,-1.8684,-1.8482,-1.8144,-1.8008,-1.8008,-1.8008,-1.793,-1.7784,-1.7598,-1.7451,-1.7304,-1.6959,-1.6751,-1.6612,-1.6412,-1.607,-1.5709,-1.5559,-1.548,-1.5196,-1.4776,-1.4281,-1.3775,-1.3557,-1.3193,-1.2673,-1.2378,-1.215,-1.2003,-1.1929,-1.1855,-1.1855,-1.1855,-1.1855,-1.1855,-1.1855,-1.1855,-1.1861,-1.1861,-1.1855,-1.1855,-1.1706,-1.1632,-1.1639,-1.1484,-1.1781,-1.2573,-1.2795,-1.287,-1.2842,-1.2978,-1.3027,-1.3045,-1.279,-1.2534,-1.2277,-1.1929,-1.1494,-1.1241,-1.1142,-1.0901,-1.0912,-1.1028,-1.114,-1.1186,-1.1384,-1.1569,-1.1579,-1.1569,-1.1757,-1.2081,-1.3141,-1.4151,-1.4417,-1.4496,-1.4586,-1.4682,-1.4854,-1.4943,-1.4997,-1.5119,-1.5147,-1.5002,-1.5054,-1.5054,-1.5114,-1.5094,-1.514,-1.4943,-1.478,-1.4793,-1.4774,-1.4734,-1.4708,-1.4702,-1.4903,-1.5167,-1.5259,-1.5445,-1.4586,-1.3768,-1.4128,-1.4189,-1.3739,-1.3341,-1.3328,-1.3391,-1.2973,-1.2534,-1.2363,-1.2186,-1.2015,-1.9868,-1.9605,-1.8942,-1.8617,-1.8482,-1.8144,-1.8008,-1.8008,-1.794,-1.7784,-1.7647,-1.7392,-1.7107,-1.689,-1.6542,-1.6263,-1.6044,-1.5842,-1.5497,-1.507,-1.4713,-1.4633,-1.4561,-1.4361,-1.3855,-1.3346,-1.3046,-1.2673,-1.2224,-1.1855,-1.1706,-1.1632,-1.1484,-1.149,-1.1484,-1.1484,-1.1484,-1.1484,-1.1409,-1.1403,-1.1409,-1.1409,-1.1484,-1.1409,-1.126,-1.1111,-1.1037,-1.0887,-1.1186,-1.1646,-1.1818,-1.1872,-1.1944,-1.1964,-1.1991,-1.2083,-1.1929,-1.1757,-1.1585,-1.1241,-1.0982,-1.0727,-1.0554,-1.0467,-1.0405,-1.0514,-1.0578,-1.0593,-1.0706,-1.0751,-1.0855,-1.0855,-1.1081,-1.1338,-1.2118,-1.2847,-1.3279,-1.3373,-1.3491,-1.369,-1.3866,-1.4023,-1.3933,-1.4099,-1.4116,-1.4107,-1.4094,-1.4088,-1.4088,-1.3941,-1.3916,-1.3879,-1.3885,-1.3941,-1.4,-1.3944,-1.3785,-1.3779,-1.3711,-1.3977,-1.4432,-1.4482,-1.3616,-1.288,-1.3028,-1.3045,-1.2784,-1.2607,-1.2552,-1.2496,-1.2192,-1.1929,-1.1671,-1.1585,-1.1327,-1.9605,-1.9285,-1.8741,-1.8482,-1.8414,-1.8144,-1.8008,-1.793,-1.7784,-1.7706,-1.7579,-1.7107,-1.6751,-1.6533,-1.6123,-1.5709,-1.5204,-1.5204,-1.4784,-1.4353,-1.4,-1.3855,-1.4065,-1.3855,-1.3492,-1.3119,-1.2753,-1.2372,-1.1929,-1.1558,-1.1409,-1.1335,-1.1186,-1.1111,-1.1186,-1.1111,-1.1117,-1.1186,-1.1186,-1.1186,-1.1186,-1.1186,-1.1186,-1.1111,-1.0818,-1.0663,-1.0513,-1.0438,-1.0588,-1.0887,-1.0829,-1.1021,-1.1106,-1.1024,-1.1095,-1.1193,-1.1154,-1.1073,-1.0895,-1.0814,-1.0554,-1.0381,-1.0294,-1.0207,-1.013,-1.0154,-1.0163,-1.0163,-1.0038,-1.0095,-1.0187,-1.0241,-1.0416,-1.0647,-1.0875,-1.1235,-1.1738,-1.1925,-1.2232,-1.2694,-1.2797,-1.2962,-1.3194,-1.3363,-1.3345,-1.2963,-1.2963,-1.2951,-1.2951,-1.2939,-1.2957,-1.3076,-1.3112,-1.3261,-1.3189,-1.301,-1.2927,-1.278,-1.2586,-1.2748,-1.3498,-1.3492,-1.2703,-1.2242,-1.2254,-1.2266,-1.2272,-1.21,-1.1929,-1.1757,-1.1499,-1.1241,-1.0987,-1.0987,-1.0814,-1.9539,-1.9285,-1.8751,-1.8482,-1.8414,-1.8144,-1.8008,-1.8008,-1.7784,-1.7647,-1.7461,-1.6899,-1.6473,-1.6202,-1.57,-1.5204,-1.4935,-1.4641,-1.4209,-1.371,-1.3266,-1.3119,-1.3266,-1.3273,-1.3119,-1.2746,-1.2298,-1.2003,-1.1706,-1.1409,-1.1186,-1.1192,-1.1192,-1.1117,-1.1117,-1.1117,-1.1117,-1.1117,-1.1117,-1.1117,-1.1117,-1.1111,-1.1037,-1.0887,-1.0513,-1.0218,-1.0067,-1.0067,-0.9992,-1.0046,-1.0209,-1.0431,-1.0455,-1.0435,-1.0573,-1.0752,-1.0809,-1.0641,-1.0467,-1.0381,-1.0294,-1.012,-1.0125,-1.0038,-1.0038,-1.0038,-1.0038,-1.0038,-1.0038,-1.0038,-1.0038,-1.0038,-1.0159,-1.0207,-1.0309,-1.0314,-1.0573,-1.1096,-1.1522,-1.1736,-1.1822,-1.1887,-1.1885,-1.2126,-1.2054,-1.1888,-1.1849,-1.1832,-1.186,-1.1981,-1.202,-1.2158,-1.2153,-1.2186,-1.2158,-1.2091,-1.2063,-1.2012,-1.1738,-1.1682,-1.2406,-1.2602,-1.1774,-1.1472,-1.1391,-1.1488,-1.1671,-1.1413,-1.1241,-1.1068,-1.0869,-1.0651,-1.0459,-1.0408,-1.0292,-1.9407,-1.9142,-1.8818,-1.8607,-1.8482,-1.8212,-1.8076,-1.8008,-1.7784,-1.7647,-1.7392,-1.6899,-1.6333,-1.5912,-1.5355,-1.4856,-1.4497,-1.4065,-1.363,-1.3266,-1.2973,-1.2826,-1.2746,-1.2826,-1.282,-1.2526,-1.215,-1.1929,-1.1632,-1.1341,-1.1117,-1.1117,-1.1117,-1.1117,-1.1117,-1.1117,-1.1117,-1.1117,-1.1117,-1.1117,-1.1117,-1.1117,-1.0962,-1.0663,-1.0368,-1.0143,-0.9916,-0.9771,-0.9695,-0.9575,-0.9591,-0.9807,-0.9933,-0.9935,-1.006,-1.0322,-1.0381,-1.0294,-1.0212,-1.0125,-1.012,-1.0038,-1.0038,-1.0038,-1.0038,-1.0038,-1.0038,-1.0038,-1.0038,-1.0038,-1.0038,-1.0038,-1.0038,-1.0038,-1.0038,-1.0038,-1.0076,-1.0509,-1.0821,-1.0905,-1.0964,-1.1013,-1.1035,-1.1217,-1.118,-1.125,-1.1239,-1.1229,-1.1223,-1.125,-1.1223,-1.1239,-1.1121,-1.1116,-1.1121,-1.1116,-1.1218,-1.1207,-1.1186,-1.0987,-1.1294,-1.1192,-1.0977,-1.088,-1.0788,-1.089,-1.1068,-1.0809,-1.058,-1.0409,-1.0274,-1.0084,-0.9945,-0.9872,-0.975,-1.9196,-1.8923,-1.867,-1.8471,-1.8282,-1.8118,-1.7937,-1.7891,-1.7687,-1.7561,-1.7392,-1.6899,-1.6403,-1.5833,-1.5284,-1.4641,-1.4065,-1.3477,-1.3119,-1.2973,-1.282,-1.2673,-1.2599,-1.2599,-1.2606,-1.2532,-1.2157,-1.1855,-1.1626,-1.1335,-1.1117,-1.1117,-1.1117,-1.1117,-1.1117,-1.1117,-1.1117,-1.1117,-1.1117,-1.1117,-1.1111,-1.1037,-1.0812,-1.0513,-1.0218,-1.0067,-0.9916,-0.9695,-0.9549,-0.9322,-0.9099,-0.9238,-0.9336,-0.9428,-0.9483,-0.9957,-1.0,-1.0033,-1.0038,-1.0038,-1.0038,-1.0038,-1.0038,-1.0038,-1.0038,-1.0038,-1.0038,-1.0038,-1.0038,-1.0038,-1.0038,-1.0038,-1.0038,-1.0038,-1.0038,-1.0038,-1.0038,-1.0038,-1.0168,-1.0256,-1.0402,-1.0484,-1.0542,-1.0614,-1.0579,-1.0646,-1.0641,-1.0641,-1.0641,-1.0641,-1.0554,-1.0549,-1.0554,-1.0554,-1.0554,-1.0554,-1.0554,-1.0554,-1.0554,-1.0559,-1.0477,-1.0467,-1.0458,-1.0361,-1.0361,-1.0458,-1.0519,-1.0297,-1.0133,-0.9931,-0.976,-0.9642,-0.9542,-0.9337,-0.9337,-1.83,-1.8062,-1.7811,-1.7569,-1.74,-1.7262,-1.7372,-1.7451,-1.7263,-1.7341,-1.7423,-1.7038,-1.6515,-1.5991,-1.5417,-1.4705,-1.3928,-1.3346,-1.2973,-1.2826,-1.2599,-1.2378,-1.2378,-1.2378,-1.2392,-1.2244,-1.1942,-1.17,-1.1552,-1.1254,-1.1117,-1.1117,-1.1117,-1.1117,-1.1117,-1.1117,-1.1117,-1.1117,-1.1117,-1.1117,-1.1111,-1.0887,-1.0663,-1.0293,-1.0067,-0.9922,-0.9846,-0.9695,-0.9549,-0.9322,-0.9103,-0.9082,-0.9123,-0.9214,-0.9426,-0.9653,-0.9842,-0.9908,-1.0,-1.0028,-1.0033,-1.0038,-1.0038,-1.0038,-1.0038,-1.0038,-1.0038,-1.0038,-1.0038,-1.0038,-1.0038,-1.0038,-1.0038,-1.0038,-1.0038,-1.0038,-0.9951,-0.9951,-0.9951,-1.0033,-1.0033,-1.012,-1.0212,-1.0299,-1.0299,-1.0299,-1.0212,-1.0212,-1.0212,-1.0125,-1.012,-1.012,-1.012,-1.012,-1.012,-1.0125,-1.0125,-1.0125,-1.0125,-1.0125,-1.013,-1.0125,-1.0033,-1.0111,-1.0106,-1.0188,-1.0058,-0.989,-0.9757,-0.9623,-0.9455,-0.9365,-0.9171,-0.9072,-0.9214,-1.8129,-1.7894,-1.7668,-1.7419,-1.7232,-1.7106,-1.7026,-1.7021,-1.6912,-1.7014,-1.7111,-1.6859,-1.6569,-1.6219,-1.5638,-1.4776,-1.3912,-1.3273,-1.2973,-1.2746,-1.2452,-1.2305,-1.2305,-1.2305,-1.2318,-1.2177,-1.1942,-1.1632,-1.1484,-1.126,-1.1117,-1.1117,-1.1117,-1.1117,-1.1117,-1.1117,-1.1117,-1.1117,-1.1117,-1.1117,-1.1043,-1.0812,-1.0519,-1.0218,-0.9992,-0.9846,-0.9695,-0.9544,-0.9322,-0.9175,-0.8941,-0.8846,-0.8888,-0.9053,-0.9261,-0.9464,-0.9672,-0.979,-0.9823,-0.9871,-1.0033,-1.0038,-1.0033,-1.0038,-1.0038,-1.0038,-1.0038,-1.0038,-1.0038,-1.0038,-1.0038,-1.0038,-1.0038,-1.0038,-1.0038,-0.9951,-0.9868,-0.9777,-0.9777,-0.9777,-0.9864,-0.9951,-1.0033,-1.0038,-1.0038,-0.9951,-0.9868,-0.9868,-0.9781,-0.9781,-0.9777,-0.9689,-0.9777,-0.9777,-0.9777,-0.9777,-0.9777,-0.9781,-0.9694,-0.9781,-0.9781,-0.9777,-0.9864,-1.0038,-0.9941,-0.9899,-0.9795,-0.9691,-0.9549,-0.9393,-0.9266,-0.9143,-0.896,-0.8913,-0.8969,-1.7974,-1.7672,-1.7511,-1.7277,-1.7032,-1.696,-1.6815,-1.6654,-1.6602,-1.6709,-1.6871,-1.6732,-1.6612,-1.6381,-1.5807,-1.4991,-1.3977,-1.355,-1.3112,-1.2746,-1.2526,-1.2378,-1.2305,-1.2305,-1.2311,-1.2264,-1.1948,-1.1632,-1.1403,-1.1186,-1.1117,-1.1117,-1.1117,-1.1117,-1.1117,-1.1117,-1.1117,-1.1117,-1.1117,-1.1111,-1.0887,-1.0669,-1.0368,-1.0143,-0.9997,-0.9771,-0.962,-0.9397,-0.9175,-0.9022,-0.8865,-0.8708,-0.8732,-0.8869,-0.9034,-0.9204,-0.9436,-0.9554,-0.9625,-0.9767,-0.9856,-0.9852,-1.0009,-1.0028,-1.0038,-1.0038,-1.0038,-1.0038,-1.0038,-0.9951,-0.9864,-0.9864,-0.9864,-0.9864,-0.9777,-0.9777,-0.9607,-0.9519,-0.9519,-0.9519,-0.9777,-0.9777,-0.9777,-0.9777,-0.9689,-0.9689,-0.9607,-0.9607,-0.9519,-0.9519,-0.9432,-0.9432,-0.9432,-0.9432,-0.9432,-0.9432,-0.9432,-0.9519,-0.9519,-0.9519,-0.9519,-0.9519,-0.9676,-0.9726,-0.9856,-0.9714,-0.9606,-0.9461,-0.9274,-0.911,-0.9044,-0.8866,-0.8723,-0.8604,-0.854,-1.707,-1.6931,-1.6665,-1.6413,-1.626,-1.6163,-1.6198,-1.6315,-1.6213,-1.6263,-1.6469,-1.6833,-1.6703,-1.6369,-1.5808,-1.5267,-1.4697,-1.4049,-1.3477,-1.3046,-1.268,-1.2452,-1.2298,-1.2305,-1.2325,-1.2197,-1.1874,-1.1471,-1.1248,-1.1111,-1.1117,-1.1117,-1.1117,-1.1117,-1.1117,-1.1117,-1.1117,-1.1117,-1.1117,-1.0887,-1.0588,-1.0363,-1.0137,-0.9916,-0.9771,-0.962,-0.9549,-0.9251,-0.9027,-0.8946,-0.8789,-0.8703,-0.8708,-0.8718,-0.8741,-0.8878,-0.91,-0.9365,-0.9393,-0.9559,-0.9682,-0.971,-0.9804,-1.0005,-0.9971,-0.9962,-0.9966,-1.0038,-1.0009,-0.9803,-0.9698,-0.9657,-0.9589,-0.9492,-0.947,-0.941,-0.934,-0.9349,-0.9262,-0.917,-0.9345,-0.9345,-0.9345,-0.9345,-0.9345,-0.9345,-0.9345,-0.9345,-0.9257,-0.9174,-0.9174,-0.9087,-0.9087,-0.9087,-0.9087,-0.9174,-0.9174,-0.9174,-0.917,-0.917,-0.917,-0.9235,-0.932,-0.937,-0.9496,-0.9489,-0.9275,-0.911,-0.8992,-0.8853,-0.8751,-0.8594,-0.8372,-0.8264,-0.8021,-1.7145,-1.6761,-1.6591,-1.6353,-1.6104,-1.6009,-1.6004,-1.5979,-1.5891,-1.5848,-1.5928,-1.6459,-1.6647,-1.6501,-1.6158,-1.563,-1.5054,-1.4338,-1.3695,-1.3193,-1.2826,-1.2519,-1.2305,-1.2305,-1.2325,-1.2197,-1.188,-1.1484,-1.1248,-1.1105,-1.1117,-1.1117,-1.1117,-1.1117,-1.1117,-1.1117,-1.1117,-1.1117,-1.0968,-1.0738,-1.0438,-1.0218,-1.0067,-0.9922,-0.9695,-0.9549,-0.9397,-0.9175,-0.8946,-0.8865,-0.8708,-0.8703,-0.8703,-0.8708,-0.8708,-0.8722,-0.8855,-0.902,-0.9152,-0.9351,-0.9441,-0.9474,-0.9549,-0.9573,-0.9597,-0.9611,-0.9615,-0.9592,-0.9513,-0.9358,-0.9283,-0.9181,-0.9172,-0.9127,-0.9086,-0.9074,-0.9022,-0.9078,-0.9003,-0.8999,-0.8903,-0.8973,-0.8969,-0.9078,-0.9165,-0.917,-0.917,-0.8995,-0.8999,-0.8911,-0.8915,-0.8828,-0.8828,-0.8828,-0.8828,-0.8832,-0.8828,-0.8828,-0.8644,-0.864,-0.8811,-0.8865,-0.8841,-0.8985,-0.9158,-0.9137,-0.885,-0.8711,-0.862,-0.8507,-0.8399,-0.8132,-0.7791,-0.7165,-0.7007,-1.7423,-1.6864,-1.6684,-1.64,-1.6181,-1.6124,-1.6019,-1.5798,-1.575,-1.5576,-1.5648,-1.6124,-1.6562,-1.672,-1.648,-1.5982,-1.5338,-1.4561,-1.392,-1.3339,-1.29,-1.2526,-1.2378,-1.2305,-1.2244,-1.221,-1.1874,-1.1484,-1.126,-1.1117,-1.1117,-1.1117,-1.1117,-1.1117,-1.1117,-1.1111,-1.1111,-1.0962,-1.0812,-1.0594,-1.0293,-1.0143,-0.9992,-0.9841,-0.962,-0.9473,-0.9246,-0.9018,-0.8865,-0.8784,-0.8703,-0.8703,-0.8703,-0.8703,-0.8703,-0.8708,-0.8765,-0.8807,-0.8959,-0.9119,-0.9223,-0.9261,-0.9308,-0.9384,-0.9365,-0.9246,-0.925,-0.9215,-0.9051,-0.8955,-0.8846,-0.8704,-0.8691,-0.8686,-0.864,-0.8653,-0.8729,-0.8729,-0.8635,-0.8602,-0.8533,-0.8632,-0.8649,-0.8877,-0.899,-0.9082,-0.8999,-0.8727,-0.8627,-0.8524,-0.8456,-0.8452,-0.8464,-0.8468,-0.8476,-0.8476,-0.848,-0.838,-0.8197,-0.8158,-0.8301,-0.8328,-0.8321,-0.8464,-0.8743,-0.8414,-0.8028,-0.8111,-0.8195,-0.7884,-0.7662,-0.7415,-0.7084,-0.6384,-0.6153,-1.7512,-1.6955,-1.674,-1.6524,-1.6374,-1.6181,-1.6077,-1.5944,-1.5798,-1.5576,-1.5536,-1.6042,-1.6539,-1.6693,-1.6551,-1.6219,-1.5692,-1.4919,-1.4137,-1.3557,-1.3039,-1.2673,-1.2452,-1.2231,-1.2157,-1.1955,-1.1787,-1.1484,-1.1186,-1.1117,-1.1117,-1.1117,-1.1117,-1.1117,-1.1111,-1.1037,-1.0962,-1.0812,-1.0594,-1.0438,-1.0143,-0.9992,-0.9846,-0.9625,-0.9473,-0.9251,-0.9022,-0.8865,-0.8784,-0.8703,-0.8703,-0.8703,-0.8703,-0.8703,-0.8703,-0.8703,-0.8703,-0.8732,-0.8817,-0.8926,-0.902,-0.9096,-0.9162,-0.9152,-0.9133,-0.9041,-0.8987,-0.8932,-0.8729,-0.8607,-0.847,-0.8435,-0.829,-0.8263,-0.8292,-0.8263,-0.8313,-0.8221,-0.8213,-0.8105,-0.8166,-0.8276,-0.8243,-0.8361,-0.8599,-0.8707,-0.8471,-0.8289,-0.8178,-0.8084,-0.8051,-0.7986,-0.8002,-0.8013,-0.8028,-0.8032,-0.8124,-0.8097,-0.7899,-0.7737,-0.7748,-0.768,-0.7612,-0.7698,-0.7793,-0.7474,-0.7196,-0.6943,-0.6843,-0.6968,-0.6865,-0.663,-0.6237,-0.569,-0.5616,-1.7733,-1.7134,-1.6853,-1.6591,-1.6384,-1.6316,-1.629,-1.6216,-1.5944,-1.5841,-1.5811,-1.612,-1.6456,-1.6666,-1.6499,-1.6198,-1.5737,-1.4991,-1.4209,-1.3564,-1.3046,-1.2673,-1.2452,-1.2231,-1.2157,-1.1942,-1.1713,-1.1477,-1.1105,-1.1111,-1.1117,-1.1117,-1.1117,-1.1117,-1.1111,-1.0962,-1.0812,-1.0594,-1.0443,-1.0212,-1.0067,-0.9922,-0.9771,-0.9625,-0.9397,-0.9251,-0.9022,-0.8784,-0.8708,-0.8703,-0.8703,-0.8703,-0.8703,-0.8703,-0.8703,-0.8703,-0.8703,-0.8703,-0.8703,-0.8784,-0.8822,-0.8754,-0.8819,-0.8728,-0.8755,-0.8571,-0.8483,-0.8396,-0.8273,-0.8145,-0.8102,-0.7936,-0.7782,-0.7805,-0.7874,-0.7906,-0.7927,-0.7927,-0.7939,-0.7943,-0.8016,-0.8026,-0.7975,-0.7919,-0.8092,-0.8237,-0.7997,-0.7763,-0.7644,-0.7621,-0.7572,-0.7516,-0.7527,-0.7581,-0.7596,-0.772,-0.7841,-0.7709,-0.7487,-0.73,-0.7024,-0.6884,-0.6798,-0.6887,-0.6857,-0.6702,-0.6318,-0.5709,-0.569,-0.6009,-0.6015,-0.5705,-0.5315,-0.4921,-0.4924,-1.7909,-1.72,-1.692,-1.6648,-1.6431,-1.6374,-1.6415,-1.6352,-1.607,-1.5879,-1.5879,-1.5945,-1.6215,-1.6458,-1.6352,-1.6056,-1.5615,-1.4991,-1.4209,-1.3564,-1.3119,-1.2673,-1.2452,-1.2231,-1.2157,-1.1868,-1.1713,-1.1484,-1.1111,-1.1111,-1.1117,-1.1117,-1.1117,-1.1117,-1.1037,-1.0887,-1.0663,-1.0443,-1.0288,-1.0067,-0.9922,-0.9846,-0.9695,-0.9473,-0.9322,-0.9094,-0.8941,-0.8784,-0.8703,-0.8703,-0.8703,-0.8703,-0.8703,-0.8703,-0.8703,-0.8703,-0.8703,-0.8703,-0.8703,-0.8627,-0.8627,-0.8584,-0.8426,-0.8358,-0.8255,-0.8102,-0.8086,-0.8069,-0.7897,-0.7718,-0.7718,-0.761,-0.7643,-0.7663,-0.7675,-0.7703,-0.774,-0.7756,-0.7776,-0.7793,-0.7789,-0.769,-0.7655,-0.7604,-0.7545,-0.7677,-0.7565,-0.7341,-0.7059,-0.7133,-0.714,-0.7088,-0.7024,-0.7172,-0.7325,-0.7132,-0.7022,-0.6826,-0.6613,-0.6476,-0.6315,-0.6175,-0.6006,-0.5949,-0.5959,-0.5956,-0.5448,-0.4771,-0.4921,-0.5237,-0.5007,-0.4696,-0.4462,-0.4148,-0.4148,-1.7863,-1.7278,-1.6899,-1.6616,-1.6389,-1.6374,-1.6394,-1.6378,-1.605,-1.575,-1.5537,-1.5679,-1.5961,-1.6102,-1.5991,-1.5765,-1.5453,-1.486,-1.4094,-1.341,-1.2934,-1.259,-1.2364,-1.2118,-1.1899,-1.1749,-1.1537,-1.134,-1.1039,-1.0972,-1.1009,-1.1045,-1.0935,-1.1007,-1.1031,-1.0887,-1.0594,-1.0293,-1.0212,-1.0067,-0.9846,-0.97,-0.9544,-0.9322,-0.9175,-0.8946,-0.8784,-0.8708,-0.8703,-0.8703,-0.8703,-0.8703,-0.8703,-0.8703,-0.8703,-0.8703,-0.8703,-0.8703,-0.8627,-0.8475,-0.8403,-0.8403,-0.8255,-0.8102,-0.8106,-0.7953,-0.7804,-0.7795,-0.7642,-0.7561,-0.7557,-0.7484,-0.7504,-0.7443,-0.7459,-0.7471,-0.7438,-0.7536,-0.7564,-0.7501,-0.7304,-0.7194,-0.7251,-0.7222,-0.7126,-0.7105,-0.7116,-0.6929,-0.6644,-0.6545,-0.662,-0.6427,-0.637,-0.6344,-0.6389,-0.6263,-0.6152,-0.5969,-0.5865,-0.5747,-0.553,-0.5306,-0.514,-0.5042,-0.5112,-0.5207,-0.456,-0.3759,-0.407,-0.4226,-0.3915,-0.3682,-0.345,-0.345,-0.3526,-1.7077,-1.6539,-1.6429,-1.624,-1.6081,-1.6306,-1.6394,-1.629,-1.5982,-1.5604,-1.543,-1.5438,-1.5527,-1.5632,-1.5396,-1.5168,-1.4925,-1.4274,-1.3531,-1.2877,-1.248,-1.2074,-1.1807,-1.1713,-1.1545,-1.123,-1.1166,-1.0991,-1.0574,-1.0647,-1.061,-1.0539,-1.0658,-1.0733,-1.0765,-1.0663,-1.0443,-1.0218,-1.0067,-0.9916,-0.9695,-0.962,-0.9473,-0.9099,-0.9027,-0.887,-0.8708,-0.8703,-0.8703,-0.8703,-0.8703,-0.8703,-0.8703,-0.8703,-0.8703,-0.8627,-0.8627,-0.8403,-0.8331,-0.8178,-0.8106,-0.8106,-0.803,-0.7876,-0.7876,-0.7718,-0.7642,-0.7561,-0.7561,-0.748,-0.748,-0.733,-0.7342,-0.7265,-0.7196,-0.7111,-0.713,-0.7208,-0.7219,-0.715,-0.7021,-0.6883,-0.6845,-0.6738,-0.6561,-0.6425,-0.6438,-0.6394,-0.6115,-0.5937,-0.5931,-0.5612,-0.5499,-0.5468,-0.5487,-0.5462,-0.5468,-0.5394,-0.5199,-0.4994,-0.4778,-0.4487,-0.4291,-0.416,-0.4314,-0.4392,-0.3763,-0.3292,-0.3136,-0.3136,-0.3136,-0.3136,-0.3137,-0.3137,-0.3217,-1.6711,-1.6227,-1.5996,-1.5828,-1.5773,-1.6171,-1.6327,-1.6175,-1.5856,-1.5662,-1.542,-1.5215,-1.5276,-1.5256,-1.4934,-1.46,-1.4419,-1.3784,-1.3192,-1.2526,-1.2194,-1.182,-1.1532,-1.1341,-1.1227,-1.0942,-1.0805,-1.0628,-1.0387,-1.0345,-1.0363,-1.0353,-1.029,-1.036,-1.0385,-1.0353,-1.0293,-1.0143,-0.9992,-0.9846,-0.9625,-0.9473,-0.9322,-0.9099,-0.8946,-0.8789,-0.8708,-0.8703,-0.8703,-0.8703,-0.8703,-0.8703,-0.8703,-0.8627,-0.8627,-0.8551,-0.8322,-0.8097,-0.7795,-0.7723,-0.7646,-0.7642,-0.7642,-0.7718,-0.7642,-0.7561,-0.7488,-0.7411,-0.7407,-0.733,-0.7326,-0.7176,-0.7103,-0.7026,-0.6945,-0.6861,-0.6865,-0.6945,-0.6945,-0.6868,-0.6556,-0.6402,-0.6328,-0.6187,-0.6006,-0.5858,-0.5789,-0.5674,-0.5649,-0.5497,-0.5268,-0.4936,-0.4738,-0.4686,-0.4708,-0.4705,-0.4718,-0.4747,-0.4551,-0.4266,-0.4,-0.3803,-0.3544,-0.345,-0.3608,-0.3608,-0.3137,-0.2824,-0.2823,-0.2823,-0.2824,-0.2824,-0.2746,-0.2824,-0.2904,-1.6753,-1.6137,-1.5742,-1.5444,-1.5342,-1.5932,-1.612,-1.5914,-1.5914,-1.572,-1.542,-1.5137,-1.51,-1.5115,-1.456,-1.4276,-1.4112,-1.3507,-1.2905,-1.2394,-1.1914,-1.1627,-1.137,-1.116,-1.0898,-1.0765,-1.0635,-1.0337,-1.0266,-1.0176,-1.0188,-1.0179,-1.0065,-0.9933,-0.9936,-0.9935,-0.9972,-0.9829,-0.976,-0.9633,-0.944,-0.9336,-0.913,-0.8917,-0.8789,-0.8784,-0.8703,-0.8703,-0.8703,-0.8703,-0.8703,-0.8703,-0.8627,-0.8479,-0.8403,-0.825,-0.794,-0.7638,-0.733,-0.7257,-0.718,-0.7176,-0.733,-0.7403,-0.748,-0.7403,-0.733,-0.7257,-0.718,-0.7099,-0.7022,-0.6945,-0.6868,-0.6788,-0.6788,-0.671,-0.6714,-0.6714,-0.6641,-0.6405,-0.5938,-0.5705,-0.5709,-0.5556,-0.5479,-0.5332,-0.5196,-0.5029,-0.4935,-0.4935,-0.4704,-0.4318,-0.4106,-0.3859,-0.3874,-0.3985,-0.3991,-0.4017,-0.375,-0.348,-0.3304,-0.3147,-0.3062,-0.3059,-0.3061,-0.2982,-0.2746,-0.2588,-0.2588,-0.2588,-0.2666,-0.2588,-0.2668,-0.2588,-0.2668,-1.5811,-1.5402,-1.5159,-1.5003,-1.4908,-1.5258,-1.5632,-1.6016,-1.5961,-1.573,-1.5352,-1.5147,-1.4887,-1.4713,-1.4178,-1.3785,-1.3331,-1.2846,-1.2261,-1.1789,-1.1553,-1.1166,-1.09,-1.0666,-1.0438,-1.0314,-1.013,-0.997,-0.979,-0.973,-0.973,-0.9563,-0.9641,-0.9485,-0.9405,-0.94,-0.9428,-0.9437,-0.9376,-0.927,-0.9196,-0.9005,-0.8846,-0.8769,-0.8722,-0.8642,-0.8647,-0.867,-0.8675,-0.8689,-0.8699,-0.8627,-0.8479,-0.825,-0.8102,-0.7565,-0.7411,-0.7257,-0.7022,-0.6945,-0.6868,-0.6788,-0.6942,-0.7015,-0.7092,-0.7096,-0.7022,-0.7022,-0.6949,-0.6868,-0.6637,-0.6483,-0.6405,-0.6328,-0.6247,-0.6093,-0.6096,-0.6099,-0.5944,-0.555,-0.5079,-0.5082,-0.5087,-0.5087,-0.501,-0.4854,-0.4698,-0.446,-0.4304,-0.4304,-0.4151,-0.3763,-0.3606,-0.3374,-0.3295,-0.3396,-0.331,-0.3224,-0.3061,-0.2981,-0.2982,-0.2827,-0.2746,-0.2746,-0.2824,-0.2746,-0.2588,-0.251,-0.251,-0.251,-0.251,-0.251,-0.251,-0.251,-0.251,-1.5546,-1.5154,-1.4821,-1.4628,-1.4545,-1.4665,-1.5099,-1.5598,-1.5618,-1.5541,-1.5352,-1.502,-1.4656,-1.4318,-1.3847,-1.3371,-1.2899,-1.2375,-1.1869,-1.1493,-1.1052,-1.0848,-1.0631,-1.0364,-1.0149,-0.9983,-0.9798,-0.9673,-0.9542,-0.9478,-0.9426,-0.9315,-0.9331,-0.9162,-0.9031,-0.8991,-0.8837,-0.887,-0.8906,-0.8922,-0.8801,-0.8712,-0.8588,-0.8517,-0.8477,-0.8477,-0.8491,-0.8445,-0.843,-0.8463,-0.8481,-0.8403,-0.8097,-0.7868,-0.7488,-0.703,-0.6799,-0.6641,-0.6405,-0.6328,-0.6405,-0.6405,-0.6405,-0.6325,-0.6556,-0.6637,-0.6714,-0.6718,-0.6641,-0.6563,-0.6331,-0.6022,-0.5944,-0.5789,-0.5556,-0.5401,-0.5323,-0.5326,-0.501,-0.4616,-0.446,-0.4462,-0.4462,-0.454,-0.4462,-0.4229,-0.4073,-0.3839,-0.3761,-0.3761,-0.3604,-0.3295,-0.3139,-0.2981,-0.2904,-0.2904,-0.2904,-0.2902,-0.2824,-0.2744,-0.2668,-0.2668,-0.2588,-0.2588,-0.251,-0.251,-0.251,-0.251,-0.251,-0.251,-0.251,-0.251,-0.251,-0.251,-0.251,-1.5736,-1.5222,-1.4616,-1.4313,-1.427,-1.4252,-1.4521,-1.4914,-1.5057,-1.5157,-1.5216,-1.4874,-1.4538,-1.4121,-1.364,-1.3155,-1.2674,-1.212,-1.1677,-1.1247,-1.0996,-1.0744,-1.0561,-1.0238,-1.0047,-0.9919,-0.9734,-0.9542,-0.9478,-0.9478,-0.9344,-0.928,-0.9104,-0.8944,-0.8777,-0.8663,-0.858,-0.8414,-0.8617,-0.8677,-0.8599,-0.8423,-0.8287,-0.8184,-0.8122,-0.8122,-0.8093,-0.811,-0.8019,-0.8078,-0.7992,-0.7929,-0.7588,-0.7206,-0.6678,-0.6409,-0.618,-0.5944,-0.5786,-0.5709,-0.5634,-0.5637,-0.5559,-0.5634,-0.5864,-0.617,-0.6251,-0.6177,-0.6099,-0.5938,-0.5705,-0.5395,-0.5243,-0.5087,-0.4932,-0.4776,-0.4698,-0.4543,-0.4151,-0.3837,-0.368,-0.3682,-0.3682,-0.3682,-0.3682,-0.3448,-0.3292,-0.3214,-0.3137,-0.3137,-0.3059,-0.2904,-0.2826,-0.2668,-0.2668,-0.2668,-0.2588,-0.2588,-0.251,-0.2588,-0.2588,-0.2588,-0.251,-0.251,-0.251,-0.251,-0.251,-0.251,-0.251,-0.251,-0.251,-0.251,-0.251,-0.251,-0.251,-1.5792,-1.5222,-1.443,-1.4037,-1.393,-1.3824,-1.4045,-1.4419,-1.4286,-1.4473,-1.477,-1.4713,-1.4469,-1.4001,-1.3511,-1.3033,-1.249,-1.2058,-1.1553,-1.1185,-1.087,-1.0744,-1.0561,-1.018,-1.0053,-0.9926,-0.9734,-0.949,-0.952,-0.9444,-0.9291,-0.9098,-0.8981,-0.8803,-0.8576,-0.8511,-0.8382,-0.8187,-0.8235,-0.8316,-0.8216,-0.8098,-0.7969,-0.7939,-0.8,-0.7858,-0.7819,-0.7718,-0.7605,-0.7542,-0.7479,-0.7208,-0.6738,-0.6235,-0.5844,-0.5607,-0.5395,-0.5318,-0.5165,-0.5087,-0.5087,-0.5085,-0.5085,-0.5162,-0.5318,-0.555,-0.5628,-0.5553,-0.5398,-0.524,-0.5004,-0.4774,-0.454,-0.4384,-0.4307,-0.4229,-0.4073,-0.3759,-0.3368,-0.3134,-0.2901,-0.2823,-0.2823,-0.2823,-0.2746,-0.2666,-0.2586,-0.2431,-0.2433,-0.2433,-0.2669,-0.2591,-0.2591,-0.2511,-0.2433,-0.2433,-0.2354,-0.2433,-0.2433,-0.2431,-0.251,-0.2431,-0.2354,-0.2431,-0.251,-0.2433,-0.2354,-0.2511,-0.2511,-0.2433,-0.2433,-0.2354,-0.2433,-0.2433,-0.2431,-1.5957,-1.5345,-1.4466,-1.3999,-1.3821,-1.3668,-1.3765,-1.3955,-1.3932,-1.4086,-1.4382,-1.4354,-1.4119,-1.3846,-1.3398,-1.2911,-1.2428,-1.1934,-1.1498,-1.1122,-1.0814,-1.0688,-1.0434,-1.018,-1.0053,-0.9926,-0.9682,-0.9514,-0.961,-0.9527,-0.9336,-0.9188,-0.8986,-0.8816,-0.856,-0.8452,-0.8268,-0.8112,-0.7942,-0.7863,-0.7812,-0.7672,-0.7623,-0.7679,-0.7608,-0.75,-0.7405,-0.7296,-0.7142,-0.6891,-0.6729,-0.6421,-0.598,-0.5616,-0.5257,-0.4985,-0.4771,-0.4693,-0.4538,-0.446,-0.446,-0.446,-0.446,-0.4462,-0.4387,-0.4618,-0.4771,-0.4696,-0.4854,-0.4696,-0.4304,-0.3995,-0.3839,-0.3763,-0.3606,-0.3528,-0.3292,-0.2978,-0.2666,-0.2433,-0.2356,-0.2356,-0.2356,-0.2356,-0.2277,-0.2278,-0.212,-0.2041,-0.1963,-0.1963,-0.212,-0.2199,-0.2277,-0.2277,-0.2199,-0.212,-0.22,-0.2199,-0.2276,-0.2199,-0.2199,-0.2199,-0.2199,-0.2277,-0.2277,-0.2199,-0.2199,-0.2277,-0.2277,-0.212,-0.2199,-0.2199,-0.2277,-0.2277,-0.2277,-1.602,-1.5457,-1.4536,-1.4035,-1.3821,-1.3668,-1.3631,-1.3655,-1.376,-1.3858,-1.3966,-1.3839,-1.3749,-1.3656,-1.3224,-1.2797,-1.2305,-1.1872,-1.1435,-1.1059,-1.0751,-1.0624,-1.0498,-1.0238,-1.0053,-0.9899,-0.9679,-0.9682,-0.9753,-0.9679,-0.9518,-0.9372,-0.9125,-0.8869,-0.8591,-0.8341,-0.8195,-0.8021,-0.785,-0.762,-0.7472,-0.7292,-0.7373,-0.7291,-0.7074,-0.6941,-0.6881,-0.6699,-0.6504,-0.6155,-0.5813,-0.5487,-0.5225,-0.4852,-0.4583,-0.4292,-0.4151,-0.3995,-0.3841,-0.3763,-0.3763,-0.3763,-0.3684,-0.3684,-0.3684,-0.3684,-0.3839,-0.3917,-0.4073,-0.4073,-0.3604,-0.337,-0.3215,-0.3059,-0.2982,-0.2826,-0.2511,-0.2275,-0.2041,-0.1886,-0.1886,-0.1886,-0.1886,-0.1807,-0.1807,-0.1808,-0.1808,-0.1808,-0.1808,-0.1729,-0.1729,-0.1807,-0.1807,-0.1807,-0.1886,-0.1964,-0.1964,-0.2044,-0.2043,-0.1965,-0.1887,-0.1964,-0.2043,-0.2044,-0.2044,-0.1965,-0.1965,-0.1965,-0.1965,-0.1886,-0.1964,-0.2043,-0.2043,-0.2043,-0.1965,-1.5944,-1.5153,-1.4501,-1.4093,-1.3915,-1.3716,-1.361,-1.3573,-1.3415,-1.3462,-1.3568,-1.3467,-1.3537,-1.3941,-1.3285,-1.2797,-1.2305,-1.1809,-1.1435,-1.1059,-1.0751,-1.0618,-1.0428,-1.0174,-0.9862,-0.9725,-0.9699,-0.9747,-0.9755,-0.9759,-0.9569,-0.928,-0.9072,-0.8837,-0.8607,-0.8349,-0.8103,-0.7886,-0.7688,-0.7455,-0.7298,-0.7203,-0.7242,-0.7028,-0.6683,-0.656,-0.6316,-0.5899,-0.5623,-0.5204,-0.4814,-0.4592,-0.4339,-0.4148,-0.3791,-0.375,-0.3606,-0.345,-0.3294,-0.3294,-0.3217,-0.3217,-0.3215,-0.3137,-0.3059,-0.2982,-0.2981,-0.2823,-0.2979,-0.3215,-0.2982,-0.2824,-0.2668,-0.2433,-0.2356,-0.212,-0.1886,-0.1806,-0.1729,-0.1572,-0.1493,-0.1493,-0.1493,-0.1493,-0.1493,-0.1493,-0.1493,-0.1493,-0.1493,-0.1493,-0.1493,-0.1493,-0.1493,-0.1651,-0.1808,-0.1808,-0.1808,-0.1887,-0.1887,-0.1808,-0.1808,-0.1887,-0.1887,-0.1887,-0.1887,-0.1887,-0.1808,-0.173,-0.1808,-0.1808,-0.1887,-0.1887,-0.1887,-0.1808,-0.173]},{"header":{"parameterUnit":"m.s-1","parameterCategory":1,"la1":31.0,"la2":29.5877,"lo1":-88.7671,"lo2":-86.6584,"dy":0.0162,"dx":0.0185,"nx":115,"ny":88,"refTime":"2023-08-09T00:00:00:Z","depth":0,"parameterNumber":3,"parameterNumberName":"V-component_of_WINDS"},"data":[0.0,0.0,0.0,0.0,0.0,0.0,0.0,0.0,0.0,0.0,0.0,0.0,0.0,0.0,0.0,0.0,0.0,0.0,0.0,0.0,0.0,0.0,0.0,0.0,0.0,0.0,0.0,0.0,0.0,0.0,0.0,0.0,0.0,0.0,0.0,0.0,0.0,0.0,0.0,0.0,0.0,0.0,0.0,0.0,0.0,0.0,0.0,0.0,0.0,0.0,0.0,0.0,0.0,0.0,0.0,0.0,0.0,0.0,0.0,0.0,0.0,0.0,0.0,0.0,0.0,0.0,0.0,0.0,0.0,0.0,0.0,0.0,0.0,0.0,0.0,0.0,0.0,0.0,0.0,0.0,0.0,0.0,0.0,0.0,0.0,0.0,0.0,0.0,0.0,0.0,0.0,0.0,0.0,0.0,0.0,0.0,0.0,0.0,0.0,0.0,0.0,0.0,0.0,0.0,0.0,0.0,0.0,0.0,0.0,0.0,0.0,0.0,0.0,0.0,0.0,0.0,0.0,0.0,0.0,0.0,0.0,0.0,0.0,0.0,0.0,0.0,0.0,0.0,0.0,0.0,0.0,0.0,0.0,0.0,0.0,0.0,0.0,0.0,0.0,0.0,0.0,0.0,0.0,0.0,0.0,0.0,0.0,0.0,0.0,0.0,0.0,0.0,0.0,0.0,0.0,0.0,0.0,0.0,0.0,0.0,0.0,0.0,0.0,0.0,0.0,0.0,0.0,0.0,0.0,0.0,0.0,0.0,0.0,0.0,0.0,0.0,0.0,0.0,0.0,0.0,0.0,0.0,0.0,0.0,0.0,0.0,0.0,0.0,0.0,0.0,0.0,0.0,0.0,0.0,0.0,0.0,0.0,0.0,0.0,0.0,0.0,0.0,0.0,0.0,0.0,0.0,0.0,0.0,0.0,0.0,0.0,0.0,0.0,0.0,0.0,0.0,0.0,0.0,0.0,0.0,0.0,0.0,0.0,0.0,0.0,0.0,0.0,0.0,0.0,0.0,0.0,0.0,0.0,0.0,0.0,0.0,0.0,0.0,0.0,0.0,0.0,0.0,0.0,0.0,0.0,0.0,0.0,0.0,0.0,0.0,0.0,0.0,0.0,0.0,0.0,0.0,0.0,0.0,0.0,0.0,0.0,0.0,0.0,0.0,0.0,0.0,0.0,0.0,0.0,0.0,0.0,0.0,0.0,0.0,0.0,0.0,0.0,0.0,0.0,0.0,0.0,0.0,0.0,0.0,0.0,0.0,0.0,0.0,0.0,0.0,0.0,0.0,0.0,0.0,0.0,0.0,0.0,0.0,0.0,0.0,0.0,0.0,0.0,0.0,0.0,0.0,0.0,0.0,0.0,0.0,0.0,0.0,0.0,0.0,0.0,0.0,0.0,0.0,0.0,0.0,0.0,0.0,0.0,0.0,0.0,0.0,0.0,0.0,0.0,0.0,0.0,0.0,0.0,0.0,0.0,0.0,0.0,0.0,0.0,0.0,0.0,0.0,0.0,0.0,0.0,0.0,0.0,0.0,0.0,0.0,0.0,0.0,0.0,0.0,0.0,0.0,0.0,0.0,0.0,0.0,0.0,0.0,0.0,0.0,0.0,0.0,0.0,0.0,0.0,0.0,0.0,0.0,0.0,0.0,0.0,0.0,0.0,0.0,0.0,0.0,0.0,0.0,0.0,0.0,0.0,0.0,0.0,0.0,0.0,0.0,0.0,0.0,0.0,0.0,0.0,0.0,0.0,0.0,0.0,0.0,0.0,0.0,0.0,0.0,0.0,0.0,0.0,0.0,0.0,0.0,0.0,0.0,0.0,0.0,0.0,0.0,0.0,0.0,0.0,0.0,0.0,0.0,0.0,0.0,0.0,0.0,0.0,0.0,0.0,0.0,0.0,0.0,0.0,0.0,0.0,0.0,0.0,0.0,0.0,0.0,0.0,0.0,0.0,0.0,0.0,0.0,0.0,0.0,0.0,0.0,0.0,0.0,0.0,0.0,0.0,0.0,0.0,0.0,0.0,0.0,0.0,0.0,0.0,0.0,0.0,0.0,0.0,0.0,0.0,0.0,0.0,0.0,0.0,0.0,0.0,0.0,0.0,0.0,0.0,0.0,0.0,0.0,0.0,0.0,0.0,0.0,0.0,0.0,0.0,0.0,0.0,0.0,0.0,0.0,0.0,0.0,0.0,0.0,0.0,0.0,0.0,0.0,0.0,0.0,0.0,0.0,0.0,0.0,0.0,0.0,0.0,0.0,0.0,0.0,0.0,0.0,0.0,0.0,0.0,0.0,0.0,0.0,0.0,0.0,0.0,0.0,0.0,0.0,0.0,0.0,0.0,0.0,0.0,0.0,0.0,0.0,0.0,0.0,0.0,0.0,0.0,0.0,0.0,0.0,0.0,0.0,0.0,0.0,0.0,0.0,0.0,0.0,0.0,0.0,0.0,0.0,0.0,0.0,0.0,0.0,0.0,0.0,0.0,0.0,0.0,0.0,0.0,0.0,0.0,0.0,0.0,0.0,0.0,0.0,0.0,0.0,0.0,0.0,0.0,0.0,0.0,0.0,0.0,0.0,0.0,0.0,0.0,0.0,0.0,0.0,0.0,0.0,0.0,0.0,0.0,0.0,0.0,0.0,0.0,0.0,0.0,0.0,0.0,0.0,0.0,0.0,0.0,0.0,0.0,0.0,0.0,0.0,0.0,0.0,0.0,0.0,0.0,0.0,0.0,0.0,0.0,0.0,0.0,0.0,0.0,0.0,0.0,0.0,0.0,0.0,0.0,0.0,0.0,0.0,0.0,0.0,0.0,0.0,0.0,0.0,0.0,0.0,0.0,0.0,0.0,0.0,0.0,0.0,0.0,0.0,0.0,0.0,0.0,0.0,0.0,0.0,0.0,0.0,0.0,0.0,0.0,0.0,0.0,0.0,0.0,0.0,0.0,0.0,0.0,0.0,0.0,0.0,0.0,0.0,0.0,0.0,0.0,0.0,0.0,0.0,0.0,0.0,0.0,0.0,0.0,0.0,0.0,0.0,0.0,0.0,0.0,0.0,0.0,0.0,0.0,0.0,0.0,0.0,0.0,0.0,0.0,0.0,0.0,0.0,0.0,0.0,0.0,0.0,0.0,0.0,0.0,0.0,0.0,0.0,0.0,0.0,0.0,0.0,0.0,0.0,0.0,0.0,0.0,0.0,0.0,0.0,0.0,0.0,0.0,0.0,0.0,0.0,0.0,0.0,0.0,0.0,0.0,0.0,0.0,0.0,0.0,0.0,0.0,0.0,0.0,0.0,0.0,0.0,0.0,0.0,0.0,0.0,0.0,0.0,0.0,0.0,0.0,0.0,0.0,0.0,0.0,0.0,0.0,0.0,0.0,0.0,0.0,0.0,0.0,0.0,0.0,0.0,0.0,0.0,0.0,0.0,0.0,0.0,0.0,0.0,0.0,0.0,0.0,0.0,0.0,0.0,0.0,0.0,0.0,0.0,0.0,0.0,0.0,0.0,0.0,0.0,0.0,0.0,0.0,0.0,0.0,0.0,0.0,0.0,0.0,0.0,0.0,0.0,0.0,0.0,0.0,0.0,0.0,0.0,0.0,0.0,0.0,0.0,0.0,0.0,0.0,0.0,0.0,0.0,0.0,0.0,0.0,0.0,0.0,0.0,0.0,0.0,0.0,0.0,0.0,0.0,0.0,0.0,0.0,0.0,0.0,0.0,0.0,0.0,0.0,0.0,0.0,0.0,0.0,0.0,0.0,0.0,0.0,0.0,0.0,0.0,0.0,0.0,0.0,0.0,0.0,0.0,0.0,0.0,0.0,0.0,0.0,0.0,0.0,0.0,0.0,0.0,0.0,0.0,0.0,0.0,0.0,0.0,0.0,0.0,0.0,0.0,0.0,0.0,0.0,0.0,0.0,0.0,0.0,0.0,0.0,0.0,0.0,0.0,0.0,0.0,0.0,0.0,0.0,0.0,0.0,0.0,0.0,0.0,0.0,0.0,0.0,0.0,0.0,0.0,0.0,0.0,0.0,0.0,0.0,0.0,0.0,0.0,0.0,0.0,0.0,0.0,0.0,0.0,0.0,0.0,0.0,0.0,0.0,0.0,0.0,0.0,0.0,0.0,0.0,0.0,0.0,0.0,0.0,0.0,0.0,0.0,0.0,0.0,0.0,0.0,0.0,0.0,0.0,0.0,0.0,0.0,0.0,0.0,0.0,0.0,0.0,0.0,0.0,0.0,0.0,0.0,0.0,0.0,0.0,0.0,-2.8508,0.0,0.0,0.0,0.0,0.0,0.0,0.0,0.0,0.0,0.0,0.0,0.0,0.0,0.0,0.0,0.0,0.0,0.0,0.0,0.0,0.0,0.0,0.0,0.0,0.0,0.0,0.0,0.0,0.0,0.0,0.0,0.0,0.0,0.0,0.0,0.0,0.0,0.0,0.0,0.0,0.0,0.0,0.0,0.0,0.0,0.0,0.0,0.0,0.0,0.0,0.0,0.0,0.0,0.0,0.0,0.0,0.0,0.0,0.0,0.0,0.0,0.0,0.0,0.0,0.0,0.0,0.0,0.0,0.0,0.0,0.0,0.0,0.0,0.0,0.0,0.0,0.0,0.0,0.0,0.0,0.0,0.0,0.0,0.0,0.0,0.0,0.0,0.0,0.0,0.0,0.0,0.0,0.0,0.0,0.0,0.0,0.0,0.0,0.0,0.0,0.0,0.0,0.0,0.0,0.0,0.0,0.0,0.0,0.0,0.0,-2.7306,-2.7342,-2.7488,-2.7655,-2.784,0.0,0.0,0.0,0.0,0.0,0.0,0.0,0.0,0.0,0.0,0.0,0.0,0.0,0.0,0.0,0.0,0.0,0.0,0.0,0.0,0.0,0.0,0.0,0.0,0.0,0.0,0.0,0.0,0.0,0.0,0.0,0.0,0.0,0.0,0.0,0.0,0.0,0.0,0.0,0.0,0.0,0.0,0.0,0.0,0.0,0.0,0.0,0.0,0.0,0.0,0.0,0.0,0.0,0.0,0.0,0.0,0.0,0.0,0.0,0.0,0.0,0.0,0.0,0.0,0.0,0.0,0.0,0.0,0.0,0.0,0.0,0.0,0.0,0.0,0.0,0.0,0.0,0.0,0.0,0.0,0.0,0.0,0.0,0.0,0.0,0.0,0.0,0.0,0.0,0.0,0.0,0.0,0.0,0.0,0.0,0.0,0.0,0.0,0.0,0.0,0.0,0.0,0.0,0.0,0.0,0.0,0.0,0.0,0.0,0.0,0.0,0.0,-2.6945,-2.713,-2.7335,0.0,0.0,0.0,0.0,0.0,0.0,0.0,0.0,0.0,0.0,0.0,0.0,0.0,0.0,0.0,0.0,0.0,0.0,0.0,0.0,0.0,0.0,0.0,0.0,0.0,0.0,0.0,0.0,0.0,0.0,0.0,0.0,0.0,0.0,0.0,0.0,0.0,0.0,0.0,0.0,0.0,0.0,0.0,0.0,0.0,0.0,0.0,0.0,0.0,0.0,0.0,0.0,0.0,0.0,0.0,0.0,0.0,0.0,0.0,0.0,0.0,0.0,0.0,0.0,0.0,0.0,0.0,0.0,0.0,0.0,0.0,0.0,0.0,0.0,0.0,0.0,0.0,0.0,0.0,0.0,0.0,0.0,0.0,0.0,0.0,0.0,0.0,0.0,0.0,0.0,0.0,0.0,0.0,0.0,0.0,0.0,0.0,0.0,0.0,0.0,0.0,0.0,0.0,0.0,0.0,0.0,0.0,0.0,0.0,0.0,-2.6002,-2.6002,-2.6002,0.0,-2.7011,0.0,0.0,0.0,0.0,0.0,0.0,0.0,0.0,0.0,0.0,0.0,0.0,0.0,0.0,0.0,0.0,0.0,0.0,0.0,0.0,0.0,0.0,0.0,0.0,0.0,0.0,0.0,0.0,0.0,0.0,0.0,0.0,0.0,0.0,0.0,0.0,0.0,0.0,0.0,0.0,0.0,0.0,0.0,0.0,0.0,0.0,0.0,0.0,0.0,0.0,0.0,0.0,0.0,0.0,0.0,0.0,0.0,0.0,0.0,0.0,0.0,0.0,0.0,0.0,0.0,0.0,0.0,0.0,0.0,0.0,0.0,0.0,0.0,0.0,0.0,0.0,0.0,0.0,0.0,0.0,0.0,0.0,0.0,0.0,0.0,0.0,0.0,0.0,0.0,0.0,0.0,0.0,0.0,0.0,0.0,0.0,0.0,0.0,0.0,0.0,0.0,0.0,0.0,0.0,0.0,0.0,0.0,0.0,0.0,0.0,-2.5397,-2.5342,-2.5536,-2.5865,0.0,0.0,0.0,0.0,0.0,0.0,0.0,0.0,0.0,0.0,0.0,0.0,0.0,0.0,0.0,0.0,0.0,0.0,0.0,0.0,0.0,0.0,0.0,0.0,0.0,0.0,0.0,0.0,0.0,0.0,0.0,0.0,0.0,0.0,0.0,0.0,0.0,0.0,0.0,0.0,0.0,0.0,0.0,0.0,0.0,0.0,0.0,0.0,0.0,0.0,0.0,0.0,0.0,0.0,0.0,0.0,0.0,0.0,0.0,0.0,0.0,0.0,0.0,0.0,0.0,0.0,0.0,0.0,0.0,0.0,0.0,0.0,0.0,0.0,0.0,0.0,0.0,0.0,0.0,0.0,0.0,0.0,0.0,0.0,0.0,0.0,0.0,0.0,0.0,0.0,0.0,0.0,0.0,0.0,0.0,0.0,0.0,0.0,0.0,0.0,0.0,0.0,0.0,0.0,0.0,0.0,0.0,0.0,0.0,0.0,-2.4921,-2.4778,-2.4778,-2.5021,-2.5412,-2.5879,0.0,0.0,0.0,0.0,0.0,0.0,0.0,0.0,0.0,0.0,0.0,0.0,0.0,0.0,0.0,0.0,0.0,0.0,0.0,0.0,0.0,0.0,0.0,0.0,0.0,0.0,0.0,0.0,0.0,0.0,0.0,0.0,0.0,0.0,0.0,0.0,0.0,0.0,0.0,0.0,0.0,0.0,0.0,0.0,0.0,0.0,0.0,0.0,0.0,0.0,0.0,0.0,0.0,0.0,0.0,0.0,0.0,0.0,0.0,0.0,0.0,0.0,0.0,0.0,0.0,0.0,0.0,0.0,0.0,0.0,0.0,0.0,0.0,0.0,0.0,0.0,0.0,0.0,0.0,0.0,0.0,0.0,0.0,0.0,0.0,0.0,0.0,0.0,0.0,0.0,0.0,0.0,0.0,0.0,0.0,0.0,0.0,0.0,0.0,0.0,0.0,0.0,0.0,0.0,0.0,0.0,0.0,0.0,-2.4567,-2.4408,-2.4292,-2.4131,-2.4408,-2.4838,0.0,0.0,0.0,0.0,0.0,0.0,0.0,0.0,0.0,0.0,0.0,0.0,0.0,0.0,0.0,0.0,0.0,0.0,0.0,0.0,0.0,0.0,0.0,0.0,0.0,0.0,0.0,0.0,0.0,0.0,0.0,0.0,0.0,0.0,0.0,0.0,0.0,0.0,0.0,0.0,0.0,0.0,0.0,0.0,0.0,0.0,0.0,0.0,0.0,0.0,0.0,0.0,0.0,0.0,0.0,0.0,0.0,0.0,0.0,0.0,0.0,0.0,0.0,0.0,0.0,0.0,0.0,0.0,0.0,0.0,0.0,0.0,0.0,0.0,0.0,0.0,0.0,0.0,0.0,0.0,0.0,0.0,0.0,0.0,0.0,0.0,0.0,0.0,0.0,0.0,0.0,0.0,0.0,0.0,0.0,0.0,0.0,0.0,0.0,0.0,0.0,0.0,0.0,0.0,0.0,0.0,0.0,0.0,0.0,-2.4157,-2.3865,-2.3616,-2.3484,-2.3839,-2.4292,0.0,0.0,0.0,0.0,0.0,0.0,0.0,0.0,0.0,0.0,0.0,0.0,0.0,0.0,0.0,0.0,0.0,0.0,0.0,0.0,0.0,0.0,0.0,0.0,0.0,0.0,0.0,0.0,0.0,0.0,0.0,0.0,0.0,0.0,0.0,0.0,0.0,0.0,0.0,0.0,0.0,0.0,0.0,0.0,0.0,0.0,0.0,0.0,0.0,0.0,0.0,0.0,0.0,0.0,0.0,0.0,0.0,0.0,0.0,0.0,0.0,0.0,0.0,0.0,0.0,0.0,0.0,0.0,0.0,0.0,0.0,0.0,0.0,0.0,0.0,0.0,0.0,0.0,0.0,0.0,0.0,0.0,0.0,0.0,0.0,0.0,0.0,0.0,0.0,0.0,0.0,0.0,0.0,0.0,0.0,0.0,0.0,0.0,0.0,0.0,0.0,0.0,0.0,0.0,0.0,0.0,0.0,0.0,0.0,-2.3595,0.0,-2.309,-2.303,-2.3437,-2.3897,0.0,0.0,0.0,0.0,0.0,0.0,0.0,0.0,0.0,0.0,0.0,0.0,0.0,0.0,0.0,0.0,0.0,0.0,0.0,0.0,0.0,0.0,0.0,0.0,0.0,0.0,0.0,0.0,0.0,0.0,0.0,0.0,0.0,0.0,0.0,0.0,0.0,0.0,0.0,0.0,0.0,0.0,0.0,0.0,0.0,0.0,0.0,0.0,0.0,0.0,0.0,0.0,0.0,0.0,0.0,0.0,0.0,0.0,0.0,0.0,0.0,0.0,0.0,0.0,0.0,0.0,0.0,0.0,0.0,0.0,0.0,0.0,0.0,0.0,0.0,0.0,0.0,0.0,0.0,0.0,0.0,0.0,0.0,0.0,0.0,0.0,0.0,0.0,0.0,0.0,0.0,0.0,0.0,0.0,0.0,0.0,0.0,0.0,0.0,0.0,0.0,0.0,0.0,0.0,0.0,0.0,0.0,0.0,-2.3582,-2.2921,-2.2739,-2.269,-2.269,-2.3188,-2.37,0.0,0.0,0.0,0.0,0.0,0.0,0.0,0.0,0.0,0.0,0.0,0.0,0.0,0.0,0.0,0.0,0.0,0.0,0.0,0.0,0.0,0.0,0.0,0.0,0.0,0.0,0.0,0.0,0.0,0.0,0.0,0.0,0.0,0.0,0.0,0.0,0.0,0.0,0.0,0.0,0.0,0.0,0.0,0.0,0.0,0.0,0.0,0.0,0.0,0.0,0.0,0.0,0.0,0.0,0.0,0.0,0.0,0.0,0.0,0.0,0.0,0.0,0.0,0.0,0.0,0.0,0.0,0.0,0.0,0.0,0.0,0.0,0.0,0.0,0.0,0.0,0.0,0.0,0.0,0.0,0.0,0.0,0.0,0.0,0.0,0.0,0.0,0.0,0.0,0.0,0.0,0.0,0.0,0.0,0.0,0.0,0.0,0.0,0.0,0.0,0.0,0.0,0.0,0.0,0.0,0.0,0.0,0.0,0.0,-2.2432,-2.2247,-2.2428,-2.2904,-2.3281,-2.3941,0.0,0.0,0.0,0.0,0.0,0.0,0.0,0.0,0.0,0.0,0.0,0.0,0.0,0.0,0.0,0.0,0.0,0.0,0.0,0.0,0.0,0.0,0.0,0.0,0.0,0.0,0.0,0.0,0.0,0.0,0.0,0.0,0.0,0.0,0.0,0.0,0.0,0.0,0.0,0.0,0.0,0.0,0.0,0.0,0.0,0.0,0.0,0.0,0.0,0.0,0.0,0.0,0.0,0.0,0.0,0.0,0.0,0.0,0.0,0.0,0.0,0.0,0.0,0.0,0.0,0.0,0.0,0.0,0.0,0.0,0.0,0.0,0.0,0.0,0.0,0.0,0.0,0.0,0.0,0.0,0.0,0.0,0.0,0.0,0.0,0.0,0.0,0.0,0.0,0.0,0.0,0.0,0.0,0.0,0.0,0.0,0.0,0.0,0.0,0.0,0.0,0.0,0.0,0.0,0.0,0.0,0.0,0.0,0.0,-2.1969,-2.2032,-2.2344,-2.2918,-2.3414,-2.4087,-2.5001,0.0,0.0,0.0,0.0,0.0,0.0,0.0,0.0,0.0,0.0,0.0,0.0,0.0,0.0,0.0,0.0,0.0,0.0,0.0,0.0,0.0,0.0,0.0,0.0,0.0,0.0,0.0,0.0,0.0,0.0,0.0,0.0,0.0,0.0,0.0,0.0,0.0,0.0,0.0,0.0,0.0,0.0,0.0,0.0,0.0,0.0,0.0,0.0,0.0,0.0,0.0,0.0,0.0,0.0,0.0,0.0,0.0,0.0,0.0,0.0,0.0,0.0,0.0,0.0,0.0,0.0,0.0,0.0,0.0,0.0,0.0,0.0,0.0,0.0,0.0,0.0,0.0,0.0,0.0,0.0,0.0,0.0,0.0,0.0,0.0,0.0,0.0,0.0,0.0,0.0,0.0,0.0,0.0,0.0,0.0,0.0,0.0,0.0,0.0,0.0,0.0,0.0,0.0,0.0,0.0,0.0,0.0,0.0,-2.1664,-2.2139,-2.2546,-2.2956,-2.3561,-2.4169,0.0,0.0,0.0,0.0,0.0,0.0,0.0,0.0,0.0,0.0,0.0,0.0,0.0,0.0,0.0,0.0,0.0,0.0,0.0,0.0,0.0,0.0,0.0,0.0,0.0,0.0,0.0,0.0,0.0,0.0,0.0,0.0,0.0,0.0,0.0,0.0,0.0,0.0,0.0,0.0,0.0,0.0,0.0,0.0,0.0,0.0,0.0,0.0,0.0,0.0,0.0,0.0,0.0,0.0,0.0,0.0,0.0,0.0,0.0,0.0,0.0,0.0,0.0,0.0,0.0,0.0,0.0,0.0,0.0,0.0,0.0,0.0,0.0,0.0,0.0,0.0,0.0,0.0,0.0,0.0,0.0,0.0,0.0,0.0,0.0,0.0,0.0,0.0,0.0,0.0,0.0,0.0,0.0,0.0,0.0,0.0,0.0,0.0,0.0,0.0,0.0,0.0,0.0,0.0,0.0,0.0,0.0,0.0,0.0,-2.211,-2.2343,-2.2739,-2.3271,-2.3836,-2.4655,0.0,0.0,0.0,0.0,0.0,0.0,0.0,0.0,0.0,0.0,0.0,0.0,0.0,0.0,0.0,0.0,0.0,0.0,0.0,0.0,0.0,0.0,0.0,0.0,0.0,0.0,0.0,0.0,0.0,0.0,0.0,0.0,0.0,0.0,0.0,0.0,0.0,0.0,0.0,0.0,0.0,0.0,0.0,0.0,0.0,0.0,0.0,0.0,0.0,0.0,0.0,0.0,0.0,0.0,0.0,0.0,0.0,0.0,0.0,0.0,0.0,0.0,0.0,0.0,0.0,0.0,0.0,0.0,0.0,0.0,0.0,0.0,0.0,0.0,0.0,0.0,0.0,0.0,0.0,0.0,0.0,0.0,0.0,0.0,0.0,0.0,0.0,0.0,0.0,0.0,0.0,0.0,0.0,0.0,0.0,0.0,0.0,0.0,0.0,0.0,0.0,0.0,0.0,0.0,0.0,0.0,0.0,0.0,-2.2015,-2.2147,-2.2415,-2.2805,-2.3372,-2.4025,-2.4813,0.0,0.0,0.0,0.0,0.0,0.0,0.0,0.0,0.0,0.0,0.0,0.0,0.0,0.0,0.0,0.0,0.0,0.0,0.0,0.0,0.0,0.0,0.0,0.0,0.0,0.0,0.0,0.0,0.0,0.0,0.0,0.0,0.0,0.0,0.0,0.0,0.0,0.0,0.0,0.0,0.0,0.0,0.0,0.0,0.0,0.0,0.0,0.0,0.0,0.0,0.0,0.0,0.0,0.0,0.0,0.0,0.0,0.0,0.0,0.0,0.0,0.0,0.0,0.0,0.0,0.0,0.0,0.0,0.0,0.0,0.0,0.0,0.0,0.0,0.0,0.0,0.0,0.0,0.0,0.0,0.0,0.0,0.0,0.0,0.0,0.0,0.0,0.0,0.0,0.0,0.0,0.0,0.0,0.0,0.0,0.0,0.0,0.0,0.0,0.0,0.0,0.0,0.0,0.0,0.0,0.0,0.0,0.0,-2.2374,-2.2139,-2.2487,-2.2927,-2.3298,-2.4043,-2.4766,0.0,0.0,0.0,0.0,0.0,0.0,0.0,0.0,0.0,0.0,0.0,0.0,0.0,0.0,0.0,0.0,0.0,0.0,0.0,0.0,0.0,0.0,0.0,0.0,0.0,0.0,0.0,0.0,0.0,0.0,0.0,0.0,0.0,0.0,0.0,0.0,0.0,0.0,0.0,0.0,0.0,0.0,0.0,0.0,0.0,0.0,0.0,0.0,0.0,0.0,0.0,0.0,0.0,0.0,0.0,0.0,0.0,0.0,0.0,0.0,0.0,0.0,0.0,0.0,0.0,0.0,0.0,0.0,0.0,0.0,0.0,0.0,0.0,0.0,0.0,0.0,0.0,0.0,0.0,0.0,0.0,0.0,0.0,0.0,0.0,0.0,0.0,0.0,0.0,0.0,0.0,0.0,0.0,0.0,0.0,0.0,0.0,0.0,0.0,0.0,0.0,0.0,0.0,0.0,0.0,0.0,0.0,0.0,-2.2611,-2.2763,-2.2723,-2.2927,-2.3309,-2.3897,-2.4622,0.0,0.0,0.0,0.0,0.0,0.0,0.0,0.0,0.0,0.0,0.0,0.0,0.0,0.0,0.0,0.0,0.0,0.0,0.0,0.0,0.0,0.0,0.0,0.0,0.0,0.0,0.0,0.0,0.0,0.0,0.0,0.0,0.0,0.0,0.0,0.0,0.0,0.0,0.0,0.0,0.0,0.0,0.0,0.0,0.0,0.0,0.0,0.0,-3.0762,0.0,0.0,0.0,0.0,0.0,0.0,0.0,0.0,0.0,0.0,0.0,0.0,0.0,0.0,0.0,0.0,0.0,0.0,0.0,0.0,0.0,0.0,0.0,0.0,0.0,0.0,0.0,0.0,0.0,0.0,0.0,0.0,0.0,0.0,0.0,0.0,0.0,0.0,0.0,0.0,0.0,0.0,0.0,0.0,0.0,0.0,0.0,0.0,0.0,0.0,0.0,0.0,0.0,0.0,0.0,0.0,0.0,0.0,0.0,-2.2886,-2.299,-2.2777,-2.2927,-2.3457,-2.4009,-2.4587,0.0,0.0,0.0,0.0,0.0,0.0,0.0,0.0,0.0,0.0,0.0,0.0,0.0,0.0,0.0,0.0,0.0,0.0,0.0,0.0,0.0,0.0,0.0,0.0,0.0,0.0,0.0,0.0,0.0,0.0,0.0,0.0,0.0,0.0,0.0,0.0,0.0,0.0,0.0,0.0,0.0,0.0,0.0,0.0,0.0,0.0,0.0,0.0,0.0,0.0,0.0,0.0,0.0,0.0,0.0,0.0,0.0,0.0,0.0,0.0,0.0,0.0,0.0,0.0,0.0,0.0,0.0,0.0,0.0,0.0,0.0,0.0,0.0,0.0,0.0,0.0,0.0,0.0,0.0,0.0,0.0,0.0,0.0,0.0,0.0,0.0,0.0,0.0,0.0,0.0,0.0,0.0,0.0,0.0,0.0,0.0,0.0,0.0,0.0,0.0,0.0,0.0,0.0,0.0,0.0,0.0,0.0,-2.3391,-2.3372,-2.315,-2.3001,-2.3139,-2.3677,-2.4215,-2.4779,-2.5324,0.0,0.0,0.0,0.0,0.0,0.0,0.0,0.0,0.0,0.0,0.0,0.0,0.0,0.0,0.0,0.0,0.0,0.0,0.0,0.0,0.0,0.0,0.0,0.0,0.0,0.0,0.0,0.0,0.0,0.0,0.0,0.0,0.0,0.0,0.0,0.0,0.0,0.0,-3.333,-3.2216,0.0,0.0,0.0,0.0,0.0,0.0,0.0,0.0,-3.0387,0.0,0.0,0.0,0.0,0.0,0.0,0.0,0.0,0.0,0.0,0.0,0.0,0.0,0.0,0.0,0.0,0.0,0.0,0.0,0.0,0.0,0.0,0.0,0.0,0.0,0.0,0.0,0.0,0.0,0.0,0.0,0.0,0.0,0.0,0.0,0.0,0.0,0.0,0.0,0.0,0.0,0.0,0.0,0.0,0.0,0.0,0.0,0.0,0.0,0.0,0.0,0.0,0.0,0.0,0.0,0.0,-2.4279,-2.4154,-2.397,-2.3751,-2.3751,-2.3813,-2.4116,-2.4599,-2.5087,-2.5523,0.0,0.0,0.0,0.0,0.0,0.0,0.0,0.0,0.0,0.0,0.0,0.0,0.0,0.0,0.0,0.0,0.0,0.0,0.0,0.0,0.0,0.0,0.0,0.0,0.0,0.0,0.0,0.0,0.0,0.0,0.0,0.0,0.0,0.0,0.0,0.0,0.0,0.0,0.0,-3.1754,-3.1161,0.0,0.0,0.0,0.0,0.0,0.0,0.0,0.0,-3.042,0.0,0.0,0.0,0.0,0.0,0.0,0.0,0.0,0.0,0.0,0.0,0.0,0.0,0.0,0.0,0.0,0.0,0.0,0.0,0.0,0.0,0.0,0.0,0.0,0.0,0.0,0.0,0.0,0.0,0.0,0.0,0.0,0.0,0.0,0.0,0.0,0.0,0.0,0.0,0.0,0.0,0.0,0.0,0.0,0.0,0.0,0.0,0.0,0.0,0.0,0.0,0.0,0.0,0.0,0.0,-2.4622,-2.4345,-2.4127,-2.3897,-2.397,-2.4177,-2.4455,-2.5028,-2.5523,0.0,0.0,0.0,0.0,0.0,0.0,0.0,0.0,0.0,0.0,0.0,0.0,0.0,0.0,0.0,0.0,0.0,0.0,0.0,0.0,0.0,0.0,0.0,0.0,0.0,0.0,0.0,0.0,0.0,0.0,0.0,0.0,0.0,0.0,0.0,0.0,0.0,0.0,0.0,0.0,-3.1219,-3.0821,-3.0401,0.0,0.0,0.0,0.0,0.0,0.0,-3.0686,-3.1105,0.0,0.0,0.0,0.0,0.0,0.0,0.0,0.0,0.0,0.0,0.0,0.0,0.0,0.0,0.0,0.0,0.0,0.0,0.0,0.0,0.0,0.0,0.0,0.0,0.0,0.0,0.0,0.0,0.0,0.0,0.0,0.0,0.0,0.0,0.0,0.0,0.0,0.0,0.0,0.0,0.0,0.0,0.0,0.0,0.0,0.0,0.0,0.0,0.0,0.0,0.0,0.0,0.0,0.0,0.0,-2.5004,-2.4634,-2.4322,-2.4177,-2.4322,-2.4611,-2.4862,-2.5441,-2.6013,0.0,0.0,0.0,0.0,0.0,0.0,0.0,0.0,0.0,0.0,0.0,0.0,0.0,0.0,0.0,0.0,0.0,0.0,0.0,0.0,0.0,0.0,0.0,0.0,0.0,0.0,0.0,0.0,0.0,0.0,0.0,0.0,0.0,0.0,0.0,0.0,0.0,0.0,0.0,0.0,0.0,-3.0491,-3.0283,-3.0397,0.0,0.0,0.0,0.0,-3.0894,-3.1244,0.0,0.0,0.0,0.0,0.0,0.0,0.0,0.0,0.0,0.0,0.0,0.0,0.0,0.0,0.0,0.0,0.0,0.0,0.0,0.0,0.0,0.0,0.0,0.0,0.0,0.0,0.0,0.0,0.0,0.0,0.0,0.0,0.0,0.0,0.0,0.0,0.0,0.0,0.0,0.0,0.0,0.0,0.0,0.0,0.0,0.0,0.0,0.0,0.0,0.0,0.0,0.0,0.0,0.0,0.0,0.0,-2.5465,-2.5312,-2.517,-2.517,-2.517,-2.5241,-2.5465,-2.6013,-2.6427,0.0,0.0,0.0,0.0,0.0,0.0,0.0,0.0,0.0,0.0,0.0,0.0,0.0,0.0,0.0,0.0,0.0,0.0,0.0,0.0,0.0,0.0,0.0,0.0,0.0,0.0,0.0,0.0,0.0,0.0,0.0,0.0,0.0,0.0,0.0,0.0,0.0,0.0,0.0,0.0,0.0,-3.0664,-3.0868,-3.0779,-3.062,0.0,0.0,-3.0569,-3.0227,-3.0569,0.0,0.0,0.0,0.0,0.0,0.0,0.0,0.0,0.0,0.0,0.0,0.0,0.0,0.0,0.0,0.0,0.0,0.0,0.0,0.0,0.0,0.0,0.0,0.0,0.0,0.0,0.0,0.0,0.0,0.0,0.0,0.0,0.0,0.0,0.0,0.0,0.0,0.0,0.0,0.0,0.0,0.0,0.0,0.0,0.0,0.0,0.0,0.0,0.0,0.0,0.0,0.0,0.0,0.0,0.0,-2.6094,-2.5955,-2.5746,-2.5548,-2.53,-2.5535,-2.5746,-2.6013,-2.6496,-2.696,0.0,0.0,0.0,0.0,0.0,0.0,0.0,0.0,0.0,0.0,0.0,0.0,0.0,0.0,0.0,0.0,0.0,0.0,0.0,0.0,0.0,0.0,0.0,0.0,0.0,0.0,0.0,0.0,0.0,0.0,0.0,0.0,0.0,0.0,0.0,0.0,0.0,0.0,0.0,0.0,0.0,0.0,-3.0997,-3.1367,0.0,0.0,0.0,-3.1324,-3.1253,0.0,0.0,0.0,0.0,0.0,0.0,0.0,0.0,0.0,0.0,0.0,0.0,0.0,0.0,0.0,0.0,0.0,0.0,0.0,0.0,0.0,0.0,0.0,0.0,0.0,0.0,0.0,0.0,0.0,0.0,0.0,0.0,0.0,0.0,0.0,0.0,0.0,0.0,0.0,0.0,0.0,0.0,0.0,0.0,0.0,0.0,0.0,0.0,0.0,0.0,0.0,0.0,0.0,0.0,0.0,0.0,0.0,-2.6496,-2.6314,-2.6094,-2.5861,-2.6025,-2.6371,-2.6769,-2.7108,0.0,0.0,0.0,0.0,0.0,0.0,0.0,0.0,0.0,0.0,0.0,0.0,0.0,0.0,0.0,0.0,0.0,0.0,0.0,0.0,0.0,0.0,0.0,0.0,0.0,0.0,0.0,-3.6873,0.0,0.0,0.0,0.0,0.0,0.0,0.0,0.0,0.0,0.0,0.0,0.0,0.0,0.0,-3.1531,-3.1532,-3.2047,-3.2261,0.0,0.0,-3.1963,-3.2036,-3.2109,-3.2314,0.0,0.0,0.0,0.0,0.0,0.0,0.0,0.0,0.0,0.0,0.0,0.0,0.0,0.0,0.0,0.0,0.0,0.0,0.0,0.0,0.0,0.0,0.0,0.0,0.0,0.0,0.0,0.0,0.0,0.0,0.0,0.0,0.0,0.0,0.0,0.0,0.0,0.0,0.0,0.0,0.0,0.0,0.0,0.0,0.0,0.0,0.0,0.0,0.0,0.0,0.0,0.0,0.0,0.0,0.0,-2.739,-2.7108,-2.7053,-2.7323,-2.7053,-2.7162,-2.7709,-2.7842,-2.8157,0.0,0.0,0.0,0.0,0.0,0.0,0.0,0.0,0.0,0.0,0.0,0.0,0.0,0.0,0.0,0.0,0.0,0.0,0.0,0.0,0.0,0.0,0.0,0.0,0.0,0.0,0.0,0.0,0.0,0.0,0.0,0.0,0.0,0.0,0.0,0.0,0.0,0.0,0.0,0.0,0.0,-3.1898,-3.2904,-3.2787,-3.2621,0.0,0.0,-3.2036,-3.1683,-3.1963,-3.2241,-3.2417,0.0,0.0,0.0,0.0,0.0,0.0,0.0,0.0,0.0,0.0,0.0,0.0,0.0,0.0,0.0,0.0,0.0,0.0,0.0,0.0,0.0,0.0,0.0,0.0,0.0,0.0,0.0,0.0,0.0,0.0,0.0,0.0,0.0,0.0,0.0,0.0,0.0,0.0,0.0,0.0,0.0,0.0,0.0,0.0,0.0,0.0,0.0,0.0,0.0,0.0,0.0,0.0,0.0,-2.8131,-2.7973,-2.7894,-2.7842,-2.7776,-2.7776,-2.8026,-2.8417,-2.856,-2.8944,0.0,0.0,0.0,0.0,0.0,0.0,0.0,0.0,0.0,0.0,0.0,0.0,0.0,0.0,0.0,0.0,0.0,0.0,0.0,0.0,0.0,0.0,0.0,0.0,0.0,0.0,0.0,0.0,-3.5711,-3.5379,-3.4913,0.0,0.0,0.0,0.0,0.0,0.0,0.0,0.0,0.0,0.0,-3.284,-3.312,-3.3514,0.0,0.0,-3.3514,-3.3356,-3.2927,-3.2992,-3.3073,-3.3,-3.3832,0.0,0.0,0.0,0.0,0.0,0.0,0.0,0.0,0.0,0.0,0.0,0.0,0.0,0.0,0.0,0.0,0.0,0.0,0.0,0.0,0.0,0.0,0.0,0.0,0.0,0.0,0.0,0.0,0.0,0.0,0.0,0.0,0.0,0.0,0.0,0.0,0.0,0.0,0.0,0.0,0.0,0.0,0.0,0.0,0.0,0.0,0.0,0.0,0.0,0.0,0.0,0.0,-2.8716,-2.856,-2.8481,-2.8403,-2.8417,-2.8495,-2.8739,-2.9184,-2.9324,-2.9699,0.0,0.0,0.0,0.0,0.0,0.0,0.0,0.0,0.0,0.0,0.0,0.0,0.0,0.0,0.0,0.0,0.0,0.0,0.0,0.0,0.0,0.0,0.0,0.0,0.0,0.0,0.0,0.0,-3.5458,-3.5102,-3.4529,0.0,0.0,0.0,0.0,0.0,0.0,0.0,0.0,0.0,0.0,-3.3733,-3.3978,-3.4448,-3.4797,-3.4739,-3.485,-3.4816,-3.4474,-3.4464,-3.4458,-3.434,0.0,0.0,0.0,0.0,0.0,0.0,0.0,0.0,0.0,0.0,0.0,0.0,0.0,0.0,0.0,0.0,0.0,0.0,0.0,0.0,0.0,0.0,0.0,0.0,0.0,0.0,0.0,0.0,0.0,0.0,-2.9415,0.0,0.0,0.0,0.0,0.0,0.0,0.0,0.0,0.0,0.0,0.0,0.0,0.0,0.0,0.0,0.0,0.0,0.0,0.0,0.0,0.0,0.0,-2.9099,-2.9099,-2.8881,-2.8931,-2.9233,-2.9149,-2.9401,-3.0007,-3.0054,-3.0372,-3.097,0.0,0.0,0.0,0.0,0.0,0.0,0.0,0.0,0.0,0.0,0.0,0.0,0.0,0.0,0.0,0.0,0.0,0.0,0.0,0.0,0.0,0.0,0.0,0.0,0.0,0.0,-3.5337,-3.5182,-3.4963,0.0,0.0,0.0,0.0,0.0,0.0,0.0,0.0,0.0,0.0,-3.449,-3.4434,-3.5672,-3.555,-3.5592,-3.6014,-3.6253,-3.6325,-3.6189,-3.64,-3.6671,0.0,0.0,0.0,0.0,0.0,0.0,0.0,0.0,0.0,0.0,0.0,0.0,0.0,0.0,0.0,0.0,0.0,0.0,0.0,0.0,0.0,0.0,0.0,0.0,0.0,0.0,0.0,-2.9093,-2.8638,0.0,0.0,0.0,0.0,0.0,0.0,0.0,0.0,0.0,0.0,0.0,-2.9602,-2.9713,0.0,0.0,0.0,0.0,0.0,0.0,0.0,0.0,0.0,0.0,0.0,0.0,-2.9651,-2.9741,-2.9713,-2.9713,-2.9851,-2.9898,-3.0083,-3.0447,-3.0613,-3.1014,-3.1781,0.0,0.0,0.0,0.0,0.0,0.0,0.0,0.0,0.0,0.0,0.0,0.0,0.0,0.0,0.0,0.0,0.0,0.0,0.0,0.0,0.0,0.0,0.0,0.0,0.0,-3.5321,0.0,0.0,0.0,0.0,0.0,0.0,0.0,0.0,0.0,0.0,0.0,-3.5091,-3.5184,-3.5259,-3.5569,-3.6409,-3.7051,-3.7682,0.0,0.0,0.0,0.0,0.0,0.0,0.0,0.0,0.0,0.0,0.0,0.0,0.0,0.0,-3.9519,-3.8928,-3.9017,-3.9173,-3.937,0.0,0.0,0.0,0.0,0.0,0.0,0.0,0.0,0.0,0.0,0.0,0.0,0.0,0.0,0.0,0.0,-2.9118,0.0,0.0,0.0,0.0,0.0,0.0,0.0,0.0,-2.9741,-2.9803,-2.9837,-2.9946,-3.0036,0.0,-3.0248,-3.0219,0.0,0.0,0.0,0.0,0.0,0.0,0.0,0.0,-3.0007,-3.0158,-3.0233,-3.0294,-3.0355,-3.0447,-3.0613,-3.0925,-3.1306,-3.1879,-3.2484,-3.2834,-3.3087,0.0,0.0,0.0,0.0,0.0,0.0,0.0,0.0,0.0,0.0,0.0,0.0,0.0,0.0,0.0,0.0,0.0,0.0,0.0,0.0,0.0,0.0,0.0,-3.5352,0.0,0.0,0.0,0.0,0.0,0.0,0.0,0.0,0.0,-3.6957,-3.6461,-3.6394,-3.6656,-3.652,-3.6837,-3.7949,0.0,0.0,0.0,0.0,0.0,0.0,0.0,-4.0315,-3.9978,-4.0144,-4.0344,-4.0546,-4.0931,-4.1247,-4.1294,0.0,0.0,-4.0216,-4.0224,-4.0377,-4.0513,-4.0599,-4.0642,-4.0701,-4.0615,-4.0529,0.0,0.0,0.0,0.0,0.0,0.0,0.0,0.0,-3.0244,-2.9998,0.0,-2.9339,0.0,0.0,0.0,0.0,0.0,0.0,0.0,0.0,-3.0107,-3.0291,-3.0398,-3.0398,-3.0517,-3.0693,-3.0727,-3.082,-3.0821,-3.043,0.0,0.0,0.0,0.0,0.0,0.0,-3.0312,-3.0387,-3.0507,-3.0702,-3.0821,-3.0821,-3.1043,-3.1537,-3.2201,-3.278,-3.3096,-3.3346,-3.3555,-3.371,-3.3848,0.0,0.0,0.0,0.0,0.0,0.0,0.0,0.0,0.0,0.0,0.0,0.0,0.0,0.0,0.0,0.0,0.0,0.0,0.0,0.0,-3.5077,0.0,0.0,0.0,0.0,0.0,0.0,0.0,0.0,0.0,0.0,-3.8453,-3.8053,-3.8196,-3.9245,0.0,0.0,0.0,0.0,-4.0382,-4.1065,-4.1518,-4.1745,-4.1745,-4.1873,-4.2123,-4.2357,0.0,0.0,-4.2782,-4.2745,-4.2757,-4.3022,-4.2842,-4.2213,-4.0913,-4.0837,-4.0998,-4.1114,-4.1147,-4.1082,-4.1098,-4.1226,-4.114,-2.9028,0.0,0.0,0.0,0.0,-3.1286,-3.1189,-3.0847,-3.1097,-3.0966,-3.0538,-3.0141,0.0,0.0,0.0,0.0,0.0,0.0,-3.0927,-3.1141,-3.1729,-3.2057,-3.2057,-3.2353,-3.2505,-3.2549,-3.2749,-3.2647,-3.2183,-3.2183,-3.1723,-3.0747,0.0,0.0,0.0,0.0,-3.0747,-3.0984,-3.1043,-3.1161,-3.1321,-3.1509,-3.1894,-3.2407,-3.278,-3.3118,-3.3503,-3.371,-3.3899,-3.4101,-3.4134,0.0,0.0,0.0,0.0,0.0,0.0,0.0,0.0,0.0,0.0,0.0,0.0,0.0,0.0,0.0,0.0,0.0,0.0,0.0,-3.6423,-3.6953,-3.7632,0.0,0.0,0.0,0.0,0.0,0.0,0.0,0.0,0.0,-4.1247,-4.0384,-3.9932,0.0,0.0,-4.0049,-4.095,-4.1504,-4.1966,-4.2593,0.0,0.0,0.0,-4.3139,-4.3296,-4.3684,-4.3576,-4.3402,-4.3458,-4.3569,-4.3575,-4.3541,-4.3618,-4.3464,-4.2752,-4.2643,-4.2627,-4.2703,-4.2779,-4.2881,-4.2822,-4.2779,-4.267,-2.9819,-2.9973,-3.0368,-3.0836,-3.1224,-3.1535,-3.1616,-3.1541,-3.1594,-3.1571,-3.1443,-3.1016,-3.1075,-3.1397,-3.1123,0.0,0.0,0.0,-3.2232,-3.2399,-3.2983,-3.3285,-3.3423,-3.3607,-3.3698,-3.3788,-3.4045,-3.3796,-3.3207,-3.3367,-3.2931,-3.1894,0.0,0.0,-3.1364,-3.1379,-3.1452,-3.1625,-3.1781,-3.1894,-3.1921,-3.2231,-3.2563,-3.298,-3.324,-3.345,-3.3745,-3.3949,-3.4167,-3.4399,-3.4448,-3.4594,0.0,0.0,0.0,0.0,0.0,0.0,0.0,0.0,0.0,0.0,0.0,-3.683,-3.6918,0.0,0.0,0.0,-3.6896,-3.7153,-3.788,-3.8361,0.0,0.0,0.0,0.0,0.0,0.0,0.0,-4.3114,-4.3218,-4.3307,-4.3511,-4.2761,-4.2092,-4.1784,-4.1529,-4.1637,-4.2334,0.0,-4.313,-4.3536,-4.3581,-4.366,-4.391,-4.391,-4.4143,-4.4663,-4.4697,-4.473,-4.4872,-4.4761,-4.46,-4.4432,-4.4344,-4.4167,-4.3564,-4.3492,-4.3492,-4.3492,-4.3568,-4.3568,-4.3645,-4.3535,-4.3502,-3.0533,-3.0698,-3.0773,-3.1075,-3.1609,-3.1596,-3.195,-3.2376,-3.1926,-3.2055,-3.2495,-3.2033,-3.2062,-3.2384,-3.2737,0.0,-3.2941,-3.3391,-3.3652,-3.3637,-3.4001,-3.4286,-3.448,-3.4555,-3.4588,-3.4727,-3.4868,-3.4597,-3.407,-3.4172,-3.3912,-3.3309,-3.2508,-3.2048,-3.1992,-3.2176,-3.2231,-3.2302,-3.2492,-3.2656,-3.2656,-3.2926,-3.3171,-3.3346,-3.3607,-3.3797,-3.3949,-3.4201,-3.4399,-3.4546,-3.4643,-3.4851,-3.5152,0.0,0.0,0.0,0.0,0.0,0.0,0.0,0.0,0.0,0.0,0.0,0.0,0.0,0.0,0.0,-3.9187,0.0,-3.9491,-3.9504,0.0,0.0,0.0,-4.2137,-4.3479,-4.3558,-4.3718,-4.4174,0.0,0.0,-4.5202,0.0,-4.4479,-4.3587,-4.2858,-4.2875,-4.3898,-4.402,-4.4065,-4.4065,-4.4065,-4.4143,-4.4358,-4.4435,-4.4677,-4.5253,-4.564,-4.5802,-4.6191,-4.6015,-4.5601,-4.5178,-4.4841,-4.4257,-4.3618,-4.3479,-4.3529,-4.3396,-4.3529,-4.3611,-4.3495,-4.3479,-4.3429,-3.0773,-3.0911,-3.1061,-3.136,-3.1609,-3.1757,-3.2155,-3.2605,-3.2975,-3.3322,-3.369,-3.3339,-3.3191,-3.3037,-3.3285,-3.3408,-3.3591,-3.4317,-3.4729,-3.4866,-3.5676,-3.6106,-3.6182,-3.6409,-3.6502,-3.6552,-3.6861,-3.6342,-3.5252,-3.5324,-3.4765,-3.3654,-3.3366,-3.3087,-3.2765,-3.2695,-3.2695,-3.2834,-3.2873,-3.3049,-3.3277,-3.333,-3.3487,-3.3761,-3.3899,-3.405,-3.4201,-3.4349,-3.4546,-3.4787,-3.4947,-3.5182,-3.5594,-3.5756,0.0,0.0,0.0,0.0,0.0,0.0,0.0,0.0,0.0,-3.8262,-3.9407,0.0,-3.9363,0.0,-4.0148,-4.0479,-4.0845,-4.1409,0.0,0.0,-4.3098,-4.323,-4.3535,-4.4048,-4.4384,-4.4443,-4.516,-4.5684,-4.5708,-4.5934,-4.5783,-4.4725,-4.4366,-4.4278,-4.4465,-4.4435,-4.4435,-4.4404,-4.445,-4.4572,-4.4902,-4.5395,-4.5555,-4.5333,-4.5464,-4.5495,-4.5386,-4.5424,-4.5227,-4.4762,-4.4653,-4.4208,-4.3099,-4.2924,-4.2724,-4.2489,-4.2949,-4.3446,-4.2916,-4.2767,-4.2626,-3.0986,-3.1123,-3.1347,-3.1643,-3.195,-3.2082,-3.2503,-3.3129,-3.3604,-3.4085,-3.4491,-3.4587,-3.4569,-3.4478,-3.465,-3.4788,-3.4911,-3.5569,-3.5938,-3.606,-3.6781,-3.715,-3.715,-3.7373,-3.7496,-3.7515,-3.7472,-3.6853,-3.5831,-3.561,-3.4993,-3.3915,-3.3848,-3.3729,-3.3523,-3.3298,-3.3245,-3.3314,-3.3403,-3.3642,-3.3848,-3.3899,-3.405,-3.4234,-3.4349,-3.4448,-3.4546,-3.4691,-3.4883,-3.5102,-3.5321,-3.5594,-3.6002,-3.6174,-3.6485,0.0,0.0,0.0,0.0,0.0,0.0,0.0,0.0,0.0,0.0,0.0,-4.0925,-4.1491,-4.1837,-4.2159,-4.2353,-4.2783,-4.3181,-4.3595,-4.3645,-4.3744,-4.4059,-4.4417,-4.4915,-4.5474,-4.5807,-4.5978,-4.6143,-4.6023,-4.5672,-4.5066,-4.4856,-4.4669,-4.4252,-4.4164,-4.418,-4.418,-4.4252,-4.4382,-4.4812,-4.5234,-4.5452,-4.5301,-4.5338,-4.5456,-4.5437,-4.5546,-4.5342,-4.4473,-4.4344,-4.3981,-4.2655,-4.2322,-4.2228,-4.21,-4.2372,-4.2641,-4.2311,-4.2211,-4.2086,-3.1084,-3.1228,-3.1603,-3.1942,-3.2437,-3.2591,-3.3072,-3.3758,-3.4099,-3.4558,-3.5118,-3.5559,-3.5894,-3.61,-3.6211,-3.6258,-3.6274,-3.6816,-3.7015,-3.7044,-3.748,-3.7685,-3.77,-3.7876,-3.7886,-3.7758,-3.7335,-3.669,-3.5893,-3.5412,-3.4813,-3.4183,-3.4134,-3.4151,-3.4151,-3.3949,-3.3813,-3.3813,-3.405,-3.425,-3.4366,-3.4497,-3.4643,-3.4739,-3.4787,-3.4883,-3.4977,-3.5135,-3.5304,-3.547,-3.5756,-3.6019,-3.6343,-3.6533,-3.6776,0.0,-3.7309,0.0,0.0,0.0,0.0,0.0,0.0,0.0,0.0,-4.2486,-4.2586,-4.3121,-4.3614,-4.3881,-4.3628,-4.3628,-4.3628,-4.3628,-4.3711,-4.4009,-4.4605,-4.476,-4.5352,-4.6609,-4.6059,-4.5814,-4.6304,-4.5603,-4.5049,-4.4935,-4.4773,-4.4411,-4.3763,-4.3733,-4.3838,-4.3727,-4.3934,-4.4313,-4.4536,-4.4869,-4.5082,-4.5177,-4.5239,-4.5458,-4.5573,-4.5635,-4.534,-4.4257,-4.3939,-4.3437,-4.2055,-4.1787,-4.1737,-4.1661,-4.1695,-4.172,-4.1749,-4.1727,-4.1772,-3.1069,-3.0844,-3.1793,-3.2258,-3.2387,-3.3514,-3.4077,-3.4292,-3.4808,-3.535,-3.5943,-3.6211,-3.6367,-3.6414,-3.6429,-3.6476,-3.6585,-3.6877,-3.706,-3.7194,-3.7524,-3.7685,-3.77,-3.7992,-3.7858,-3.7279,-3.7261,-3.6599,-3.5361,-3.5256,-3.4864,-3.4267,-3.425,-3.4316,-3.4399,0.0,0.0,0.0,-3.4464,-3.4594,-3.4659,-3.4835,-3.4994,-3.5041,-3.5287,0.0,-3.5498,-3.5644,-3.582,-3.5968,-3.6216,0.0,0.0,0.0,0.0,0.0,0.0,0.0,0.0,0.0,0.0,0.0,-4.4334,-4.4431,-4.4303,-4.4372,-4.434,-4.4074,-4.4169,-4.408,-4.3898,-4.3839,-4.3763,-4.3645,-4.4125,-4.4539,-4.4705,-4.5222,-4.5752,-4.5947,-4.5868,-4.5708,-4.5678,-4.5516,-4.5156,-4.4598,-4.4499,-4.4253,-4.3682,-4.4059,-4.4442,-4.449,-4.4642,-4.4903,-4.5082,-4.5273,-4.5309,-4.5086,-4.4948,-4.487,-4.4599,-4.4491,-4.4223,-4.3361,-4.3206,-4.2789,-4.146,-4.1174,-4.1076,-4.0646,-4.0663,-4.0696,-4.0959,-4.0988,-4.0849,-3.0673,0.0,-3.1543,-3.2206,0.0,-3.3893,-3.4582,-3.5052,-3.5439,-3.5894,-3.6352,-3.6492,-3.6492,-3.6492,-3.6492,-3.6554,-3.6723,-3.6968,-3.721,-3.7282,-3.7377,-3.7422,-3.7406,-3.7335,-3.7122,-3.6767,-3.6539,-3.6065,-3.5416,-3.5086,-3.4808,-3.4497,-3.4546,-3.4643,-3.4804,-3.4977,-3.4866,-3.4594,-3.4851,-3.5024,-3.5055,-3.5287,-3.547,-3.5605,0.0,0.0,0.0,0.0,0.0,0.0,0.0,0.0,0.0,0.0,0.0,-3.7521,-3.8251,-3.9035,-3.9896,-4.1395,-4.2781,-4.3845,-4.4385,-4.4817,-4.5126,-4.4854,-4.4639,-4.4575,-4.448,-4.4293,-4.4097,-4.4056,-4.3939,-4.3881,-4.4181,-4.453,-4.4809,-4.5094,-4.5445,-4.5715,-4.5467,-4.5218,-4.5235,-4.4903,-4.4589,-4.4284,-4.4261,-4.4145,-4.3922,-4.4009,-4.4194,-4.4256,-4.4384,-4.457,-4.466,-4.4826,-4.4983,-4.4641,-4.4708,-4.4632,-4.4411,-4.4024,-4.3519,-4.2829,-4.2433,-4.1862,-4.0931,-4.0679,-4.068,-4.0474,-4.0453,-4.0523,-4.0747,-4.0729,-4.0629,-3.031,-3.0622,-3.1268,-3.2131,-3.3057,-3.379,-3.4622,-3.554,0.0,0.0,0.0,-3.6554,-3.6554,-3.6631,-3.6554,-3.6677,-3.6831,-3.7008,-3.7184,-3.7313,-3.7118,-3.698,-3.6987,-3.662,-3.6417,-3.6283,-3.5838,-3.5597,-3.5494,-3.5017,-3.4787,-3.4835,-3.493,-3.5088,-3.5274,-3.5424,-3.5379,-3.5165,-3.5321,-3.5458,-3.5515,-3.5783,-3.6028,-3.6182,-3.6266,-3.6367,-3.6609,-3.6609,-3.6731,-3.6873,-3.7009,-3.7143,-3.7297,-3.7392,-3.7503,-3.763,-3.8469,-3.9272,-3.9896,-4.1538,-4.2816,-4.349,-4.3676,-4.4213,-4.5197,-4.4681,-4.4405,-4.4685,-4.4657,-4.4614,-4.4463,-4.431,-4.4196,-4.4212,-4.4272,-4.4549,-4.4983,-4.5014,-4.5206,-4.5573,-4.509,-4.4666,-4.4757,-4.4399,-4.4056,-4.4155,-4.4263,-4.4229,-4.4212,-4.3973,-4.3803,-4.3939,-4.4038,-4.4014,-4.4147,-4.4354,-4.4367,-4.4434,-4.4587,-4.4631,-4.4427,-4.3914,-4.3169,-4.2289,-4.1728,-4.1187,-4.0543,-4.0487,-4.0551,-4.06,-4.0697,-4.0762,-4.0783,-4.0751,-4.07,-3.039,-3.0359,-3.1559,-3.2095,-3.225,-3.3304,-3.4091,-3.4741,-3.5922,-3.6538,-3.6662,-3.6662,-3.68,-3.6954,-3.6938,-3.7044,-3.7251,-3.6875,-3.6835,0.0,-3.6724,-3.6543,-3.6702,-3.6727,-3.6452,-3.5993,-3.5877,-3.5611,-3.5191,-3.5074,-3.5135,-3.527,-3.5333,-3.5515,-3.5844,-3.5888,-3.5958,-3.6088,-3.5958,-3.5888,-3.5932,-3.6284,-3.6492,-3.6533,-3.6816,-3.6974,-3.7013,-3.7126,-3.722,-3.722,-3.7317,-3.7354,-3.7392,-3.7521,-3.7594,-3.7666,-3.895,-3.9807,-3.995,-4.2037,-4.3636,-4.4218,-4.3766,-4.358,-4.393,-4.4277,-4.4439,-4.432,-4.487,-4.5159,-4.4923,-4.4869,-4.4742,-4.4553,-4.502,-4.5419,-4.5378,-4.5286,-4.5207,-4.5278,-4.4798,-4.4333,-4.4286,-4.4333,-4.4328,-4.4597,-4.4495,-4.4686,-4.4703,-4.44,-4.4073,-4.4056,-4.4172,-4.4229,-4.4327,-4.4536,-4.4686,-4.472,-4.478,-4.4633,-4.407,-4.378,-4.32,-4.1989,-4.1612,-4.1324,-4.0756,-4.0664,-4.0775,-4.0931,-4.1029,-4.1047,-4.114,-4.1215,-4.1209,-3.0085,-3.0255,-3.1089,-3.1743,-3.2227,-3.3501,-3.4294,-3.4666,-3.5408,-3.5661,-3.5561,-3.5323,-3.5283,-3.531,-3.5096,-3.5093,-3.5308,-3.5224,-3.5347,-3.5613,-3.5234,-3.5054,-3.5119,-3.493,-3.4722,-3.4418,-3.4447,-3.437,-3.4147,-3.4606,-3.4941,-3.5101,-3.5667,-3.6088,-3.6251,-3.6335,-3.6461,-3.655,-3.6426,-3.6343,-3.6444,-3.6713,-3.6895,-3.6952,-3.7126,-3.7241,-3.7261,-3.7299,-3.7392,-3.7429,-3.7503,-3.7503,-3.7521,-3.7594,-3.7577,-3.763,-3.9058,-3.9896,-3.9896,-4.1734,-4.3001,-4.3255,-4.291,-4.2711,-4.2802,-4.3313,-4.3912,-4.4533,-4.4918,-4.5249,-4.5477,-4.5441,-4.5266,-4.5106,-4.4964,-4.4787,-4.4589,-4.4219,-4.3883,-4.3732,-4.3423,-4.3294,-4.3427,-4.3481,-4.3588,-4.3852,-4.4162,-4.4626,-4.5091,-4.4961,-4.472,-4.4648,-4.4648,-4.4665,-4.4686,-4.4831,-4.477,-4.4465,-4.4434,-4.4162,-4.358,-4.3203,-4.2619,-4.1984,-4.1596,-4.1254,-4.0927,-4.0961,-4.1063,-4.122,-4.1335,-4.137,-4.1538,-4.1648,-4.1715,-2.9913,-3.0233,-3.0702,-3.1457,-3.2362,-3.3541,-3.4146,-3.4353,-3.4455,-3.4407,-3.4216,-3.4148,-3.4101,-3.3896,-3.3567,-3.3591,-3.3764,-3.3856,-3.4088,-3.4266,-3.3935,-3.3739,-3.3762,-3.3446,-3.3296,-3.3322,-3.3389,-3.3414,-3.3541,-3.4168,-3.4567,-3.4751,-3.5607,-3.6024,-3.6064,-3.6145,-3.6282,-3.6326,-3.6287,-3.6444,-3.6834,-3.7069,-3.7241,-3.7334,-3.7334,-3.7392,-3.7429,-3.7466,-3.7503,-3.7577,-3.7577,-3.7577,-3.7577,-3.7577,-3.7577,-3.7719,-3.8897,-3.9825,-4.0217,-4.1484,-4.2287,-4.2287,-4.2187,-4.2163,-4.2216,-4.2569,-4.3315,-4.4413,-4.4689,-4.501,-4.5369,-4.5361,-4.5264,-4.5196,-4.4626,-4.4095,-4.3786,-4.3254,-4.2774,-4.255,-4.2518,-4.2672,-4.2792,-4.2843,-4.3048,-4.3302,-4.3698,-4.4267,-4.4854,-4.4975,-4.4889,-4.4749,-4.4729,-4.4694,-4.4624,-4.4538,-4.4334,-4.3907,-4.389,-4.3596,-4.3093,-4.242,-4.1988,-4.1799,-4.1474,-4.1263,-4.1221,-4.1286,-4.1367,-4.1552,-4.1631,-4.1745,-4.1886,-4.2026,-4.2101,-3.0387,-3.0628,-3.1043,-3.1597,-3.2257,-3.2834,-3.3138,-3.3222,-3.2855,-3.2708,-3.2902,-3.4017,-3.4181,-3.3874,-3.3901,-3.4005,-3.4137,-3.3888,-3.3809,-3.3956,-3.3544,-3.3363,-3.3482,-3.3439,-3.3539,-3.3588,-3.3594,-3.3567,-3.3682,-3.3894,-3.4083,-3.4263,-3.4501,-3.4666,-3.4711,-3.4806,-3.4881,-3.4991,-3.5172,-3.5845,-3.702,-3.7261,-3.7392,-3.7374,-3.7485,-3.7594,-3.7541,-3.7577,-3.7594,-3.7577,-3.7577,-3.7577,-3.7577,-3.7577,-3.7577,-3.7612,-3.8433,-3.9504,-4.086,-4.1805,-4.2251,-4.2287,-4.2287,-4.2346,-4.2445,-4.2517,-4.2769,-4.3454,-4.4165,-4.4529,-4.4403,-4.4382,-4.4378,-4.4295,-4.4038,-4.3885,-4.3659,-4.3545,-4.3346,-4.3229,-4.3005,-4.3195,-4.3089,-4.3169,-4.3322,-4.3384,-4.3489,-4.3715,-4.3924,-4.3993,-4.3857,-4.3808,-4.3984,-4.3955,-4.3595,-4.3404,-4.3506,-4.3417,-4.3464,-4.3232,-4.2723,-4.2392,-4.2154,-4.1644,-4.1424,-4.1446,-4.155,-4.1666,-4.1785,-4.1941,-4.2019,-4.2121,-4.2305,-4.2342,-4.2306,-3.0687,-3.1058,-3.1321,-3.1838,-3.2407,-3.2482,-3.2573,-3.2752,-3.2334,-3.1999,-3.1819,-3.2495,-3.2624,-3.2268,-3.2047,-3.2077,-3.2293,-3.2157,-3.2236,-3.2428,-3.2326,-3.231,-3.2371,-3.2466,-3.2505,-3.2561,-3.2599,-3.2599,-3.2745,-3.3222,-3.3769,-3.4356,-3.4501,-3.4614,-3.4689,-3.4708,-3.4781,-3.4942,-3.5066,-3.5421,-3.5883,-3.6061,-3.6114,-3.6114,-3.615,-3.6417,-3.6827,-3.6899,-3.7095,-3.7523,-3.7577,-3.7577,-3.7577,-3.7577,-3.7577,-3.763,-3.8362,-3.9486,-4.1002,-4.1493,-4.1926,-4.2409,-4.2468,-4.249,-4.2566,-4.2645,-4.2789,-4.305,-4.3691,-4.4235,-4.4561,-4.4607,-4.452,-4.4352,-4.3944,-4.3482,-4.3356,-4.2833,-4.2444,-4.2323,-4.2323,-4.2369,-4.2398,-4.2507,-4.2808,-4.3107,-4.3265,-4.3388,-4.381,-4.3968,-4.3757,-4.3388,-4.343,-4.3535,-4.3402,-4.3492,-4.338,-4.3156,-4.3109,-4.2893,-4.2404,-4.214,-4.2,-4.1684,-4.1718,-4.1807,-4.1884,-4.1961,-4.2019,-4.2203,-4.2356,-4.2418,-4.2512,-4.2559,-4.2559,-3.1043,-3.1349,-3.1543,-3.1778,-3.2173,-3.2104,-3.2217,-3.2352,-3.2012,-3.1596,-3.1286,-3.1378,-3.1321,-3.111,-3.0758,-3.0716,-3.0902,-3.1095,-3.1213,-3.1389,-3.1542,-3.1634,-3.1654,-3.1763,-3.18,-3.18,-3.1834,-3.18,-3.1908,-3.2522,-3.326,-3.3805,-3.4019,-3.4128,-3.4164,-3.4164,-3.427,-3.4443,-3.4495,-3.4529,-3.4579,-3.4579,-3.4757,-3.515,-3.5204,-3.5489,-3.6042,-3.606,-3.6453,-3.7202,-3.7255,-3.7362,-3.7577,-3.7577,-3.7577,-3.7648,-3.8381,-3.931,-4.0435,-4.1017,-4.1597,-4.2171,-4.2465,-4.2688,-4.2727,-4.2822,-4.2899,-4.2953,-4.3328,-4.3902,-4.425,-4.4294,-4.4253,-4.4157,-4.3507,-4.3059,-4.286,-4.2278,-4.2005,-4.1805,-4.1964,-4.1823,-4.1909,-4.2083,-4.2374,-4.2782,-4.2888,-4.303,-4.358,-4.3687,-4.3491,-4.2977,-4.2888,-4.297,-4.3184,-4.3167,-4.3047,-4.289,-4.2697,-4.2607,-4.2179,-4.2108,-4.2072,-4.1987,-4.2078,-4.2139,-4.2139,-4.2213,-4.2304,-4.2444,-4.2577,-4.2619,-4.2709,-4.277,-4.27,-3.148,-3.1474,-3.1674,-3.1524,-3.1118,-3.1549,-3.1822,-3.1979,-3.1602,-3.1462,-3.1444,-3.1116,-3.0962,-3.1019,-3.1089,-3.1151,-3.1173,-3.1363,-3.15,-3.1579,-3.1617,-3.1654,-3.18,-3.18,-3.18,-3.18,-3.1837,-3.1856,-3.1912,-3.2072,-3.2213,-3.2354,-3.2582,-3.2615,-3.2719,-3.2855,-3.2781,-3.309,-3.3137,-3.3062,-3.3077,-3.3094,-3.3758,-3.4936,-3.515,-3.5132,-3.5275,-3.5275,-3.5632,-3.6417,-3.6488,-3.6809,-3.747,-3.7559,-3.7577,-3.7684,-3.8419,-3.8903,-3.9226,-4.0486,-4.1425,-4.1755,-4.2352,-4.2842,-4.3012,-4.3067,-4.3086,-4.3178,-4.3214,-4.3231,-4.3113,-4.3219,-4.3051,-4.2936,-4.2771,-4.262,-4.2481,-4.244,-4.2351,-4.2287,-4.2228,-4.2246,-4.2246,-4.2287,-4.2305,-4.2412,-4.2376,-4.2465,-4.2573,-4.2555,-4.2519,-4.2483,-4.2371,-4.2311,-4.2172,-4.243,-4.2374,-4.2334,-4.2489,-4.2371,-4.2341,-4.2287,-4.2287,-4.2282,-4.2317,-4.2341,-4.2427,-4.248,-4.2582,-4.2678,-4.2605,-4.2643,-4.2573,-4.2754,-4.252,-3.0607,-3.1006,-3.133,-3.1431,-3.1437,-3.1354,-3.1482,-3.1687,-3.1051,-3.0966,-3.1099,-3.1012,-3.0975,-3.1015,-3.1213,-3.1329,-3.1402,-3.1479,-3.1593,-3.1726,-3.1746,-3.1746,-3.18,-3.18,-3.1819,-3.1839,-3.1875,-3.2001,-3.2179,-3.2284,-3.2336,-3.2438,-3.2523,-3.259,-3.2657,-3.2707,-3.2755,-3.287,-3.2884,-3.2916,-3.2916,-3.2916,-3.3187,-3.3669,-3.3723,-3.3972,-3.449,-3.4508,-3.4847,-3.5596,-3.6114,-3.6524,-3.6827,-3.7309,-3.7613,-3.7703,-3.7972,-3.8402,-3.9068,-3.9662,-4.0619,-4.1724,-4.2141,-4.265,-4.3105,-4.3232,-4.3232,-4.3214,-4.3214,-4.3142,-4.3105,-4.3068,-4.3031,-4.2918,-4.2842,-4.2765,-4.2688,-4.2609,-4.2512,-4.249,-4.249,-4.249,-4.2472,-4.2472,-4.249,-4.249,-4.249,-4.249,-4.249,-4.2472,-4.2472,-4.249,-4.249,-4.2468,-4.2427,-4.2346,-4.2328,-4.2409,-4.2468,-4.2526,-4.249,-4.249,-4.249,-4.249,-4.2553,-4.2575,-4.2595,-4.2546,-4.2681,-4.2683,-4.2611,-4.2232,-4.2232,-4.2123,-4.1669,-3.0243,-3.0613,-3.0958,-3.1165,-3.1172,-3.1034,-3.11,-3.1248,-3.085,-3.0773,-3.0952,-3.1015,-3.1055,-3.1095,-3.1196,-3.1351,-3.1479,-3.1538,-3.1651,-3.1817,-3.18,-3.18,-3.18,-3.1837,-3.1856,-3.1894,-3.1984,-3.2144,-3.2422,-3.2439,-3.2541,-3.2657,-3.269,-3.2737,-3.282,-3.287,-3.2902,-3.2948,-3.2961,-3.2979,-3.2979,-3.2979,-3.2979,-3.2979,-3.2961,-3.3198,-3.3705,-3.3705,-3.4079,-3.4811,-3.5382,-3.5882,-3.6452,-3.7238,-3.7703,-3.7757,-3.781,-3.8096,-3.8776,-3.9204,-3.9993,-4.1204,-4.1944,-4.2525,-4.3073,-4.3348,-4.3442,-4.3444,-4.3375,-4.3393,-4.3393,-4.3393,-4.3322,-4.316,-4.3068,-4.2994,-4.2936,-4.2842,-4.2804,-4.2783,-4.2783,-4.2727,-4.2709,-4.2709,-4.2709,-4.2709,-4.2709,-4.2709,-4.267,-4.267,-4.2709,-4.2709,-4.2727,-4.2727,-4.2688,-4.2631,-4.2552,-4.2609,-4.2631,-4.267,-4.2688,-4.2688,-4.2652,-4.267,-4.2691,-4.2747,-4.2696,-4.2665,-4.2594,-4.2503,-4.2032,-4.1487,-4.1377,-4.1177,-4.0812,-3.0488,-3.037,-3.0649,-3.0612,-3.0418,-3.0659,-3.0725,-3.0799,-3.0912,-3.0975,-3.1032,-3.1151,-3.1151,-3.119,-3.123,-3.1308,-3.1479,-3.1559,-3.1654,-3.18,-3.18,-3.1783,-3.1783,-3.1875,-3.193,-3.1966,-3.2144,-3.2318,-3.2523,-3.2623,-3.269,-3.2805,-3.2884,-3.2979,-3.3011,-3.3028,-3.3042,-3.3104,-3.3117,-3.3117,-3.3117,-3.3117,-3.3117,-3.3086,-3.3117,-3.3091,-3.3019,-3.2987,-3.3362,-3.399,-3.422,-3.4934,-3.6449,-3.7433,-3.7899,-3.7916,-3.8036,-3.8119,-3.8262,-3.9094,-3.9658,-4.0317,-4.1493,-4.2327,-4.2649,-4.331,-4.3717,-4.3684,-4.373,-4.3771,-4.3753,-4.3753,-4.36,-4.3286,-4.3196,-4.3196,-4.3178,-4.3178,-4.3178,-4.3086,-4.3067,-4.3049,-4.2938,-4.2882,-4.29,-4.29,-4.29,-4.29,-4.29,-4.29,-4.2882,-4.2882,-4.29,-4.29,-4.29,-4.2882,-4.288,-4.2842,-4.2824,-4.2862,-4.2842,-4.2842,-4.2662,-4.2645,-4.223,-4.2249,-4.2122,-4.205,-4.1923,-4.1741,-4.1212,-4.0792,-4.068,-4.0513,-4.0181,-2.9674,-2.9929,-3.0254,-3.0402,-3.0443,-3.0692,-3.0855,-3.0895,-3.0975,-3.1072,-3.1151,-3.119,-3.119,-3.1173,-3.1252,-3.1368,-3.1517,-3.1559,-3.1671,-3.18,-3.18,-3.1802,-3.1875,-3.2001,-3.2161,-3.237,-3.2557,-3.2722,-3.2866,-3.2912,-3.3042,-3.3183,-3.3244,-3.3274,-3.3274,-3.3274,-3.3286,-3.3286,-3.3304,-3.3304,-3.3304,-3.3304,-3.3304,-3.3304,-3.3286,-3.3286,-3.3244,-3.3104,-3.3149,-3.3436,-3.3938,-3.4975,-3.6512,-3.7569,-3.807,-3.8174,-3.8271,-3.8401,-3.8533,-3.8891,-3.9497,-4.0163,-4.0826,-4.1404,-4.201,-4.2735,-4.315,-4.3231,-4.3608,-4.391,-4.3929,-4.3929,-4.3707,-4.3426,-4.3428,-4.3339,-4.3286,-4.3214,-4.3214,-4.3178,-4.3196,-4.3142,-4.3142,-4.3087,-4.3087,-4.3087,-4.3087,-4.3105,-4.3087,-4.3087,-4.3123,-4.3123,-4.3123,-4.3087,-4.3032,-4.2923,-4.2777,-4.283,-4.2885,-4.2776,-4.2812,-4.2793,-4.263,-4.2305,-4.1887,-4.1686,-4.1559,-4.1394,-4.1247,-4.0955,-4.0498,-4.0273,-4.0138,-3.991,-3.9593,-2.9502,-2.9858,-3.0248,-3.0501,-3.0651,-3.0912,-3.1015,-3.1072,-3.1072,-3.1095,-3.1207,-3.1213,-3.1252,-3.1235,-3.1329,-3.1445,-3.1631,-3.1688,-3.1765,-3.191,-3.1856,-3.1875,-3.202,-3.2179,-3.242,-3.2737,-3.2834,-3.3011,-3.3196,-3.3268,-3.3327,-3.3452,-3.352,-3.3549,-3.3549,-3.3567,-3.3549,-3.3549,-3.3549,-3.3549,-3.3549,-3.3549,-3.3549,-3.3549,-3.3549,-3.3549,-3.3549,-3.3415,-3.3327,-3.3454,-3.4297,-3.5462,-3.649,-3.7598,-3.8318,-3.8401,-3.8528,-3.8652,-3.878,-3.8958,-3.9249,-3.9928,-4.0364,-4.0838,-4.1436,-4.2109,-4.2576,-4.266,-4.292,-4.3274,-4.3256,-4.3274,-4.3125,-4.2894,-4.3369,-4.3545,-4.3463,-4.3428,-4.3393,-4.3358,-4.3322,-4.3268,-4.3214,-4.3214,-4.3214,-4.3214,-4.3214,-4.3214,-4.3214,-4.3214,-4.316,-4.316,-4.3178,-4.316,-4.316,-4.2977,-4.274,-4.2759,-4.285,-4.2687,-4.2541,-4.2468,-4.2359,-4.1705,-4.1249,-4.1227,-4.1118,-4.0729,-4.0471,-4.0123,-3.9882,-3.9675,-3.9522,-3.9386,-3.9158,-2.9814,-3.006,-3.0485,-3.0733,-3.0912,-3.1112,-3.119,-3.119,-3.119,-3.119,-3.1213,-3.1291,-3.1295,-3.1351,-3.1483,-3.1634,-3.18,-3.1837,-3.1965,-3.2108,-3.2091,-3.2091,-3.2266,-3.2506,-3.277,-3.2993,-3.3086,-3.3208,-3.3433,-3.353,-3.3633,-3.3643,-3.3753,-3.3807,-3.3807,-3.3788,-3.3807,-3.3807,-3.3807,-3.3807,-3.3807,-3.3807,-3.3807,-3.3788,-3.3807,-3.3788,-3.3807,-3.3788,-3.3698,-3.3662,-3.5016,-3.5951,-3.6346,-3.7674,-3.8634,-3.8664,-3.8815,-3.8892,-3.895,-3.9101,-3.9301,-3.9511,-4.0158,-4.0773,-4.0892,-4.1487,-4.1995,-4.1995,-4.213,-4.2141,-4.2179,-4.2198,-4.2098,-4.2062,-4.2983,-4.3592,-4.3767,-4.3804,-4.3701,-4.36,-4.3532,-4.3408,-4.3176,-4.3139,-4.3067,-4.2939,-4.2903,-4.2865,-4.2865,-4.2774,-4.3012,-4.2939,-4.2754,-4.2681,-4.2459,-4.2331,-4.2145,-4.2184,-4.2298,-4.2156,-4.1956,-4.1814,-4.1683,-4.1076,-4.0638,-4.0653,-4.05,-4.0065,-3.9858,-3.9743,-3.9478,-3.9116,-3.9036,-3.9064,-3.912,-2.9886,-3.006,-3.0485,-3.079,-3.0912,-3.1112,-3.119,-3.119,-3.119,-3.1213,-3.1274,-3.1423,-3.1483,-3.1542,-3.1728,-3.1839,-3.1912,-3.2037,-3.2232,-3.2387,-3.2438,-3.2454,-3.2588,-3.2802,-3.3042,-3.3256,-3.3345,-3.3491,-3.3671,-3.378,-3.3842,-3.3895,-3.3921,-3.3947,-3.3947,-3.3947,-3.3947,-3.3947,-3.3947,-3.3947,-3.3965,-3.3965,-3.3947,-3.3947,-3.3998,-3.4023,-3.4042,-3.4074,-3.3972,-3.3854,-3.5395,-3.6343,-3.6519,-3.796,-3.8933,-3.8989,-3.9073,-3.9156,-3.9237,-3.9324,-3.9433,-3.9526,-3.9838,-3.9986,-4.0024,-4.0801,-4.1216,-4.1386,-4.1757,-4.2071,-4.2109,-4.2071,-4.2039,-4.213,-4.265,-4.3231,-4.3719,-4.3961,-4.391,-4.3878,-4.3758,-4.3398,-4.2945,-4.2695,-4.2478,-4.2073,-4.193,-4.193,-4.2095,-4.204,-4.2169,-4.1908,-4.1738,-4.1774,-4.1719,-4.1609,-4.1535,-4.1517,-4.1507,-4.139,-4.1086,-4.0766,-4.0625,-4.027,-3.9896,-3.9792,-3.9619,-3.9301,-3.9264,-3.9449,-3.9342,-3.9156,-3.921,-3.9245,-3.9298,-3.0017,-3.0189,-3.0609,-3.0831,-3.0912,-3.1112,-3.119,-3.119,-3.123,-3.1274,-3.1351,-3.1538,-3.1671,-3.1765,-3.1948,-3.2091,-3.2179,-3.2301,-3.2489,-3.269,-3.2852,-3.2866,-3.2898,-3.3028,-3.3244,-3.3452,-3.3549,-3.3671,-3.3815,-3.3947,-3.3998,-3.4023,-3.4074,-3.4092,-3.4074,-3.4074,-3.4074,-3.4074,-3.4099,-3.408,-3.4099,-3.4099,-3.4074,-3.4099,-3.4148,-3.4197,-3.4221,-3.4269,-3.4173,-3.4308,-3.5321,-3.627,-3.676,-3.7944,-3.8917,-3.9216,-3.9324,-3.9376,-3.9427,-3.9526,-3.9599,-3.9689,-3.9735,-3.9758,-3.9876,-4.0291,-4.0537,-4.0594,-4.1028,-4.1198,-4.1232,-4.1232,-4.1354,-4.1588,-4.1916,-4.2352,-4.3098,-4.3069,-4.3114,-4.3092,-4.2995,-4.2841,-4.2254,-4.2137,-4.1884,-4.1558,-4.1521,-4.1502,-4.1502,-4.1366,-4.1292,-4.1181,-4.12,-4.1366,-4.1243,-4.1077,-4.0903,-4.0885,-4.0681,-4.0591,-4.0473,-4.006,-3.9826,-3.964,-3.9221,-3.8989,-3.9055,-3.9091,-3.9212,-3.9332,-3.9264,-3.9324,-3.9401,-3.9427,-3.9502,-3.0189,-3.0417,-3.0733,-3.0912,-3.0952,-3.1112,-3.119,-3.1213,-3.1274,-3.1295,-3.1389,-3.1671,-3.1839,-3.193,-3.2161,-3.2387,-3.2606,-3.2606,-3.282,-3.3011,-3.3183,-3.3244,-3.3135,-3.3244,-3.3393,-3.352,-3.3661,-3.3762,-3.3921,-3.4049,-3.4099,-3.4124,-3.4173,-3.4197,-3.4173,-3.4197,-3.4216,-3.4173,-3.4173,-3.4173,-3.4173,-3.4173,-3.4173,-3.4197,-3.4311,-3.434,-3.4386,-3.4409,-3.4363,-3.4269,-3.5147,-3.6048,-3.69,-3.7821,-3.8694,-3.9357,-3.9551,-3.9594,-3.9623,-3.9665,-3.9735,-3.9781,-3.9804,-3.9826,-3.9886,-3.9981,-4.0019,-4.0019,-3.9889,-4.0116,-4.0113,-3.9958,-4.0276,-4.0802,-4.0944,-4.1211,-4.1619,-4.1931,-4.1965,-4.1847,-4.1857,-4.1745,-4.1529,-4.1434,-4.1378,-4.0803,-4.0803,-4.0766,-4.0766,-4.0728,-4.0784,-4.0849,-4.096,-4.1118,-4.0894,-4.0644,-4.0384,-4.0226,-3.9918,-3.9826,-4.0052,-3.9745,-3.9389,-3.9125,-3.9163,-3.92,-3.9219,-3.9272,-3.9324,-3.9376,-3.9452,-3.9526,-3.9618,-3.9618,-3.9665,-3.0231,-3.0417,-3.0749,-3.0912,-3.0952,-3.1112,-3.119,-3.119,-3.1274,-3.1351,-3.15,-3.1783,-3.1984,-3.2144,-3.237,-3.2606,-3.2773,-3.2884,-3.3073,-3.3304,-3.3462,-3.352,-3.3462,-3.3481,-3.352,-3.3643,-3.3788,-3.3895,-3.3998,-3.4099,-3.4173,-3.4191,-3.4191,-3.4216,-3.4216,-3.4216,-3.4216,-3.4216,-3.4216,-3.4216,-3.4216,-3.4197,-3.4221,-3.4269,-3.4386,-3.4495,-3.4539,-3.4539,-3.4561,-3.4749,-3.5312,-3.6081,-3.7069,-3.7947,-3.878,-3.9439,-3.9647,-3.9712,-3.9758,-3.9781,-3.9804,-3.9848,-3.9867,-3.9889,-3.9889,-3.9889,-3.9889,-3.9889,-3.9889,-3.9889,-3.9889,-3.9889,-4.0,-4.0189,-4.0223,-4.0242,-4.0518,-4.141,-4.1902,-4.1964,-4.1919,-4.18,-4.1109,-4.0937,-4.0694,-4.0132,-4.0001,-3.9944,-4.0038,-4.0124,-4.0255,-4.0397,-4.0379,-4.0491,-4.0397,-4.0173,-4.008,-3.9911,-3.9626,-3.9439,-3.9647,-3.9667,-3.9432,-3.9358,-3.9402,-3.9414,-3.9401,-3.9477,-3.9526,-3.9575,-3.9529,-3.9406,-3.9377,-3.9532,-3.9441,-3.0316,-3.0485,-3.0708,-3.0814,-3.0912,-3.1072,-3.1151,-3.119,-3.1274,-3.1351,-3.1538,-3.1783,-3.2055,-3.2266,-3.2557,-3.2787,-3.2948,-3.3135,-3.3316,-3.3462,-3.3577,-3.3633,-3.3643,-3.3633,-3.3615,-3.3726,-3.3842,-3.3921,-3.4023,-3.4142,-3.4216,-3.4216,-3.4216,-3.4216,-3.4216,-3.4216,-3.4216,-3.4216,-3.4216,-3.4216,-3.4216,-3.4216,-3.4245,-3.434,-3.445,-3.4517,-3.4583,-3.4645,-3.4666,-3.4821,-3.5181,-3.5972,-3.7071,-3.7737,-3.8553,-3.9554,-3.9781,-3.9804,-3.9845,-3.9867,-3.9848,-3.9889,-3.9889,-3.9889,-3.9889,-3.9889,-3.9889,-3.9889,-3.9889,-3.9889,-3.9889,-3.9889,-3.9889,-3.9889,-3.9889,-3.9889,-4.0041,-4.0636,-4.1099,-4.1057,-4.092,-4.0745,-4.0476,-4.0446,-4.0314,-3.9889,-3.9852,-3.9814,-3.9795,-3.9889,-3.9795,-3.9852,-3.9763,-3.9744,-3.9763,-3.9744,-3.9776,-3.9739,-3.9664,-3.9618,-3.9714,-3.9682,-3.958,-3.9566,-3.9571,-3.9604,-3.9575,-3.9647,-3.9486,-3.9188,-3.9022,-3.8991,-3.8804,-3.8521,-3.8391,-2.9987,-3.0137,-3.0318,-3.0439,-3.0576,-3.0606,-3.0757,-3.0987,-3.1104,-3.1198,-3.1538,-3.1783,-3.202,-3.2283,-3.259,-3.2884,-3.3135,-3.3357,-3.352,-3.3577,-3.3615,-3.3671,-3.3698,-3.3698,-3.3716,-3.3744,-3.386,-3.3947,-3.4005,-3.4124,-3.4216,-3.4216,-3.4216,-3.4216,-3.4216,-3.4216,-3.4216,-3.4216,-3.4216,-3.4216,-3.4197,-3.4221,-3.4293,-3.4386,-3.4495,-3.4539,-3.4583,-3.4666,-3.4727,-3.4788,-3.4868,-3.5719,-3.6763,-3.7465,-3.8035,-3.9567,-3.9738,-3.987,-3.9889,-3.9889,-3.9889,-3.9889,-3.9889,-3.9889,-3.9889,-3.9889,-3.9889,-3.9889,-3.9889,-3.9889,-3.9889,-3.9889,-3.9889,-3.9889,-3.9889,-3.9889,-3.9889,-3.9889,-4.0037,-4.0015,-4.022,-4.0178,-4.0042,-3.9962,-3.983,-3.9731,-3.9712,-3.9712,-3.9712,-3.9712,-3.9735,-3.9717,-3.9735,-3.9735,-3.9735,-3.9735,-3.9735,-3.9735,-3.9735,-3.9754,-3.9796,-3.9758,-3.9721,-3.9705,-3.9705,-3.9721,-3.9603,-3.946,-3.918,-3.8748,-3.8428,-3.8317,-3.7919,-3.7447,-3.7447,-2.8451,-2.8626,-2.8782,-2.8953,-2.9101,-2.916,-2.964,-3.0226,-3.0357,-3.0806,-3.1432,-3.1709,-3.1896,-3.2249,-3.2506,-3.2834,-3.3214,-3.3452,-3.3577,-3.3633,-3.3698,-3.378,-3.378,-3.378,-3.3817,-3.387,-3.3957,-3.3979,-3.403,-3.413,-3.4216,-3.4216,-3.4216,-3.4216,-3.4216,-3.4216,-3.4216,-3.4216,-3.4216,-3.4216,-3.4197,-3.4269,-3.434,-3.4473,-3.4539,-3.4602,-3.4623,-3.4666,-3.4727,-3.4788,-3.4886,-3.5437,-3.6252,-3.6955,-3.7807,-3.8717,-3.9475,-3.974,-3.9738,-3.9851,-3.987,-3.9889,-3.9889,-3.9889,-3.9889,-3.9889,-3.9889,-3.9889,-3.9889,-3.9889,-3.9889,-3.9889,-3.9889,-3.9889,-3.9889,-3.9889,-3.9911,-3.9911,-3.9911,-3.987,-3.987,-3.9848,-3.9845,-3.9823,-3.9823,-3.9823,-3.9845,-3.9845,-3.9845,-3.9867,-3.9848,-3.9848,-3.9848,-3.9848,-3.9848,-3.9867,-3.9867,-3.9867,-3.9867,-3.9867,-3.9886,-3.9867,-3.987,-3.981,-3.9791,-3.975,-3.9602,-3.9302,-3.8772,-3.8241,-3.7921,-3.7561,-3.7126,-3.6728,-3.6955,-2.805,-2.8223,-2.8412,-2.8565,-2.8678,-2.8753,-2.905,-2.9482,-2.959,-3.0071,-3.0711,-3.105,-3.1493,-3.2004,-3.2422,-3.2802,-3.3178,-3.3481,-3.3577,-3.3643,-3.3753,-3.3807,-3.3807,-3.3807,-3.3844,-3.3915,-3.3957,-3.4023,-3.4074,-3.4148,-3.4216,-3.4216,-3.4216,-3.4216,-3.4216,-3.4216,-3.4216,-3.4216,-3.4216,-3.4216,-3.424,-3.4293,-3.4404,-3.4495,-3.4561,-3.4623,-3.4666,-3.4708,-3.4788,-3.4848,-3.4888,-3.5154,-3.5647,-3.631,-3.7144,-3.7959,-3.8793,-3.9267,-3.9399,-3.9589,-3.987,-3.9889,-3.987,-3.9889,-3.9889,-3.9889,-3.9889,-3.9889,-3.9889,-3.9889,-3.9889,-3.9889,-3.9889,-3.9889,-3.9889,-3.9911,-3.9951,-3.9954,-3.9954,-3.9954,-3.9933,-3.9911,-3.987,-3.9889,-3.9889,-3.9911,-3.9951,-3.9951,-3.9973,-3.9973,-3.9954,-3.9975,-3.9954,-3.9954,-3.9954,-3.9954,-3.9954,-3.9973,-3.9994,-3.9973,-3.9973,-3.9954,-3.9933,-3.9889,-3.9873,-3.9702,-3.9286,-3.8869,-3.83,-3.7675,-3.7163,-3.667,-3.6273,-3.6083,-3.6311,-2.7545,-2.774,-2.7888,-2.8056,-2.8206,-2.8226,-2.8404,-2.8702,-2.8755,-2.9234,-2.9972,-3.0341,-3.0917,-3.1636,-3.2231,-3.2705,-3.3129,-3.3327,-3.3502,-3.3643,-3.3726,-3.378,-3.3807,-3.3807,-3.3825,-3.3925,-3.3976,-3.4023,-3.408,-3.4173,-3.4216,-3.4216,-3.4216,-3.4216,-3.4216,-3.4216,-3.4216,-3.4216,-3.4216,-3.4197,-3.4269,-3.4358,-3.445,-3.4517,-3.458,-3.4645,-3.4687,-3.4768,-3.4848,-3.4887,-3.4907,-3.4927,-3.5022,-3.5571,-3.6234,-3.6917,-3.7845,-3.8319,-3.8603,-3.9172,-3.9532,-3.9513,-3.9775,-3.9851,-3.9889,-3.9889,-3.9889,-3.9889,-3.9889,-3.9911,-3.9933,-3.9933,-3.9933,-3.9933,-3.9954,-3.9954,-4.0015,-4.0036,-4.0036,-4.0036,-3.9954,-3.9954,-3.9954,-3.9954,-3.9975,-3.9975,-4.0015,-4.0015,-4.0036,-4.0036,-4.0057,-4.0057,-4.0057,-4.0057,-4.0057,-4.0057,-4.0057,-4.0036,-4.0036,-4.0036,-4.0036,-4.0036,-3.9918,-3.9745,-3.9532,-3.9326,-3.889,-3.8302,-3.7543,-3.688,-3.6272,-3.5894,-3.5647,-3.5496,-3.5571,-2.6036,-2.6196,-2.6412,-2.6524,-2.6664,-2.6768,-2.7226,-2.7837,-2.7941,-2.8454,-2.9257,-2.9904,-3.0446,-3.1113,-3.2056,-3.2555,-3.2816,-3.3099,-3.3357,-3.3549,-3.3689,-3.3753,-3.3788,-3.3807,-3.3862,-3.397,-3.4002,-3.4037,-3.4111,-3.4197,-3.4216,-3.4216,-3.4216,-3.4216,-3.4216,-3.4216,-3.4216,-3.4216,-3.4216,-3.4269,-3.4363,-3.4431,-3.4498,-3.4583,-3.4645,-3.4687,-3.4727,-3.4827,-3.4906,-3.4907,-3.4927,-3.4908,-3.4927,-3.4965,-3.5059,-3.5609,-3.65,-3.7561,-3.7675,-3.8338,-3.8831,-3.8944,-3.9323,-3.9757,-3.9624,-3.9586,-3.9605,-3.9889,-3.9775,-3.9686,-3.9631,-3.9842,-3.9939,-3.9922,-3.9827,-3.9962,-4.0058,-4.0096,-4.0117,-4.0118,-4.0077,-4.0077,-4.0077,-4.0077,-4.0077,-4.0077,-4.0077,-4.0077,-4.0098,-4.0137,-4.0137,-4.0157,-4.0157,-4.0157,-4.0157,-4.0137,-4.0137,-4.0137,-4.0118,-4.0118,-4.0118,-4.0002,-3.9581,-3.9409,-3.9178,-3.8778,-3.8267,-3.7583,-3.6748,-3.6179,-3.5761,-3.5458,-3.521,-3.5095,-3.5091,-2.5659,-2.5934,-2.6043,-2.617,-2.6279,-2.6382,-2.6636,-2.6992,-2.7112,-2.7588,-2.8441,-2.924,-3.0187,-3.1198,-3.2056,-3.2404,-3.2654,-3.2975,-3.3268,-3.3491,-3.3633,-3.3707,-3.3807,-3.3807,-3.3862,-3.397,-3.402,-3.4074,-3.4111,-3.4179,-3.4216,-3.4216,-3.4216,-3.4216,-3.4216,-3.4216,-3.4216,-3.4216,-3.4264,-3.4316,-3.4409,-3.4495,-3.4539,-3.4602,-3.4666,-3.4727,-3.4768,-3.4848,-3.4907,-3.4907,-3.4927,-3.4908,-3.4908,-3.4927,-3.4927,-3.4984,-3.5514,-3.6178,-3.6708,-3.7504,-3.7864,-3.7997,-3.83,-3.8395,-3.849,-3.8546,-3.8565,-3.8471,-3.851,-3.8609,-3.8667,-3.8611,-3.8954,-3.9145,-3.9355,-3.9699,-3.9871,-4.0118,-4.0195,-4.0176,-4.0158,-4.0062,-4.0043,-4.0118,-4.0099,-4.0118,-4.0118,-4.0157,-4.0176,-4.0196,-4.0215,-4.0234,-4.0234,-4.0234,-4.0234,-4.0253,-4.0234,-4.0234,-4.0234,-4.0215,-4.0158,-3.9986,-3.9471,-3.8918,-3.8516,-3.8059,-3.7585,-3.6996,-3.6255,-3.578,-3.5324,-3.5226,-3.5143,-3.5216,-3.5228,-2.547,-2.5844,-2.5937,-2.6118,-2.6277,-2.6312,-2.6399,-2.6554,-2.6605,-2.6979,-2.7658,-2.8645,-3.0033,-3.1281,-3.1826,-3.2232,-3.2521,-3.2898,-3.3196,-3.3433,-3.3605,-3.3726,-3.378,-3.3807,-3.387,-3.4007,-3.4002,-3.4074,-3.4148,-3.4216,-3.4216,-3.4216,-3.4216,-3.4216,-3.4216,-3.4197,-3.4197,-3.4245,-3.4293,-3.4381,-3.4473,-3.4517,-3.4561,-3.4604,-3.4687,-3.4747,-3.4809,-3.4868,-3.4907,-3.4908,-3.4908,-3.4908,-3.4908,-3.4908,-3.4908,-3.4927,-3.5154,-3.5325,-3.5931,-3.6576,-3.6992,-3.7144,-3.7334,-3.7637,-3.7561,-3.743,-3.7449,-3.7658,-3.7698,-3.7661,-3.7566,-3.77,-3.8023,-3.8385,-3.8575,-3.9033,-3.9376,-3.9376,-3.9357,-3.9204,-3.9299,-3.9757,-3.9834,-4.0043,-4.0138,-4.0138,-4.0176,-4.0196,-4.0158,-4.01,-4.0214,-4.0195,-4.0252,-4.0272,-4.031,-4.031,-4.0329,-4.029,-4.0288,-4.0096,-3.9907,-3.9603,-3.9145,-3.8575,-3.7871,-3.7185,-3.659,-3.6212,-3.5853,-3.5562,-3.5291,-3.5264,-3.5212,-3.5306,-3.5347,-2.5362,-2.5738,-2.5901,-2.6063,-2.6203,-2.6277,-2.6364,-2.6535,-2.6554,-2.6708,-2.7182,-2.8354,-2.9532,-3.0585,-3.1458,-3.2004,-3.2352,-3.2737,-3.3104,-3.3345,-3.353,-3.3671,-3.3753,-3.3834,-3.386,-3.3994,-3.3991,-3.4074,-3.4173,-3.4216,-3.4216,-3.4216,-3.4216,-3.4216,-3.4197,-3.4221,-3.4245,-3.4293,-3.4381,-3.4409,-3.4517,-3.4561,-3.4623,-3.4706,-3.4747,-3.4827,-3.4887,-3.4907,-3.4908,-3.4908,-3.4908,-3.4908,-3.4908,-3.4908,-3.4908,-3.4908,-3.4908,-3.5022,-3.5363,-3.5799,-3.6178,-3.6481,-3.6746,-3.705,-3.6975,-3.7299,-3.7432,-3.7204,-3.7072,-3.7281,-3.7432,-3.7661,-3.7393,-3.7659,-3.7792,-3.8058,-3.8288,-3.8267,-3.8229,-3.8132,-3.8419,-3.8935,-3.9201,-3.9336,-4.0024,-4.0101,-3.9852,-3.985,-3.9753,-3.9733,-4.0018,-4.0151,-4.0227,-4.0285,-4.0362,-4.0381,-4.0382,-4.0248,-4.0168,-3.9802,-3.9402,-3.9057,-3.8712,-3.7838,-3.7061,-3.6329,-3.5768,-3.5718,-3.5618,-3.5435,-3.5315,-3.534,-3.5372,-3.5425,-3.5456,-2.5208,-2.5642,-2.5828,-2.6043,-2.622,-2.6239,-2.6324,-2.6462,-2.6535,-2.6892,-2.7385,-2.8063,-2.9085,-3.0221,-3.0867,-3.162,-3.2265,-3.2705,-3.3073,-3.3364,-3.3549,-3.3671,-3.3753,-3.3834,-3.386,-3.3957,-3.4016,-3.4055,-3.4179,-3.4197,-3.4216,-3.4216,-3.4216,-3.4216,-3.4197,-3.4245,-3.4293,-3.4381,-3.4427,-3.4476,-3.4539,-3.4602,-3.4645,-3.4706,-3.4768,-3.4827,-3.4887,-3.4908,-3.4927,-3.4908,-3.4908,-3.4908,-3.4908,-3.4908,-3.4908,-3.4908,-3.4908,-3.4908,-3.4908,-3.523,-3.5382,-3.5439,-3.5704,-3.6008,-3.6122,-3.6046,-3.6026,-3.6007,-3.6195,-3.6365,-3.6174,-3.6171,-3.6224,-3.6719,-3.7043,-3.7196,-3.7292,-3.7292,-3.7349,-3.7368,-3.7712,-3.8169,-3.8339,-3.8491,-3.9332,-4.004,-3.975,-3.9478,-3.9323,-3.9207,-3.9416,-3.9586,-3.9643,-3.9931,-4.0008,-4.0183,-4.0339,-4.0125,-3.9909,-3.9388,-3.8843,-3.855,-3.807,-3.716,-3.655,-3.6161,-3.5834,-3.554,-3.5425,-3.5432,-3.547,-3.5521,-3.5562,-3.5579,-3.5599,-2.5107,-2.5621,-2.5807,-2.6007,-2.6168,-2.6203,-2.627,-2.6424,-2.6482,-2.6824,-2.7503,-2.7758,-2.866,-2.9845,-3.0592,-3.1342,-3.2194,-3.2705,-3.3073,-3.3364,-3.352,-3.3671,-3.3753,-3.3834,-3.386,-3.3983,-3.4016,-3.4074,-3.4197,-3.4197,-3.4216,-3.4216,-3.4216,-3.4216,-3.4221,-3.4269,-3.434,-3.4427,-3.4454,-3.4539,-3.4602,-3.4623,-3.4666,-3.4747,-3.4788,-3.4849,-3.4888,-3.4908,-3.4908,-3.4908,-3.4908,-3.4908,-3.4908,-3.4908,-3.4908,-3.4908,-3.4908,-3.4908,-3.4908,-3.4927,-3.4927,-3.5078,-3.5096,-3.5153,-3.5057,-3.5092,-3.5377,-3.53,-3.5259,-3.5179,-3.5179,-3.5422,-3.5575,-3.605,-3.6107,-3.6241,-3.6413,-3.6489,-3.6585,-3.6661,-3.7041,-3.7381,-3.7627,-3.7797,-3.8367,-3.9037,-3.892,-3.8665,-3.8558,-3.8485,-3.8524,-3.8712,-3.8843,-3.9173,-3.9522,-3.9438,-3.9319,-3.9215,-3.8994,-3.87,-3.8252,-3.7918,-3.7392,-3.653,-3.6093,-3.6074,-3.5917,-3.5639,-3.5579,-3.5574,-3.5626,-3.5669,-3.5699,-3.5717,-3.5717,-2.5044,-2.5616,-2.5775,-2.5957,-2.6101,-2.6203,-2.6236,-2.6338,-2.6449,-2.6605,-2.6911,-2.7572,-2.8355,-2.935,-3.0075,-3.0942,-3.186,-3.242,-3.2804,-3.2984,-3.3047,-3.3451,-3.3515,-3.3521,-3.3372,-3.388,-3.3746,-3.3648,-3.3974,-3.377,-3.3881,-3.3993,-3.3905,-3.4128,-3.4203,-3.4269,-3.4381,-3.4473,-3.4476,-3.4539,-3.4623,-3.4685,-3.4708,-3.4788,-3.4848,-3.4907,-3.4908,-3.4927,-3.4908,-3.4908,-3.4908,-3.4908,-3.4908,-3.4908,-3.4908,-3.4908,-3.4908,-3.4908,-3.4927,-3.4964,-3.5001,-3.5001,-3.5057,-3.5092,-3.5111,-3.5147,-3.52,-3.5162,-3.5196,-3.5193,-3.5174,-3.5209,-3.5305,-3.5398,-3.5474,-3.5531,-3.5758,-3.5837,-3.5971,-3.6064,-3.6304,-3.6584,-3.6872,-3.7156,-3.7533,-3.7874,-3.7932,-3.7847,-3.768,-3.7599,-3.7546,-3.7896,-3.8064,-3.8425,-3.8695,-3.8458,-3.8298,-3.8228,-3.8106,-3.7887,-3.7564,-3.7162,-3.6574,-3.5878,-3.5809,-3.5913,-3.5844,-3.576,-3.5726,-3.5708,-3.5743,-3.5788,-3.583,-3.583,-3.5803,-2.3613,-2.4064,-2.4821,-2.5248,-2.5487,-2.5969,-2.6236,-2.6324,-2.6467,-2.6623,-2.6725,-2.7148,-2.7726,-2.8494,-2.9109,-2.9931,-3.0771,-3.1142,-3.1494,-3.1872,-3.2092,-3.208,-3.2221,-3.2401,-3.2378,-3.2385,-3.2428,-3.2612,-3.2544,-3.2767,-3.2655,-3.2678,-3.3297,-3.3785,-3.4144,-3.434,-3.4427,-3.4495,-3.4539,-3.4583,-3.4666,-3.4687,-3.4747,-3.4868,-3.4906,-3.4926,-3.4927,-3.4908,-3.4908,-3.4908,-3.4908,-3.4908,-3.4908,-3.4908,-3.4908,-3.4927,-3.4927,-3.5001,-3.5039,-3.5075,-3.5111,-3.5111,-3.5129,-3.5164,-3.5164,-3.5179,-3.5196,-3.5193,-3.5193,-3.519,-3.519,-3.5242,-3.5299,-3.5315,-3.5369,-3.5346,-3.5442,-3.5426,-3.5484,-3.5538,-3.5703,-3.5829,-3.6055,-3.6353,-3.6743,-3.6906,-3.6983,-3.6733,-3.6543,-3.6453,-3.6415,-3.6999,-3.7351,-3.7711,-3.7846,-3.7672,-3.7711,-3.7781,-3.7591,-3.7304,-3.6919,-3.6542,-3.6251,-3.5814,-3.5776,-3.5766,-3.5799,-3.5826,-3.584,-3.584,-3.584,-3.584,-3.5859,-3.5859,-3.5872,-2.2791,-2.3282,-2.4053,-2.449,-2.4758,-2.5754,-2.6256,-2.6395,-2.652,-2.6589,-2.6708,-2.6893,-2.7418,-2.8098,-2.8535,-2.9123,-3.0061,-3.0421,-3.0704,-3.1003,-3.1156,-3.1404,-3.1469,-3.1372,-3.1704,-3.1555,-3.1602,-3.1765,-3.1968,-3.1838,-3.1894,-3.2102,-3.2389,-3.2858,-3.3444,-3.3863,-3.4473,-3.4517,-3.4561,-3.4623,-3.4706,-3.4747,-3.4788,-3.4868,-3.4907,-3.4927,-3.4927,-3.4908,-3.4908,-3.4908,-3.4908,-3.4908,-3.4908,-3.4927,-3.4927,-3.4945,-3.5001,-3.5073,-3.5162,-3.5198,-3.5215,-3.5196,-3.5196,-3.5179,-3.5196,-3.5193,-3.5229,-3.5245,-3.5226,-3.5242,-3.5223,-3.5273,-3.5308,-3.5324,-3.532,-3.5296,-3.5315,-3.532,-3.532,-3.5335,-3.5374,-3.5402,-3.5435,-3.554,-3.5888,-3.5971,-3.6042,-3.5823,-3.5669,-3.5712,-3.5786,-3.6267,-3.6609,-3.6832,-3.7006,-3.6987,-3.7084,-3.7316,-3.7065,-3.6726,-3.652,-3.6187,-3.5978,-3.583,-3.5834,-3.5834,-3.5859,-3.5885,-3.5866,-3.5866,-3.5885,-3.5885,-3.5891,-3.5885,-3.5898,-2.264,-2.3154,-2.3448,-2.3669,-2.4083,-2.5374,-2.6177,-2.6485,-2.6485,-2.6555,-2.6708,-2.6892,-2.7382,-2.813,-2.8575,-2.9109,-2.9753,-3.016,-3.0402,-3.0677,-3.0636,-3.0892,-3.1029,-3.1084,-3.0991,-3.1265,-3.133,-3.1121,-3.1597,-3.1318,-3.1355,-3.1563,-3.1682,-3.1989,-3.2499,-3.3275,-3.3936,-3.3998,-3.4038,-3.4156,-3.4331,-3.4542,-3.4678,-3.4793,-3.4927,-3.4908,-3.4908,-3.4908,-3.4908,-3.4908,-3.4908,-3.4908,-3.4927,-3.4983,-3.5001,-3.5038,-3.5089,-3.5176,-3.5242,-3.5277,-3.5293,-3.5273,-3.5242,-3.5207,-3.519,-3.5207,-3.5242,-3.5277,-3.5293,-3.5289,-3.5304,-3.532,-3.5335,-3.533,-3.533,-3.5345,-3.5364,-3.5364,-3.5398,-3.5422,-3.5483,-3.5521,-3.554,-3.5584,-3.5596,-3.5678,-3.5836,-3.5781,-3.5676,-3.5676,-3.5727,-3.5815,-3.6036,-3.5965,-3.6101,-3.6384,-3.6442,-3.6675,-3.6448,-3.6141,-3.5962,-3.5976,-3.5905,-3.5866,-3.5885,-3.5892,-3.5891,-3.5883,-3.5883,-3.5883,-3.5878,-3.5883,-3.5897,-3.5883,-3.5897,-2.1174,-2.1593,-2.2475,-2.2883,-2.3178,-2.4182,-2.5261,-2.6264,-2.6434,-2.6572,-2.6725,-2.6909,-2.7276,-2.7526,-2.7826,-2.8263,-2.8588,-2.8852,-2.9062,-2.9362,-2.9708,-2.9667,-2.9745,-2.9913,-2.989,-2.9954,-3.0058,-3.0234,-3.0129,-3.0169,-3.0169,-3.0099,-3.0812,-3.1024,-3.1497,-3.2252,-3.261,-3.2912,-3.297,-3.3426,-3.373,-3.3903,-3.4207,-3.4529,-3.4661,-3.4661,-3.468,-3.4775,-3.4794,-3.4851,-3.4889,-3.4927,-3.4983,-3.5038,-3.5092,-3.5212,-3.5245,-3.5277,-3.5304,-3.532,-3.5335,-3.533,-3.53,-3.5266,-3.5251,-3.527,-3.5304,-3.5304,-3.5339,-3.5335,-3.5379,-3.5407,-3.5422,-3.5435,-3.543,-3.5457,-3.5476,-3.5495,-3.5522,-3.5546,-3.5577,-3.5596,-3.5635,-3.5635,-3.5646,-3.5667,-3.5688,-3.5679,-3.5698,-3.5698,-3.5736,-3.5799,-3.5815,-3.5857,-3.5864,-3.6091,-3.602,-3.5949,-3.5885,-3.5872,-3.5892,-3.5924,-3.5891,-3.5891,-3.5885,-3.5891,-3.5883,-3.5889,-3.5889,-3.5889,-3.5889,-3.5889,-3.5889,-3.5889,-3.5889,-2.0444,-2.0857,-2.1666,-2.2312,-2.2831,-2.3356,-2.4282,-2.5329,-2.5865,-2.6253,-2.6725,-2.6957,-2.7135,-2.7359,-2.7622,-2.7877,-2.8142,-2.8461,-2.8655,-2.8808,-2.8791,-2.9015,-2.9012,-2.9067,-2.9267,-2.92,-2.9283,-2.9551,-2.9368,-2.9388,-2.9446,-2.9543,-3.0049,-3.0203,-3.0487,-3.0845,-3.1073,-3.1449,-3.1844,-3.2448,-3.2845,-3.3091,-3.3507,-3.3847,-3.3998,-3.3998,-3.4055,-3.4187,-3.4452,-3.4585,-3.4661,-3.5001,-3.5073,-3.5126,-3.5229,-3.5343,-3.5388,-3.5398,-3.5422,-3.5435,-3.5422,-3.5422,-3.5422,-3.5416,-3.5374,-3.5379,-3.5364,-3.5383,-3.5398,-3.5412,-3.5455,-3.5509,-3.5522,-3.5547,-3.5584,-3.5608,-3.562,-3.5639,-3.5646,-3.5659,-3.5679,-3.5699,-3.5699,-3.5689,-3.5699,-3.5727,-3.5745,-3.5771,-3.5779,-3.5779,-3.5795,-3.5864,-3.5878,-3.5872,-3.5898,-3.5898,-3.5898,-3.5879,-3.5885,-3.5872,-3.5897,-3.5897,-3.5883,-3.5883,-3.5889,-3.5889,-3.5889,-3.5889,-3.5889,-3.5889,-3.5889,-3.5889,-3.5889,-3.5889,-3.5889,-2.0323,-2.076,-2.1167,-2.1935,-2.2727,-2.2808,-2.3238,-2.3983,-2.4812,-2.5731,-2.6488,-2.6971,-2.7198,-2.7417,-2.7659,-2.7893,-2.8136,-2.838,-2.8543,-2.8737,-2.8834,-2.8929,-2.9017,-2.9112,-2.9178,-2.9222,-2.9304,-2.9368,-2.9388,-2.9388,-2.9411,-2.9431,-2.9547,-2.9718,-2.987,-2.9964,-3.0171,-3.0339,-3.1073,-3.1827,-3.2091,-3.2278,-3.2334,-3.2521,-3.2577,-3.2577,-3.2765,-3.3143,-3.3728,-3.3975,-3.4276,-3.4691,-3.4947,-3.5028,-3.5172,-3.5441,-3.5501,-3.5522,-3.5528,-3.554,-3.5572,-3.5591,-3.5604,-3.5572,-3.5515,-3.5443,-3.5449,-3.5482,-3.5495,-3.5483,-3.5521,-3.557,-3.5612,-3.5635,-3.5657,-3.5678,-3.5688,-3.5708,-3.5736,-3.5752,-3.5768,-3.5788,-3.5788,-3.5788,-3.5788,-3.5811,-3.5826,-3.5833,-3.5859,-3.5859,-3.5866,-3.5898,-3.5905,-3.5897,-3.5897,-3.5897,-3.5883,-3.5883,-3.5889,-3.5883,-3.5883,-3.5883,-3.5889,-3.5889,-3.5889,-3.5889,-3.5889,-3.5889,-3.5889,-3.5889,-3.5889,-3.5889,-3.5889,-3.5889,-3.5889,-2.0304,-2.076,-2.1294,-2.1718,-2.1972,-2.2016,-2.2477,-2.3187,-2.3543,-2.457,-2.5842,-2.6681,-2.7213,-2.7478,-2.7701,-2.795,-2.8219,-2.8406,-2.8594,-2.8761,-2.8881,-2.8929,-2.9017,-2.9152,-2.9197,-2.924,-2.9304,-2.9425,-2.9518,-2.9502,-2.9468,-2.9528,-2.9605,-2.972,-2.9664,-2.9683,-2.9719,-2.9774,-3.0206,-3.1034,-3.1485,-3.1596,-3.1669,-3.2139,-3.2386,-3.2421,-3.2571,-3.2775,-3.2942,-3.2997,-3.3051,-3.3551,-3.4266,-3.448,-3.4924,-3.5399,-3.557,-3.5581,-3.5623,-3.5635,-3.5635,-3.5615,-3.5615,-3.5604,-3.5581,-3.5546,-3.5534,-3.5565,-3.5589,-3.5593,-3.5607,-3.5658,-3.5689,-3.5708,-3.5718,-3.5727,-3.5745,-3.576,-3.5799,-3.582,-3.5859,-3.5866,-3.5866,-3.5866,-3.5891,-3.5878,-3.5864,-3.5894,-3.5914,-3.5914,-3.5917,-3.5922,-3.5922,-3.5908,-3.5914,-3.5914,-3.5919,-3.5914,-3.5914,-3.5894,-3.5889,-3.5894,-3.5919,-3.5894,-3.5889,-3.5914,-3.5919,-3.5908,-3.5908,-3.5914,-3.5914,-3.5919,-3.5914,-3.5914,-3.5894,-2.015,-2.0644,-2.1246,-2.1556,-2.1694,-2.1768,-2.2029,-2.2441,-2.2959,-2.3914,-2.5164,-2.6165,-2.6978,-2.747,-2.7777,-2.8007,-2.8246,-2.8458,-2.8637,-2.8785,-2.8923,-2.897,-2.9062,-2.9152,-2.9197,-2.924,-2.9363,-2.95,-2.9797,-2.9988,-3.0068,-3.0053,-3.0093,-3.0001,-2.9852,-2.972,-2.9812,-2.9754,-2.9901,-3.0406,-3.1044,-3.1059,-3.1151,-3.168,-3.1998,-3.2164,-3.2727,-3.2912,-3.3245,-3.3498,-3.3829,-3.4227,-3.4802,-3.4962,-3.5176,-3.5472,-3.5639,-3.5649,-3.5669,-3.5679,-3.5679,-3.5679,-3.5679,-3.5699,-3.5728,-3.5679,-3.5639,-3.5669,-3.5667,-3.5669,-3.5698,-3.5754,-3.5771,-3.5799,-3.5815,-3.5823,-3.5826,-3.5833,-3.5878,-3.5914,-3.5938,-3.5938,-3.5938,-3.5938,-3.5943,-3.5963,-3.5953,-3.5938,-3.5962,-3.5962,-3.5953,-3.5948,-3.5943,-3.5943,-3.5948,-3.5953,-3.5968,-3.5948,-3.5924,-3.5948,-3.5948,-3.5948,-3.5948,-3.5943,-3.5943,-3.5948,-3.5948,-3.5943,-3.5943,-3.5953,-3.5948,-3.5948,-3.5943,-3.5943,-3.5943,-2.005,-2.0512,-2.115,-2.1509,-2.1694,-2.1768,-2.1814,-2.196,-2.2675,-2.3526,-2.4435,-2.5489,-2.6554,-2.739,-2.7882,-2.8081,-2.83,-2.8484,-2.8662,-2.881,-2.8947,-2.8994,-2.904,-2.9112,-2.9197,-2.9373,-2.9569,-3.002,-3.0469,-3.0698,-3.0891,-3.0895,-3.0806,-3.0677,-3.0208,-3.0076,-3.0318,-3.0466,-3.0631,-3.085,-3.0826,-3.0668,-3.101,-3.1271,-3.1581,-3.197,-3.2722,-3.3298,-3.3853,-3.4038,-3.4276,-3.4646,-3.4963,-3.5076,-3.5408,-3.5601,-3.5736,-3.5754,-3.5791,-3.5799,-3.5799,-3.5799,-3.5807,-3.5807,-3.5807,-3.5807,-3.5771,-3.5763,-3.5745,-3.5745,-3.5795,-3.5818,-3.5852,-3.5866,-3.5892,-3.5905,-3.5908,-3.5904,-3.5938,-3.5986,-3.5986,-3.5986,-3.5986,-3.599,-3.599,-3.6009,-3.6009,-3.6009,-3.6009,-3.5994,-3.5994,-3.599,-3.599,-3.599,-3.5986,-3.5981,-3.5981,-3.5997,-3.5977,-3.6001,-3.6005,-3.5981,-3.5977,-3.5997,-3.5997,-3.6001,-3.6001,-3.6001,-3.6001,-3.5986,-3.5981,-3.5977,-3.5977,-3.5977,-3.6001,-2.0135,-2.0761,-2.1198,-2.1495,-2.1634,-2.1738,-2.1781,-2.1827,-2.2107,-2.274,-2.374,-2.4802,-2.6004,-2.7509,-2.7853,-2.8081,-2.83,-2.851,-2.8662,-2.881,-2.8947,-2.8975,-2.9044,-2.9134,-2.9262,-2.9493,-2.985,-3.0451,-3.094,-3.143,-3.1794,-3.1839,-3.1899,-3.1864,-3.1845,-3.1712,-3.1615,-3.1629,-3.1718,-3.1974,-3.193,-3.1832,-3.1683,-3.2031,-3.2484,-3.2608,-3.2875,-3.3032,-3.3159,-3.3327,-3.3721,-3.4303,-3.471,-3.5048,-3.5324,-3.5682,-3.5815,-3.583,-3.5845,-3.5845,-3.5872,-3.5872,-3.5852,-3.5859,-3.5866,-3.5892,-3.5872,-3.5866,-3.5853,-3.5852,-3.5892,-3.5885,-3.5897,-3.5914,-3.5938,-3.5953,-3.5986,-3.597,-3.5994,-3.6001,-3.6004,-3.6004,-3.6004,-3.6004,-3.6004,-3.6004,-3.6004,-3.6004,-3.6004,-3.6004,-3.6004,-3.6004,-3.6004,-3.6017,-3.6009,-3.6009,-3.6009,-3.6005,-3.6005,-3.6009,-3.6009,-3.6005,-3.6005,-3.6005,-3.6005,-3.6005,-3.6009,-3.6013,-3.6009,-3.6009,-3.6005,-3.6005,-3.6005,-3.6009,-3.6013]}]]